[[[{"header":{"parameterUnit":"kt","parameterCategory":2,"dx":1,"dy":1,"la1":29.285339999999998,"la2":30.599998999999997,"lo1":-89.70041500000002,"lo2":-87.6738589999976,"nx":112,"ny":82,"refTime":"2022-09-25T06:00:00:Z","depth":0,"parameterNumber":1,"parameterNumberName":"U-component_of_WINDS"},"data":[14.8077,14.8056,14.5982,13.7301,13.4566,13.2024,12.443,12.2413,12.2529,12.3837,12.4011,12.5,12.8548,12.6891,12.5407,0.0,0.0,0.0,0.0,12.2643,12.343,12.4274,12.8519,13.2241,13.454,13.6079,14.0208,14.8059,14.7826,15.0501,15.7923,15.8773,15.9588,16.0905,16.0963,16.0963,16.0963,16.0963,16.0963,16.0963,16.0963,16.2031,16.3993,16.44,16.5833,16.7849,16.8315,16.8548,16.8548,16.8548,16.8548,16.8548,16.8548,16.8548,16.8548,16.8548,16.8548,16.8548,16.8548,16.8548,16.8548,16.8548,16.8548,16.8548,16.8548,16.8548,16.8606,16.9129,16.8897,16.8606,16.9129,16.8897,16.8548,16.8548,16.8548,16.8548,16.8548,16.8548,16.8548,16.8548,16.8548,16.8548,16.8548,16.8548,16.8548,16.8548,16.8548,16.8548,16.8548,16.8548,16.8548,16.8548,16.8548,16.8548,16.8548,16.8548,16.8548,16.8548,16.8548,16.8548,16.8548,16.8548,16.8548,16.8548,16.8548,16.8548,16.8548,16.8548,16.8548,16.8548,16.8548,16.8548,14.5762,14.5763,14.3625,13.4547,13.1696,12.9065,12.12,11.9416,11.9823,12.1131,12.2353,12.3633,12.4826,12.4709,0.0,0.0,0.0,0.0,0.0,12.3488,12.5728,12.7472,13.2213,13.5703,13.6634,13.8928,14.2883,14.8873,14.8931,15.1722,15.8657,15.9413,16.009,16.0905,16.0963,16.0963,16.0963,16.0963,16.0963,16.0963,16.1333,16.2401,16.3993,16.4865,16.624,16.7908,16.8315,16.8548,16.8548,16.8548,16.8548,16.8548,16.8548,16.8548,16.8548,16.8548,16.8548,16.8548,16.8548,16.8548,16.8548,16.8548,16.8548,16.8548,16.8548,16.8548,16.8548,16.8548,16.8548,16.8548,16.8548,16.8548,16.8548,16.8548,16.8548,16.8548,16.8548,16.8548,16.8548,16.8548,16.8548,16.8548,16.8548,16.8548,16.8548,16.8548,16.8548,16.8548,16.8548,16.8548,16.8548,16.8548,16.8548,16.8548,16.8548,16.8548,16.8548,16.8548,16.8548,16.8548,16.8548,16.8548,16.8548,16.8548,16.8548,16.8548,16.8548,16.8548,16.8548,16.8548,16.8548,16.8548,14.4677,14.3993,14.171,13.1934,12.9533,12.7367,11.8848,11.8858,12.1039,12.2322,12.3458,12.4593,12.599,12.5204,0.0,0.0,0.0,0.0,0.0,12.3431,12.7705,13.0293,13.4947,13.9018,14.1604,13.9626,14.1313,14.8955,14.8407,15.1059,15.8657,16.0264,16.0963,16.0963,16.0963,16.0963,16.0963,16.0963,16.0963,16.0963,16.2132,16.2734,16.285,16.5426,16.6589,16.6706,16.7966,16.8548,16.8548,16.8548,16.8548,16.8548,16.8548,16.8548,16.8548,16.8548,16.8548,16.8548,16.8548,16.8548,16.8548,16.8548,16.8548,16.8548,16.8548,16.8548,16.8548,16.8548,16.8548,16.8548,16.8548,16.8548,16.8548,16.8548,16.8548,16.8548,16.8548,16.8548,16.8548,16.8548,16.8548,16.8548,16.8548,16.8548,16.8548,16.8548,16.8548,16.8548,16.8548,16.8548,16.8548,16.8548,16.8548,16.8548,16.8548,16.8548,16.8548,16.8548,16.8548,16.8548,16.8548,16.8548,16.8548,16.8548,16.8548,16.8548,16.8548,16.8548,16.8548,16.8548,16.8548,16.8548,13.8534,13.8791,13.8157,13.2253,13.1201,12.9361,12.0285,11.8516,11.9226,12.0938,12.0025,0.0,0.0,0.0,12.3109,12.2906,0.0,12.9072,12.4885,13.0264,13.5614,13.8231,13.9833,14.2011,14.5558,14.6081,14.8582,15.4491,15.2862,15.4235,16.009,16.073,16.0963,16.0963,16.0963,16.0963,16.0963,16.0963,16.0963,16.0963,16.2132,16.3178,16.4167,16.5833,16.7151,16.8024,16.8373,16.8548,16.8548,16.8548,16.8548,16.8548,16.8548,16.8548,16.8548,16.8548,16.8548,16.8548,16.8548,16.8548,16.8548,16.8548,16.8548,16.8548,16.8548,16.8548,16.8548,16.8548,16.8548,16.8548,16.8548,16.8548,16.8548,16.8548,16.8548,16.8548,16.8548,16.8548,16.8548,16.8548,16.8548,16.8548,16.8548,16.8548,16.8548,16.8548,16.8548,16.8548,16.8548,16.8548,16.8548,16.8548,16.8548,16.8548,16.8548,16.8548,16.8548,16.8548,16.8548,16.8548,16.8548,16.8548,16.8548,16.8548,16.8548,16.8548,16.8548,16.8548,16.8548,16.8548,16.8548,16.8548,13.6408,13.6256,13.598,13.1876,13.2212,13.0804,12.0714,11.9569,12.0442,12.0023,0.0,0.0,0.0,0.0,0.0,0.0,12.8199,13.1631,12.7705,13.4276,14.024,14.2276,14.4893,14.6987,14.8175,14.8873,15.1431,15.6701,15.4642,15.5457,16.0672,16.0963,16.0963,16.0963,16.0963,16.0963,16.0963,16.0963,16.0963,16.0963,16.2692,16.3644,16.3934,16.6299,16.75,16.7733,16.8315,16.8548,16.8548,16.8548,16.8548,16.8548,16.8548,16.8548,16.8548,16.8548,16.8548,16.8548,16.8548,16.8548,16.8548,16.8548,16.8548,16.8548,16.8548,16.8548,16.8548,16.8548,16.8548,16.8548,16.8548,16.8548,16.8548,16.8548,16.8548,16.8548,16.8548,16.8548,16.8548,16.8548,16.8548,16.8548,16.8548,16.8548,16.8548,16.8548,16.8548,16.8548,16.8548,16.8548,16.8548,16.8548,16.8548,16.8548,16.8548,16.8548,16.8548,16.8548,16.8548,16.8548,16.8548,16.8548,16.8548,16.8548,16.8548,16.8548,16.8548,16.8548,16.8548,16.8548,16.8548,16.8548,13.587,13.484,13.4186,13.1155,13.2258,13.1521,12.1568,0.0,12.3938,12.113,0.0,12.2325,12.404,0.0,0.0,12.1657,12.9305,13.4307,13.041,13.7416,14.3439,14.4602,14.9721,15.228,14.9978,14.9745,15.178,15.6701,15.5189,15.6039,16.073,16.0963,16.0963,16.0963,16.0963,16.0963,16.0963,16.0963,16.0963,16.0963,16.3448,16.4051,16.3062,16.686,16.7908,16.688,16.8024,16.8548,16.8548,16.8548,16.8548,16.8548,16.8548,16.8548,16.8548,16.8548,16.8548,16.8548,16.8548,16.8548,16.8548,16.8548,16.8548,16.8548,16.8548,16.8548,16.8548,16.8548,16.8548,16.8548,16.8548,16.8548,16.8548,16.8548,16.8548,16.8548,16.8548,16.8548,16.8548,16.8548,16.8548,16.8548,16.8548,16.8548,16.8548,16.8548,16.8548,16.8548,16.8548,16.8548,16.8548,16.8548,16.8548,16.8548,16.8548,16.8548,16.8548,16.8548,16.8548,16.8548,16.8548,16.8548,16.8548,16.8548,16.8548,16.8548,16.8548,16.8548,16.8548,16.8548,16.8548,16.8548,12.9924,12.9602,13.0438,13.016,13.0239,12.9745,0.0,0.0,0.0,13.0715,12.9712,12.9712,13.4074,13.4307,13.4221,13.547,14.0938,14.3614,13.9684,14.594,15.1059,15.1292,15.2397,15.2978,15.2455,15.2397,15.3735,15.6817,15.8541,15.9915,16.0905,16.0963,16.0963,16.0963,16.0963,16.0963,16.0963,16.0963,16.0963,16.0963,16.3448,16.4516,16.4342,16.7268,16.8373,16.814,16.8431,16.8548,16.8548,16.8548,16.8548,16.8548,16.8548,16.8548,16.8548,16.8548,16.8548,16.8548,16.8548,16.8548,16.8548,16.8548,16.8548,16.8548,16.8548,16.8548,16.8548,16.8548,16.8548,16.8548,16.8548,16.8548,16.8548,16.8548,16.8548,16.8548,16.8548,16.8548,16.8548,16.8548,16.8548,16.8548,16.8548,16.8548,16.8548,16.8548,16.8548,16.8548,16.8548,16.8548,16.8548,16.8548,16.8548,16.8548,16.8548,16.8548,16.8548,16.8548,16.8548,16.8548,16.8548,16.8548,16.8548,16.8548,16.8548,16.8548,16.8548,16.8548,16.8548,16.8548,16.8548,16.8548,12.6919,12.6662,12.743,12.8345,12.9462,0.0,0.0,12.8255,12.9981,13.1568,13.0885,13.139,13.6068,13.6924,13.7596,13.9458,14.4137,14.7511,14.7453,15.0768,15.3188,15.3188,15.3188,15.3188,15.3188,15.3188,15.3967,15.5945,15.8482,16.0264,16.0905,16.0963,16.0963,16.0963,16.0963,16.0963,16.0963,16.0963,16.0963,16.0963,16.3448,16.4632,16.4749,16.7384,16.8548,16.8548,16.8548,16.8548,16.8548,16.8548,16.8548,16.8548,16.8548,16.8548,16.8548,16.8548,16.8548,16.8548,16.8548,16.8548,16.8548,16.8548,16.8548,16.8548,16.8548,16.8548,16.8548,16.8548,16.8548,16.8548,16.8548,16.8548,16.8548,16.8548,16.8548,16.8548,16.8548,16.8548,16.8548,16.8548,16.8548,16.8548,16.8548,16.8548,16.8548,16.8548,16.8548,16.8548,16.8548,16.8548,16.8548,16.8548,16.8548,16.8548,16.8548,16.8548,16.8548,16.8548,16.8548,16.8548,16.8548,16.8548,16.8548,16.8548,16.8548,16.8548,16.8548,16.8548,16.8548,16.8548,16.8548,16.8548,12.43,12.4321,12.5202,12.7091,12.8872,0.0,12.8502,13.0345,13.2739,13.3978,13.3863,13.4711,13.8725,13.9808,14.0589,14.2134,14.5882,14.9721,15.2746,15.3188,15.3188,15.3188,15.3188,15.3269,15.3502,15.3327,15.3909,15.5735,15.7574,15.9297,16.0846,16.0963,16.0963,16.0963,16.0963,16.0963,16.0963,16.0963,16.1079,16.1333,16.3565,16.4786,16.5135,16.75,16.8548,16.8548,16.8548,16.8548,16.8548,16.8548,16.8548,16.8548,16.8548,16.8548,16.8548,16.8548,16.8548,16.8548,16.8548,16.8548,16.8548,16.8548,16.8548,16.8548,16.8548,16.8548,16.8548,16.8548,16.8548,16.8548,16.8548,16.8548,16.8548,16.8548,16.8548,16.8548,16.8548,16.8548,16.8548,16.8548,16.8548,16.8548,16.8548,16.8548,16.8548,16.8548,16.8548,16.8548,16.8548,16.8548,16.8548,16.8548,16.8548,16.8548,16.8548,16.8548,16.8548,16.8548,16.8548,16.8548,16.8548,16.8548,16.8548,16.8548,16.8548,16.8548,16.8548,16.8548,16.8548,16.8548,16.8548,16.8548,11.9836,12.1338,12.4193,12.8057,12.7434,0.0,13.9676,14.0633,14.1452,14.9146,14.8931,14.8144,15.0902,14.9538,14.8815,15.1292,15.2164,15.2688,15.313,15.3188,15.3188,15.3188,15.3188,15.3618,15.4804,15.3851,15.4665,15.8308,15.7748,15.8366,16.0846,16.0963,16.0963,16.0963,16.0963,16.0963,16.0963,16.0963,16.1508,16.2539,16.3934,16.5252,16.6415,16.7849,16.8548,16.8548,16.8548,16.8548,16.8548,16.8548,16.8548,16.8548,16.8548,16.8548,16.8548,16.8548,16.8548,16.8548,16.8548,16.8548,16.8548,16.8548,16.8548,16.8548,16.8548,16.8548,16.8548,16.8548,16.8548,16.8548,16.8548,16.8548,16.8548,16.8548,16.8548,16.8548,16.8548,16.8548,16.8548,16.8548,16.8548,16.8548,16.8548,16.8548,16.8548,16.8548,16.8548,16.8548,16.8548,16.8548,16.8548,16.8548,16.8548,16.8548,16.8548,16.8548,16.8548,16.8548,16.8548,16.8548,16.8548,16.8548,16.8548,16.8548,16.8548,16.8548,16.8548,16.8548,16.8548,16.8548,16.8548,16.8548,11.7453,11.9599,12.2582,12.5932,0.0,0.0,13.8992,14.2262,14.5375,15.0805,15.0441,14.9988,15.2833,15.174,15.1024,15.2862,15.3188,15.3188,15.3188,15.3188,15.3188,15.3188,15.3188,15.3386,15.3909,15.3502,15.4491,15.7668,15.7341,15.825,16.0788,16.0963,16.0963,16.0963,16.0963,16.0963,16.0963,16.0963,16.1159,16.1703,16.3681,16.4923,16.5542,16.7617,16.8548,16.8548,16.8548,16.8548,16.8548,16.8548,16.8548,16.8548,16.8548,16.8548,16.8548,16.8548,16.8548,16.8548,16.8548,16.8548,16.8548,16.8548,16.8548,16.8548,16.8548,16.8548,16.8548,16.8548,16.8548,16.8548,16.8548,16.8548,16.8548,16.8548,16.8548,16.8548,16.8548,16.8548,16.8548,16.8548,16.8548,16.8548,16.8548,16.8548,16.8548,16.8548,16.8548,16.8548,16.8548,16.8548,16.8548,16.8548,16.8548,16.8548,16.8548,16.8548,16.8548,16.8548,16.8548,16.8548,16.8548,16.8548,16.8548,16.8548,16.8548,16.8548,16.8548,16.8548,16.8548,16.8548,16.8548,16.8548,11.623,0.0,0.0,0.0,0.0,0.0,14.115,14.5078,14.8676,15.2827,15.1786,15.1007,15.3905,15.2395,15.1475,15.3917,15.3654,15.3188,15.3188,15.3188,15.3188,15.3188,15.3188,15.3479,15.4142,15.356,15.4549,15.7901,15.7457,15.825,16.0788,16.0963,16.0963,16.0963,16.0963,16.0963,16.0963,16.0963,16.1137,16.145,16.3274,16.4458,16.5252,16.7151,16.8198,16.8548,16.8548,16.8315,16.8024,16.8373,16.8548,16.8548,16.8548,16.8548,16.8548,16.8548,16.8548,16.8548,16.8548,16.8548,16.8548,16.8548,16.8548,16.8548,16.8548,16.8548,16.8548,16.8548,16.8548,16.8548,16.8548,16.8548,16.8548,16.8548,16.8548,16.8548,16.8548,16.8548,16.8548,16.8548,16.8548,16.8548,16.8548,16.8548,16.8548,16.8548,16.8548,16.8548,16.8548,16.8548,16.8548,16.8548,16.8548,16.8548,16.8548,16.8548,16.8548,16.8548,16.8548,16.8548,16.8548,16.8548,16.8548,16.8548,16.8548,16.8548,16.8548,16.8548,16.8548,16.8548,16.8548,16.8548,0.0,0.0,0.0,13.3317,13.4476,13.7181,15.108,15.22,15.2303,15.9421,15.677,15.4005,15.6672,15.2885,15.1052,15.6316,15.4945,15.3188,15.3188,15.3188,15.3188,15.3188,15.3188,15.4177,15.6701,15.4665,15.5282,16.0439,15.8482,15.825,16.0788,16.0963,16.0963,16.0963,16.0963,16.0963,16.0963,16.0963,16.1508,16.2618,16.2734,16.4109,16.6531,16.6589,16.7287,16.8548,16.8548,16.7791,16.6706,16.8024,16.8548,16.8548,16.8548,16.8548,16.8548,16.8548,16.8548,16.8548,16.8548,16.8548,16.8548,16.8548,16.8548,16.8548,16.8548,16.8548,16.8548,16.8548,16.8548,16.8548,16.8548,16.8548,16.8548,16.8548,16.8548,16.8548,16.8548,16.8548,16.8548,16.8548,16.8548,16.8548,16.8548,16.8548,16.8548,16.8548,16.8548,16.8548,16.8548,16.8548,16.8548,16.8548,16.8548,16.8548,16.8548,16.8548,16.8548,16.8548,16.8548,16.8548,16.8548,16.8548,16.8548,16.8548,16.8548,16.8548,16.8548,16.8548,16.8548,16.8548,16.8548,16.8548,11.9728,12.4666,13.0181,13.69,14.1665,14.6277,15.1981,15.4775,15.7055,16.0468,15.9078,15.7778,15.962,15.5615,15.3189,15.6659,15.4921,15.3188,15.3188,15.3188,15.3188,15.3188,15.3188,15.3851,15.556,15.4979,15.5538,15.8191,15.8366,15.8715,15.9588,16.0497,16.0963,16.0963,16.0963,16.0963,16.0963,16.0963,16.1137,16.1566,16.2306,16.3178,16.4051,16.4865,16.5542,16.6008,16.6822,16.6997,16.6648,16.7966,16.8548,16.8548,16.8548,16.8548,16.8548,16.8548,16.8548,16.8548,16.8548,16.8548,16.8548,16.8548,16.8548,16.8548,16.8548,16.8548,16.8548,16.8548,16.8548,16.8548,16.8548,16.8548,16.8548,16.8548,16.8548,16.8548,16.8548,16.8548,16.8548,16.8548,16.8548,16.8548,16.8548,16.8548,16.8548,16.8548,16.8548,16.8548,16.8548,16.8548,16.8548,16.8548,16.8548,16.8548,16.8548,16.8548,16.8548,16.8548,16.8548,16.8548,16.8548,16.8548,16.8548,16.8548,16.8548,16.8082,16.7268,16.7268,16.7675,16.8548,16.8548,16.8082,12.269,12.8272,13.3787,14.0571,14.643,15.1105,15.3552,15.6283,15.8821,16.0726,15.9734,15.9083,16.097,15.8529,15.7104,15.9758,15.7044,15.4635,15.4635,15.3793,15.3188,15.3188,15.3188,15.3851,15.5619,15.5386,15.6061,15.8308,15.8773,15.9181,15.9646,16.0497,16.0963,16.0963,16.0963,16.0963,16.0963,16.0963,16.0963,16.0963,16.1703,16.2306,16.2734,16.3586,16.4225,16.4632,16.5039,16.5156,16.531,16.6589,16.7442,16.7849,16.7849,16.814,16.8548,16.8548,16.8548,16.8548,16.8548,16.8548,16.8548,16.8548,16.8548,16.8548,16.8548,16.8548,16.8548,16.8548,16.8548,16.8548,16.8548,16.8548,16.8548,16.8548,16.8548,16.8548,16.8548,16.8548,16.8548,16.8548,16.8548,16.8548,16.8548,16.8548,16.8548,16.8548,16.8548,16.8548,16.8548,16.8548,16.8548,16.8548,16.9467,17.0152,17.0152,17.0152,17.0152,17.0152,16.9143,16.8548,16.8548,16.8548,16.8315,16.7849,16.7849,16.7442,16.6589,16.6124,16.6299,16.7113,16.7113,16.6648,12.5159,13.0847,13.628,14.4588,14.8749,15.1814,15.5858,15.6825,15.7662,16.0468,15.9111,15.8275,16.0955,16.1374,16.2195,16.4835,16.0801,15.7245,15.7245,15.4945,15.3188,15.3188,15.3188,15.4142,15.6701,15.5909,15.6759,16.0497,15.9704,15.9588,16.0788,16.0905,16.0963,16.0963,16.0963,16.0963,16.0963,16.0963,16.0963,16.0963,16.0963,16.1566,16.256,16.256,16.3295,16.4379,16.3199,16.2676,16.2792,16.4109,16.5368,16.6473,16.6473,16.7326,16.8431,16.8431,16.8489,16.8548,16.8548,16.8548,16.8548,16.8548,16.8548,16.8548,16.8548,16.8548,16.8548,16.8548,16.8548,16.8548,16.8548,16.8548,16.8548,16.8548,16.8548,16.8548,16.8548,16.8548,16.8548,16.8548,16.8548,16.8548,16.8548,16.8548,16.8548,16.8548,16.8548,16.8548,16.8548,16.8548,16.8566,16.872,17.1338,17.3042,17.3226,17.3226,17.3226,17.3226,17.0396,16.8759,16.8642,16.8547,16.7849,16.6589,16.6625,16.6757,16.6851,16.5684,16.5046,16.4954,16.5104,16.5104,12.9431,13.8896,14.5569,14.9947,15.3127,15.5252,15.529,15.6089,15.7404,15.918,15.9873,16.0712,16.2476,16.2011,16.1881,16.367,16.0189,15.7245,15.7245,15.4945,15.3188,15.3188,15.3188,15.3793,15.5444,15.6178,15.6992,15.7981,15.953,16.0206,15.953,16.0439,16.0963,16.0963,16.0963,16.0963,16.0963,16.0963,16.0963,16.0963,16.0963,16.1137,16.1391,16.1391,16.1566,16.1915,16.2481,16.2676,16.2792,16.4109,16.4807,16.5135,16.5135,16.595,16.7093,16.7093,16.7733,16.8548,16.8548,16.8548,16.8548,16.8548,16.8548,16.8548,16.8548,16.8548,16.8548,16.8548,16.8548,16.8548,16.8548,16.8548,16.8548,16.8548,16.8548,16.8548,16.8548,16.8548,16.8548,16.8548,16.8548,16.8548,16.8548,16.8548,16.8548,16.8548,16.8548,16.8548,16.8548,16.8548,16.9411,17.1616,17.2584,17.3923,17.6114,17.6328,17.6328,17.6328,17.3557,17.1402,17.0429,16.8268,16.688,16.6589,16.7712,16.8948,17.0227,17.0964,17.0638,16.9368,17.1613,17.1445,12.7692,13.9476,14.8981,15.1852,15.4737,15.6503,15.5097,15.632,15.8048,15.8794,15.9631,16.0855,16.2887,16.2662,16.2891,16.4921,16.2276,15.9772,15.9179,15.6734,15.4532,15.3328,15.3188,15.3676,15.4979,15.6294,15.7283,15.7901,15.9762,16.0614,15.9879,16.0555,16.0963,16.0963,16.0963,16.0963,16.0963,16.0963,16.0963,16.0963,16.0963,16.0963,16.0963,16.0963,16.0963,16.0963,16.1682,16.1936,16.1994,16.2692,16.3332,16.3818,16.3818,16.4574,16.5717,16.5717,16.6531,16.7675,16.7675,16.8024,16.8548,16.8548,16.8548,16.8548,16.8548,16.8548,16.8548,16.8548,16.8548,16.8548,16.8548,16.8548,16.8548,16.8548,16.8548,16.8548,16.8548,16.8548,16.8548,16.8548,16.8548,16.8548,16.8548,16.8548,16.8548,16.8548,16.9657,17.0472,17.0472,17.1653,17.3056,17.4772,17.6211,17.7699,17.937,17.9543,17.9543,17.9543,17.6674,17.4011,17.2001,17.0325,16.8881,16.7666,16.986,17.1787,17.3293,17.3546,17.3173,17.2216,17.388,17.3409,12.5245,13.7134,14.8595,15.2007,15.4866,15.654,15.529,15.6771,15.8536,15.8923,15.9309,16.0275,16.2593,16.3173,16.4139,16.6807,16.5111,16.2949,16.1512,15.8977,15.6227,15.3538,15.3188,15.3618,15.4746,15.6178,15.7515,15.8657,16.0111,16.0963,16.0963,16.0963,16.0963,16.0963,16.0963,16.0963,16.0963,16.0963,16.0963,16.0963,16.0963,16.0963,16.0963,16.0963,16.0963,16.0963,16.0963,16.0963,16.0963,16.0963,16.1566,16.2481,16.2618,16.3527,16.4632,16.4807,16.5717,16.6822,16.6822,16.7617,16.8489,16.8315,16.8257,16.8257,16.8257,16.8257,16.8315,16.8489,16.8548,16.8548,16.8548,16.8548,16.8548,16.8548,16.8548,16.8548,16.8548,16.8548,16.8548,16.8548,16.8548,16.8548,16.8548,16.8548,16.8643,16.9066,17.1317,17.3116,17.3557,17.5828,17.7637,17.8023,18.053,18.2281,18.2711,18.2745,18.2745,18.2745,17.9818,17.6835,17.4059,17.3549,17.2431,17.042,17.3163,17.5299,17.6569,17.5647,17.4886,17.4326,17.4734,17.4048,13.426,14.111,14.6455,15.2779,15.5639,15.6825,15.6567,15.5934,15.6127,15.8536,16.0919,16.2336,16.1627,16.2464,16.3789,16.5555,16.451,16.2949,16.1512,15.8977,15.6227,15.3538,15.3188,15.3304,15.3502,15.5654,15.7166,15.7341,15.9588,16.0963,16.0963,16.0963,16.0963,16.0963,16.0963,16.0963,16.0963,16.0963,16.0963,16.0963,16.0963,16.0963,16.0963,16.0963,16.0963,16.0963,16.0963,16.0963,16.0963,16.0963,16.1079,16.1333,16.2306,16.3527,16.4786,16.5833,16.7093,16.8198,16.8198,16.8315,16.8373,16.7268,16.688,16.688,16.688,16.688,16.7151,16.8198,16.8548,16.8548,16.8548,16.8548,16.8548,16.8548,16.8548,16.8548,16.8548,16.8548,16.8548,16.8548,16.8548,16.8548,16.8548,16.8548,16.9411,17.184,17.2695,17.3923,17.6364,17.7144,17.8442,18.104,18.1812,18.3143,18.5652,18.5845,18.5845,18.5845,18.301,18.0641,17.9047,17.6567,17.614,17.8029,17.8599,17.9646,18.1205,18.2164,18.0754,17.7206,17.9707,17.942,13.3207,13.9822,14.5554,15.1105,15.4737,15.6669,15.5934,15.6964,15.8445,15.9824,16.1241,16.1949,16.1305,16.2336,16.3495,16.4175,16.4432,16.3985,16.2679,16.0661,15.8351,15.564,15.4071,15.3188,15.3188,15.5538,15.705,15.705,15.9471,16.0963,16.0963,16.0963,16.0963,16.0963,16.0963,16.0963,16.0963,16.0963,16.0963,16.0963,16.0963,16.0963,16.0963,16.0963,16.0963,16.0963,16.0963,16.0963,16.0963,16.0963,16.0963,16.1021,16.1566,16.2576,16.3702,16.4342,16.5833,16.75,16.75,16.7966,16.8431,16.7791,16.7617,16.7617,16.7617,16.7617,16.7733,16.8373,16.8548,16.8548,16.8548,16.8548,16.8548,16.8548,16.8548,16.8548,16.8548,16.8548,16.8548,16.8548,16.8548,16.8548,16.8548,16.8548,16.9543,17.2584,17.571,17.8294,17.9715,18.1277,18.2781,18.4292,18.4455,18.5039,18.6485,18.6612,18.6612,18.6612,18.5233,18.3516,18.1336,18.1306,18.2065,18.3403,18.2703,18.2739,18.3457,18.3392,18.2284,18.025,18.1705,18.1162,13.1533,13.8188,14.491,14.9689,15.323,15.5574,15.5998,15.8445,16.0661,16.0661,16.0661,16.079,16.1112,16.2078,16.2915,16.3237,16.4525,16.4931,16.3681,16.2216,16.0346,15.758,15.4877,15.3433,15.4002,15.587,15.7301,15.7886,16.0393,16.1601,16.1,16.1528,16.1601,16.0963,16.0963,16.0963,16.0963,16.0963,16.0963,16.0963,16.0963,16.0963,16.0963,16.0963,16.0963,16.0963,16.0963,16.0963,16.0963,16.0963,16.0963,16.0963,16.1217,16.1878,16.2734,16.3315,16.4632,16.6182,16.6473,16.7229,16.8082,16.7791,16.7908,16.8082,16.8082,16.8082,16.814,16.8431,16.8548,16.8548,16.8548,16.8548,16.8548,16.8548,16.8548,16.8548,16.8548,16.8548,16.8548,16.8548,16.8548,16.872,16.9411,16.8951,16.9772,17.341,17.8608,18.2348,18.301,18.5136,18.6612,18.6612,18.6612,18.6612,18.6612,18.6612,18.6612,18.6612,18.6612,18.5555,18.3176,18.533,18.6612,18.6612,18.5195,18.4487,18.4487,18.3006,18.2169,18.1847,18.1847,18.1105,13.5741,13.9734,14.3895,15.0719,15.1749,15.2715,15.9116,15.9824,15.9207,15.9207,15.9207,15.9594,16.0919,16.1241,16.1756,16.3108,16.4525,16.4931,16.3681,16.2216,16.0346,15.758,15.4877,15.4175,15.6666,15.701,15.81,16.059,16.3313,16.3666,16.111,16.3439,16.369,16.1036,16.0963,16.0963,16.0963,16.0963,16.0963,16.0963,16.0963,16.0963,16.0963,16.0963,16.0963,16.0963,16.0963,16.0963,16.0963,16.0963,16.0963,16.1079,16.2111,16.256,16.2967,16.5368,16.5659,16.5019,16.6182,16.6648,16.6531,16.5368,16.5775,16.6764,16.6764,16.6764,16.7035,16.8198,16.8548,16.8548,16.8548,16.8548,16.8548,16.8548,16.8548,16.8548,16.8548,16.8548,16.8548,16.8548,16.8548,16.9449,17.2138,17.0379,17.0472,17.6186,17.9921,18.311,18.5845,18.6453,18.6612,18.6612,18.6612,18.6612,18.6612,18.6612,18.6612,18.6612,18.6612,18.6485,18.6261,18.6485,18.6612,18.6612,18.5195,18.4487,18.4487,18.3006,18.1685,18.0396,18.0396,17.9624,12.8293,13.4067,14.0184,14.2993,14.7758,15.2715,15.6449,15.7506,15.8241,15.9953,16.0983,16.1499,16.1177,16.1821,16.2336,16.2014,16.3237,16.4252,16.4599,16.3508,16.2558,16.2206,15.8284,15.6734,15.9468,15.9639,16.0772,16.3508,16.6235,16.6541,16.3666,16.4627,16.3881,16.1073,16.0963,16.0963,16.0963,16.0963,16.0963,16.0963,16.0963,16.0963,16.0963,16.0963,16.0963,16.0963,16.0963,16.0963,16.0963,16.0963,16.0963,16.0963,16.145,16.2111,16.2792,16.3876,16.44,16.469,16.5252,16.5426,16.531,16.4807,16.5542,16.6589,16.6589,16.7113,16.7849,16.8373,16.8548,16.8548,16.8548,16.8548,16.8548,16.8548,16.8548,16.8548,16.8548,16.8548,16.8548,16.8548,16.8548,16.9467,17.251,17.2027,17.33,17.937,18.1374,18.3209,18.6261,18.6612,18.6612,18.6612,18.6612,18.6612,18.6612,18.6612,18.6612,18.6612,18.6612,18.6226,18.5388,18.6161,18.6226,18.5324,18.3907,18.2748,18.1847,18.043,17.943,17.8915,17.8915,17.8593,12.3033,12.9066,13.5612,13.6836,14.338,15.0075,15.2303,15.3321,15.4892,15.8987,16.0983,16.1563,16.0146,16.137,16.2207,16.0726,16.2078,16.3817,16.5233,16.4324,16.3952,16.5243,16.1282,15.9566,16.233,16.2558,16.3709,16.644,16.9237,16.9518,16.6645,16.7336,16.608,16.2344,16.2198,16.182,16.0963,16.0963,16.0963,16.0963,16.0963,16.1382,16.2198,16.1308,16.1418,16.2162,16.1308,16.0963,16.0963,16.0963,16.0963,16.0963,16.0963,16.145,16.219,16.2597,16.3062,16.3623,16.3934,16.4051,16.4051,16.4051,16.4923,16.6066,16.6473,16.7268,16.8024,16.8431,16.8548,16.8548,16.8548,16.8548,16.8548,16.8548,16.8548,16.8548,16.8548,16.8548,16.8548,16.8548,16.9258,17.0812,17.385,17.43,17.6425,18.2578,18.2711,18.3209,18.6261,18.6612,18.6612,18.6612,18.6612,18.6612,18.6612,18.6612,18.6419,18.6032,18.6354,18.5775,18.3907,18.4809,18.4873,18.3843,18.2426,18.1234,18.0203,17.8786,17.8078,17.8078,17.8078,17.8078,12.3033,12.6147,13.0374,13.4646,13.8961,14.3251,14.7436,14.7421,14.8452,15.5472,15.8048,15.8628,15.7211,15.9245,16.0661,15.9272,16.1434,16.3817,16.5233,16.4324,16.3952,16.5243,16.3022,16.2363,16.5127,16.5409,16.6476,16.9274,17.2104,17.2518,16.9652,17.213,17.1049,16.5344,16.5168,16.3809,16.1,16.0963,16.0963,16.0963,16.0963,16.2452,16.5063,16.2235,16.2525,16.4992,16.2162,16.0963,16.0963,16.0963,16.0963,16.0963,16.0963,16.0963,16.1137,16.2248,16.1994,16.1137,16.2306,16.2734,16.2734,16.2734,16.3586,16.4865,16.6182,16.6589,16.688,16.814,16.8548,16.8548,16.8548,16.8548,16.8548,16.8548,16.8548,16.8548,16.8548,16.8548,16.8548,16.8548,17.0925,17.3923,17.6896,17.7426,17.9543,18.5652,18.403,18.3209,18.6261,18.6612,18.6612,18.6612,18.6612,18.6612,18.6612,18.6612,18.6032,18.4616,18.5839,18.5324,18.2491,18.2362,18.2362,18.2362,18.0976,18.0203,18.0203,17.8786,17.8078,17.8078,17.8078,17.8078,11.8375,12.3807,12.9837,13.2177,13.6748,14.1472,14.4781,14.7396,15.0358,15.4518,15.654,15.7726,15.8214,15.9889,16.0983,16.0533,16.1241,16.2336,16.3752,16.4426,16.5312,16.6719,16.5229,16.5249,16.8083,16.7469,16.8456,17.217,17.4141,17.4403,17.2553,17.3261,17.2033,16.8267,16.8165,16.6784,16.3881,16.3845,16.2864,16.1,16.4957,16.7275,16.8131,16.7206,16.6228,16.5274,16.6333,16.567,16.3845,16.3845,16.3845,16.3726,16.1747,16.0963,16.0963,16.1333,16.1275,16.1021,16.1391,16.1508,16.1508,16.1508,16.2343,16.3411,16.3818,16.4516,16.5368,16.5775,16.6531,16.7209,16.7209,16.7209,16.7442,16.8315,16.8548,16.8548,16.8548,16.8548,16.8548,16.8548,17.0962,17.3996,17.6932,17.9267,18.2047,18.6005,18.5813,18.5555,18.6485,18.6612,18.6612,18.6612,18.6612,18.6226,18.526,18.5131,18.4551,18.307,18.3457,18.2813,18.0976,18.1782,18.1847,18.0912,18.0461,17.9688,17.8722,17.8271,17.8078,17.8078,17.8078,17.8078,11.8246,12.3614,12.9065,13.1598,13.4904,13.8574,14.2527,14.4563,14.6921,15.1402,15.2999,15.4415,15.6927,15.8987,16.0339,16.0339,16.079,16.1627,16.3108,16.4497,16.5942,16.7415,16.7247,16.7723,16.9496,16.9296,17.0176,17.2749,17.4798,17.549,17.4625,17.507,17.4124,17.1214,17.1115,16.9753,16.6887,16.6853,16.5915,16.4213,16.779,17.0087,17.1082,16.9959,16.9148,16.8471,16.9215,16.8505,16.6853,16.6853,16.6853,16.668,16.4886,16.3523,16.2597,16.2597,16.1893,16.0963,16.0963,16.0963,16.0963,16.0963,16.145,16.2111,16.2597,16.3295,16.3993,16.4516,16.5252,16.5717,16.5252,16.5833,16.6802,16.7617,16.8198,16.8548,16.8548,16.8548,16.8548,16.8548,17.1878,17.5278,17.7144,18.1006,18.4486,18.6357,18.6612,18.6612,18.6612,18.6612,18.6612,18.6612,18.6612,18.6032,18.4616,18.3972,18.307,18.162,18.1041,18.0332,17.943,18.0268,18.0268,17.943,17.9366,17.898,17.8078,17.8078,17.8078,17.8078,17.8078,17.8078,12.0972,12.473,12.8121,13.2222,13.351,13.5313,14.0804,13.9991,13.9862,14.6495,14.8015,14.9367,15.3397,15.654,15.8601,15.895,16.0211,16.1627,16.3108,16.4561,16.607,16.7415,16.8832,16.9734,16.9734,17.0771,17.1544,17.1643,17.4219,17.5828,17.5957,17.7275,17.6819,17.4187,17.4092,17.2745,16.9825,16.9792,16.9892,17.0154,17.0154,17.1509,17.4028,17.1345,17.1477,17.3677,17.1181,17.002,16.9792,16.9792,16.9792,16.982,16.9557,16.7858,16.552,16.552,16.3702,16.1235,16.1235,16.1235,16.1198,16.1036,16.111,16.1395,16.2322,16.2597,16.283,16.4051,16.4529,16.4447,16.3339,16.4984,16.6906,16.6737,16.767,16.8544,16.8544,16.8661,16.8737,16.8967,17.3706,17.7655,17.7655,18.2462,18.6354,18.6419,18.6354,18.6354,18.6387,18.6483,18.6419,18.6354,18.6419,18.5904,18.4423,18.3006,18.162,18.0139,17.8786,17.8078,17.8078,17.8078,17.8078,17.8078,17.8078,17.8078,17.8078,17.8078,17.8078,17.8078,17.8078,17.8078,11.5863,12.1703,12.7606,12.973,13.3529,13.7737,14.1255,14.0764,14.0249,14.2993,14.5271,14.7099,14.813,15.1518,15.5162,15.8472,16.0211,16.1627,16.3108,16.5455,16.7222,16.7544,16.8832,16.9734,16.9734,16.9963,17.0607,17.1579,17.3253,17.4734,17.5893,17.7275,17.774,17.7065,17.7034,17.5701,17.2809,17.2777,17.3869,17.6043,17.6043,17.6384,17.7003,17.6354,17.5199,17.3868,17.5419,17.4821,17.2777,17.2777,17.2777,17.2583,17.0387,16.9114,16.8505,16.8505,16.6715,16.4237,16.4237,16.4237,16.3845,16.1674,16.2452,16.3833,16.1952,16.1333,16.1391,16.174,16.3407,16.5236,16.5949,16.8202,16.9961,16.8657,16.8647,16.8825,16.8825,16.973,17.112,17.3308,17.6795,17.9442,17.9442,18.1584,18.3714,18.4809,18.4036,18.3714,18.4809,18.5002,18.4551,18.3457,18.4294,18.4358,18.2942,18.1556,18.0074,17.8658,17.8271,17.8078,17.8078,17.8078,17.8078,17.8078,17.8078,17.8078,17.8078,17.8078,17.8078,17.8078,17.8078,17.8078,11.6701,12.2669,12.7842,12.6726,13.0203,13.4495,13.6684,13.6555,13.6619,13.8703,14.0401,14.2293,14.487,14.7228,15.0552,15.6127,15.8794,16.0661,16.2078,16.4203,16.6099,16.7415,16.8253,16.919,17.0478,17.0027,16.9963,17.0707,17.2639,17.409,17.4863,17.6889,17.8078,17.8078,17.8078,17.7343,17.5763,17.5732,17.6541,17.8078,17.8078,17.8078,17.8078,17.8078,17.7252,17.5825,17.7405,17.7221,17.5732,17.5732,17.5732,17.5607,17.4029,17.3453,17.3293,17.1935,17.0486,16.8946,16.7619,16.7198,16.6749,16.3845,16.3952,16.4698,16.1857,16.0963,16.0963,16.0963,16.3008,16.57,16.7699,16.8852,16.9588,16.9975,17.051,17.0995,17.0995,17.1575,17.2616,17.4132,17.69,17.9026,17.9026,18.0856,18.262,18.3328,18.2813,18.262,18.3392,18.3457,18.3199,18.2426,18.3006,18.2877,18.1491,18.0654,17.9624,17.8142,17.8078,17.8078,17.8078,17.8078,17.8078,17.8078,17.8078,17.8078,17.8078,17.8078,17.8078,17.8078,17.8078,17.8078,11.8911,12.4172,12.7928,12.5073,12.6984,13.003,13.1704,13.1704,13.209,13.4518,13.5162,13.6924,14.1971,14.3453,14.6005,15.2393,15.5998,15.873,16.0855,16.2593,16.4589,16.7222,16.7544,16.8546,17.1093,17.0349,16.9734,16.9734,17.2252,17.3768,17.3768,17.6502,17.8078,17.8078,17.8078,17.8078,17.8078,17.8078,17.8078,17.8078,17.8078,17.8078,17.8078,17.8078,17.8078,17.8078,17.8078,17.8078,17.8078,17.8078,17.8078,17.8078,17.8078,17.8078,17.774,17.5356,17.4441,17.406,17.1148,17.0187,16.9719,16.6818,16.6159,16.6045,16.3152,16.2271,16.2271,16.2271,16.4344,16.7095,16.9552,16.9497,16.9216,17.0824,17.233,17.3301,17.289,17.3314,17.3881,17.4323,17.6496,17.8231,17.8231,18.0121,18.1718,18.1976,18.1782,18.1718,18.2007,18.1976,18.1942,18.1654,18.1847,18.1427,18.001,17.9881,17.9366,17.8142,17.8078,17.8078,17.8078,17.8078,17.8078,17.8078,17.8078,17.8078,17.8078,17.8078,17.8078,17.8078,17.8078,17.8078,11.5264,12.0565,12.649,12.9409,13.061,13.1768,13.4453,13.3143,13.1511,13.1961,13.3037,13.4541,13.6602,13.9927,14.3597,14.7099,15.1002,15.5355,16.0404,16.3402,16.5684,16.7351,16.7544,16.8188,16.9834,16.977,16.9734,16.9734,17.2252,17.3768,17.3768,17.6502,17.8078,17.8078,17.8078,17.8078,17.8078,17.8078,17.8078,17.8078,17.8078,17.8078,17.8078,17.8078,17.8078,17.8078,17.8078,17.8078,17.8078,17.8078,17.8078,17.8078,17.8078,17.8078,17.8017,17.7557,17.7405,17.6973,17.4155,17.3132,17.268,16.9786,17.0486,17.1902,16.9081,16.8199,16.8199,16.8199,17.0287,17.2583,17.3003,17.4726,17.5295,17.0862,17.1809,17.3078,17.0636,17.2964,17.6261,17.8687,17.9533,17.9813,17.9813,17.9219,17.9108,18.0332,17.9495,17.9173,18.0396,18.0525,18.0074,17.8851,17.9817,17.9946,17.8529,17.84,17.8271,17.8078,17.8078,17.8078,17.8078,17.8078,17.8078,17.8078,17.8078,17.8078,17.8078,17.8078,17.8078,17.8078,17.8078,17.8078,11.7345,12.1467,12.5481,12.6597,12.7434,12.8594,13.059,13.0052,12.9322,13.0095,13.0761,13.2393,13.6128,13.7802,14.0828,14.7525,15.0204,15.3166,15.815,16.1305,16.3945,16.6163,16.6392,16.7258,16.9477,16.9734,16.9734,16.9734,17.1479,17.2931,17.3768,17.5764,17.7275,17.8014,17.8078,17.8078,17.8078,17.8078,17.8078,17.8078,17.8078,17.8078,17.8078,17.8078,17.8078,17.8078,17.8078,17.8078,17.8078,17.8078,17.8078,17.8078,17.8078,17.8078,17.8078,17.8078,17.8078,17.7831,17.6572,17.6074,17.5638,17.2777,17.2712,17.3229,17.0387,17.1673,17.4124,17.4124,17.3933,17.4155,17.5701,17.5919,17.5482,17.4346,17.5136,17.5732,17.4378,17.5675,17.7468,17.88,17.9044,17.9044,17.9044,17.8464,17.8271,17.8915,17.8464,17.8271,17.898,17.9044,17.8786,17.8142,17.8658,17.8786,17.8142,17.8078,17.8078,17.8078,17.8078,17.8078,17.8078,17.8078,17.8078,17.8078,17.8078,17.8078,17.8078,17.8078,17.8078,17.8078,17.8078,17.8078,12.1917,0.0,12.6168,12.6447,12.707,12.7907,0.0,12.8894,12.8765,12.9193,12.9258,13.0954,13.6321,13.6408,13.8574,14.7525,14.9006,15.0487,15.4737,15.7828,16.1085,16.4948,16.5398,16.6521,16.9448,16.9734,16.9734,16.9734,17.09,17.2094,17.3189,17.4991,17.6408,17.7468,17.7532,17.7692,17.8078,17.8078,17.8078,17.8078,17.8078,17.8078,17.8078,17.8078,17.8078,17.8078,17.8078,17.8078,17.8078,17.8078,17.8078,17.8078,17.8078,17.8078,17.8078,17.8078,17.8078,17.8078,17.8078,17.8078,17.7679,17.5513,17.4758,17.4378,17.2163,17.4537,17.8078,17.8078,17.6479,17.5325,17.7496,17.6448,17.5136,17.6696,17.7557,17.7862,17.7221,17.7588,17.8078,17.8078,17.8078,17.8078,17.8078,17.8078,17.8078,17.8078,17.8078,17.8078,17.8078,17.8078,17.8078,17.8078,17.8078,17.8078,17.8078,17.8078,17.8078,17.8078,17.8078,17.8078,17.8078,17.8078,17.8078,17.8078,17.8078,17.8078,17.8078,17.8078,17.8078,17.8078,17.8078,17.8078,0.0,12.9837,13.0246,13.5484,13.5806,13.4991,13.5056,13.4025,0.0,12.9795,12.9258,13.0632,13.5033,13.5764,13.7696,14.3711,14.4677,14.6133,15.0333,15.3333,15.771,16.4626,16.5398,16.6521,16.9448,16.9734,16.9734,16.9734,17.09,17.1643,17.1772,17.4412,17.5957,17.6086,17.6086,17.6695,17.8014,17.8078,17.8078,17.8078,17.8078,17.8078,17.8078,17.8078,17.8078,17.8078,17.8078,17.8078,17.8078,17.8078,17.8078,17.8078,17.8078,17.8078,17.8078,17.8078,17.8078,17.8078,17.8078,17.8078,17.7983,17.7801,17.774,17.771,17.7527,17.771,17.8078,17.8078,17.7862,17.7771,17.8017,17.7862,17.7095,17.4663,17.6105,17.7343,17.4663,17.6137,17.8078,17.8078,17.8078,17.8078,17.8078,17.8078,17.8078,17.8078,17.8078,17.8078,17.8078,17.8078,17.8078,17.8078,17.8078,17.8078,17.8078,17.8078,17.8078,17.8078,17.8078,17.8078,17.8078,17.8078,17.8078,17.8078,17.8078,17.8078,17.8078,17.8078,17.8078,17.8078,17.8078,17.8078,13.003,13.1662,13.2457,13.4582,13.4067,13.3014,13.3014,13.1919,13.031,12.8314,12.9387,13.164,13.5033,13.6408,13.892,14.4612,14.5579,14.7035,15.117,15.426,15.7377,16.0983,16.3044,16.4847,16.6843,16.7838,16.8768,16.967,17.0156,17.0771,17.1608,17.2674,17.3253,17.3253,17.4154,17.4863,17.5407,17.5407,17.5858,17.676,17.676,17.7211,17.8078,17.8078,17.8078,17.8078,17.8078,17.8078,0.0,17.8078,17.8078,17.8078,17.8078,17.8078,17.8078,17.8078,17.8078,17.8078,17.8078,17.8078,17.8078,17.8078,17.8078,17.8078,17.8078,17.8078,17.8078,17.8078,17.8078,17.8078,17.8078,17.8078,17.7771,17.6696,17.7282,17.774,17.6665,17.7313,17.8078,17.8078,17.8078,17.8078,17.8078,17.8078,17.8078,17.8078,17.8078,17.8078,17.8078,17.8078,17.8078,17.8078,17.8078,17.8078,17.8078,17.8078,17.8078,17.8078,17.8078,17.8078,17.8078,17.8078,17.8078,17.8078,17.8078,17.8078,17.8078,17.8078,17.8078,17.8078,17.8078,17.8078,13.1984,13.3809,13.4927,13.4927,13.4495,13.3764,13.237,13.2048,13.1083,12.7799,12.9387,13.2154,13.4518,13.6128,13.8832,14.4137,14.5361,14.7164,15.1363,15.4389,15.7055,15.9374,16.1821,16.3881,16.527,16.6743,16.7995,16.8961,16.9477,17.0092,17.0964,17.1386,17.1643,17.1643,17.2609,17.3317,17.3768,17.3768,17.4283,17.5249,17.5249,17.5957,17.7339,17.7339,17.7627,17.8078,17.8078,17.8078,17.8078,17.8078,17.8078,17.8078,17.8078,17.8078,17.8078,17.8078,17.8078,17.8078,17.8078,17.8078,17.8078,17.8078,17.8078,17.8078,17.8078,17.8078,17.8078,17.8078,17.8078,17.8078,17.8078,17.8078,17.8078,17.8078,17.8078,17.8078,17.8078,17.8078,17.8078,17.8078,17.8078,17.8078,17.8078,17.8078,17.8078,17.8078,17.8078,17.8078,17.8078,17.8078,17.8078,17.8078,17.8078,17.8078,17.8078,17.8078,17.8078,17.8078,17.8078,17.8078,17.8078,17.8078,17.782,17.7404,17.7339,17.7146,17.6695,17.6695,17.6695,17.6695,17.6695,17.6695,13.4904,13.6707,13.7802,13.7802,13.8896,13.8832,13.4541,13.5764,13.5806,12.8636,12.9387,13.1855,13.3317,13.4734,13.7093,14.1384,14.33,14.5683,14.9882,15.2946,15.6294,16.0597,16.24,16.3789,16.5205,16.6678,16.7544,16.7544,16.8897,16.967,16.9734,17.09,17.1579,17.1579,17.1579,17.2287,17.3704,17.3768,17.3768,17.3768,17.3768,17.4541,17.5893,17.5893,17.6695,17.8014,17.8014,17.8014,17.8014,17.8014,17.8014,17.8078,17.8078,17.8078,17.8078,17.8078,17.8078,17.8078,17.8078,17.8078,17.8078,17.8078,17.8078,17.8078,17.8014,17.8014,17.8014,17.8014,17.8014,17.8014,17.8014,17.8014,17.8014,17.8014,17.8014,17.8078,17.8078,17.8078,17.8078,17.8078,17.8078,17.8078,17.8078,17.8078,17.8078,17.8078,17.8078,17.8078,17.8078,17.8078,17.8078,17.8078,17.8078,17.8078,17.8078,17.8078,17.8078,17.8014,17.8014,17.8014,17.8014,17.8014,17.7339,17.5957,17.5893,17.5184,17.3768,17.3768,17.3768,17.3768,17.3768,17.3768,13.5185,13.6022,13.6578,13.7544,13.8124,13.7609,13.4283,13.4991,13.484,12.9708,13.0095,13.2154,13.4582,13.6192,13.8253,14.1512,14.4949,14.7525,14.8788,15.3192,15.6733,15.7957,16.0275,16.1949,16.24,16.3688,16.539,16.7415,16.7931,16.8639,16.967,16.9126,16.9255,17.0221,17.0285,17.0478,17.0929,17.0929,17.1351,17.2287,17.2287,17.2995,17.4412,17.4412,17.4605,17.5021,17.5021,17.5665,17.6536,17.6536,17.7146,17.8078,17.8078,17.8078,17.8078,17.8078,17.8078,17.8078,17.8078,17.8078,17.8078,17.8078,17.8078,17.7692,17.5665,17.5021,17.5021,17.5021,17.5021,17.5021,17.5021,17.5794,17.6536,17.6536,17.7339,17.8078,17.8078,17.8078,17.8078,17.8078,17.8078,17.8078,17.8078,17.8078,17.8078,17.8078,17.8078,17.8078,17.8078,17.8078,17.8078,17.8078,17.8078,17.8078,17.8078,17.8078,17.7627,17.6601,17.6536,17.6086,17.5056,17.5021,17.4863,17.4412,17.4412,17.4219,17.3768,17.3768,17.3768,17.3768,17.3768,17.3768,13.5442,13.6063,13.6707,13.7609,13.7802,13.7029,13.4219,13.512,13.529,13.0996,13.0803,13.209,13.4389,13.6022,13.8253,14.2309,14.643,14.956,15.0719,15.4802,15.7919,15.8472,16.0082,16.1627,16.2722,16.2593,16.3624,16.6485,16.6678,16.7065,16.7966,16.7194,16.7387,16.8832,16.8832,16.9155,16.9734,16.9734,17.0092,17.0836,17.0836,17.1608,17.2931,17.2931,17.3253,17.3768,17.3768,17.4283,17.5056,17.5056,17.5571,17.6373,17.6953,17.6824,17.6438,17.6953,17.6824,17.6438,17.7017,17.6824,17.6438,17.7017,17.6824,17.6051,17.4283,17.3768,17.3768,17.3768,17.3768,17.3768,17.3768,17.4412,17.5056,17.5056,17.615,17.7211,17.7211,17.7661,17.8078,17.8078,17.8078,17.8078,17.8078,17.8078,17.8078,17.8078,17.8078,17.8078,17.8078,17.8078,17.8078,17.8078,17.8078,17.782,17.7275,17.7211,17.6631,17.5184,17.5056,17.4669,17.3832,17.3768,17.3511,17.2931,17.2931,17.2674,17.2123,17.2123,17.2123,17.2123,17.2123,17.2123,13.5507,13.6514,13.7609,13.7609,13.7737,13.7029,13.4025,13.5677,13.6578,13.2283,13.1511,13.1984,13.3317,13.4927,13.7761,14.3002,14.7783,15.1749,15.4169,15.712,15.9502,16.079,16.0919,16.2014,16.4755,16.2658,16.2271,16.5012,16.5205,16.5141,16.5012,16.5141,16.5877,16.7351,16.7351,16.7995,16.9255,16.9477,16.9512,16.9512,16.967,17.0349,17.145,17.145,17.2158,17.3382,17.3382,17.3446,17.3575,17.3575,17.3639,17.3897,17.5249,17.4927,17.3961,17.5249,17.4927,17.3961,17.5313,17.4863,17.4026,17.5313,17.4669,17.3382,17.3382,17.3382,17.3382,17.3382,17.3382,17.3382,17.3382,17.3382,17.3446,17.3575,17.4669,17.5734,17.5734,17.676,17.7692,17.782,17.7885,17.7885,17.8014,17.8078,17.8078,17.8078,17.8078,17.8078,17.8078,17.8078,17.7949,17.7692,17.7692,17.7146,17.5828,17.5734,17.509,17.3704,17.3575,17.3511,17.3382,17.3382,17.2802,17.1479,17.145,17.09,16.9734,16.9734,16.9734,16.9734,16.9734,16.9734,13.4283,13.5056,13.6151,13.6151,13.6965,13.6771,13.2756,13.4945,13.6578,13.2283,13.2306,13.3165,13.351,13.6578,13.9476,14.0699,14.8144,15.3655,15.3075,15.6449,15.9116,15.9438,15.9438,16.0146,16.1885,16.1499,16.1885,16.3624,16.3752,16.3237,16.2142,16.3108,16.4396,16.5813,16.5877,16.6006,16.6328,16.7451,16.7995,16.7995,16.9155,16.9863,17.0092,17.0092,17.0285,17.0543,17.0543,17.1158,17.2094,17.2094,17.2738,17.3832,17.409,17.4026,17.3832,17.4154,17.4026,17.3832,17.4154,17.4026,17.3832,17.4154,17.2574,17.0543,17.0543,17.0543,17.0543,17.0543,17.0543,17.0543,17.0543,17.0543,17.0865,17.1866,17.3189,17.4219,17.4219,17.4476,17.4991,17.615,17.6408,17.676,17.7885,17.8078,17.8078,17.8078,17.8078,17.8078,17.8078,17.8078,17.7241,17.4957,17.4669,17.4541,17.4283,17.4219,17.3639,17.2158,17.2094,17.1673,17.0607,17.0543,17.0414,17.0092,17.0092,16.9963,16.9734,16.9734,16.9734,16.9734,16.9734,16.9734,13.3768,13.409,13.4991,13.6344,13.6771,13.6192,13.398,13.5226,13.6192,13.3915,13.3487,13.3768,13.4412,13.6965,13.9862,14.2591,14.8466,15.3166,15.4453,15.654,15.7984,15.7984,15.8563,15.9567,16.0983,16.1112,16.1756,16.3173,16.2658,16.2529,16.3173,16.2593,16.2915,16.4368,16.4396,16.469,16.5398,16.6135,16.655,16.655,16.7966,16.8704,16.8704,16.9412,16.9734,16.9734,16.9734,17.0092,17.0707,17.0707,17.1158,17.1866,17.248,17.2381,17.1866,17.248,17.2381,17.193,17.2545,17.2352,17.1801,17.1801,17.0865,16.9734,16.9734,16.9734,16.9734,16.9734,16.9734,16.9734,16.9734,16.9734,16.9834,17.0514,17.1286,17.1995,17.2609,17.3317,17.4026,17.4734,17.4863,17.512,17.5858,17.6567,17.6824,17.6116,17.6567,17.676,17.6116,17.5987,17.5407,17.3961,17.3768,17.3511,17.2802,17.2738,17.2188,17.0771,17.0707,17.0414,16.9705,16.99,17.0044,17.0044,17.0359,17.0502,17.0502,17.0502,17.0502,17.0502,17.0502,17.0502,13.3253,13.3381,13.409,13.645,13.6385,13.57,13.57,13.57,13.57,13.57,13.4927,13.4476,13.5185,13.731,14.0401,14.491,14.8942,15.2741,15.6025,15.6953,15.7211,15.7211,15.7828,15.8923,16.0597,16.079,16.137,16.2786,16.1563,16.1821,16.4203,16.2271,16.1692,16.2915,16.2915,16.3495,16.4626,16.4948,16.5012,16.5105,16.6485,16.7194,16.7194,16.8417,16.8933,16.8933,16.8933,16.8933,16.8933,16.8933,16.8933,16.9061,17.0127,16.9934,16.9061,17.0192,16.987,16.9126,17.0449,17.0221,16.9283,16.9061,16.8933,16.8933,16.8933,16.9155,16.9348,16.9348,16.9512,16.9734,16.9734,16.9734,16.9734,16.9734,16.9734,16.9963,17.1093,17.2252,17.3124,17.3382,17.3382,17.3511,17.3768,17.4798,17.5184,17.3961,17.4798,17.512,17.3961,17.3382,17.306,17.306,17.306,17.2609,17.1415,17.1351,17.0771,16.9383,16.9348,16.9248,16.9105,16.9469,16.9818,16.9932,17.044,17.072,17.072,17.072,17.072,17.072,17.072,17.085,13.2048,13.2586,13.3639,13.4025,13.4927,13.57,13.57,13.57,13.57,13.57,13.6537,13.6537,13.4219,13.9073,14.3235,14.276,15.0165,15.5768,15.5097,15.7184,15.873,15.873,15.6707,15.632,15.8987,15.9336,15.9889,16.1305,16.0082,15.9438,15.9824,16.0661,16.1241,16.1434,16.1434,16.1499,16.1692,16.298,16.3559,16.3531,16.504,16.5749,16.5749,16.5942,16.6006,16.6006,16.6006,16.6006,16.6006,16.6006,16.6006,16.6006,16.6171,16.6107,16.6006,16.6171,16.6107,16.6199,16.758,16.7995,16.7644,16.6392,16.6006,16.6006,16.6006,16.6872,16.7866,16.7866,16.8768,16.9734,16.9734,16.9734,16.9734,16.9734,16.9734,16.9705,16.9899,17.0092,17.0607,17.1737,17.1901,17.2287,17.3575,17.3961,17.4026,17.3832,17.3961,17.4026,17.3832,17.1673,17.0221,17.0221,17.0221,17.0156,16.9963,16.9963,16.9319,16.7931,16.7866,16.7486,16.6701,16.672,16.6998,16.7561,16.7671,16.7699,16.7699,16.7699,16.7699,16.7699,16.7699,16.8377,13.2328,13.3037,13.351,13.351,13.4025,13.4476,13.4476,13.4476,13.4927,13.6537,13.7351,13.7673,13.7222,13.9669,14.214,14.3171,14.6906,15.0384,15.2071,15.3423,15.4453,15.529,15.5703,15.6127,15.6578,15.8086,15.8923,15.873,15.8923,15.9336,16.0146,16.0017,16.0661,16.2271,16.1563,16.1112,16.1112,16.1756,16.2078,16.2078,16.3559,16.4175,16.4239,16.5012,16.5398,16.5398,16.5398,16.5398,16.5398,16.5398,16.5398,16.5398,16.5398,16.5398,16.5398,16.5398,16.5398,16.5527,16.6135,16.5841,16.5197,16.5362,16.5398,16.5398,16.5398,16.5877,16.6356,16.6356,16.6807,16.7516,16.8317,16.851,16.8704,16.9512,16.9734,16.9734,16.9734,16.9734,16.9834,17.0478,17.0514,17.0736,17.1351,17.2123,17.2352,17.1608,17.2123,17.2317,17.1608,17.0414,16.9734,16.9734,16.8961,16.851,16.851,16.7773,16.7387,16.7544,16.7544,16.7865,16.8532,16.8962,16.9437,16.9954,17.0376,17.0568,17.0568,16.9755,16.9362,16.9362,16.8549,16.8484,13.1923,13.2457,13.2608,13.3381,13.3832,13.4154,13.4541,13.4347,13.4798,13.7287,13.7802,13.8059,13.8703,13.9476,14.0635,14.2809,14.4355,14.6262,14.9006,15.0333,15.1234,15.2007,15.3965,15.5124,15.4749,15.6964,15.7726,15.5896,15.712,15.8536,15.9953,15.9079,15.9631,16.2142,16.1177,16.079,16.1112,16.1112,16.1112,16.1177,16.2207,16.2722,16.2786,16.3881,16.4332,16.4332,16.4332,16.4332,16.4332,16.4332,16.4332,16.4332,16.4332,16.4332,16.4332,16.4332,16.4332,16.4332,16.4332,16.3624,16.2915,16.3982,16.4589,16.4883,16.4883,16.5427,16.5877,16.5527,16.5684,16.6135,16.6872,16.7,16.7258,16.8353,16.8611,16.8675,16.909,16.9155,16.9283,16.9577,16.9734,16.9734,16.9734,17.0478,17.0836,16.9863,17.0543,17.0514,16.8804,16.8611,16.8611,16.8611,16.7995,16.7544,16.7544,16.705,16.7006,16.7679,16.7914,16.8383,16.9241,16.9391,16.9524,16.9705,16.9837,17.0078,17.0407,16.9355,16.9196,16.992,16.8446,16.8381,12.9583,12.9451,13.0117,13.2866,13.4541,13.5958,13.7287,13.6537,13.6022,13.748,13.7802,13.7415,13.6128,13.8124,13.9991,14.0184,14.4627,14.7783,14.6738,14.9972,15.1981,15.0719,15.0719,15.1814,15.4491,15.6089,15.5832,15.3037,15.4105,15.5548,15.7018,15.7018,15.7662,15.918,15.918,15.976,16.1112,16.1112,16.1112,16.1112,16.1241,16.1241,16.1241,16.1305,16.137,16.137,16.137,16.137,16.137,16.137,16.137,16.137,16.137,16.137,16.137,16.137,16.137,16.137,16.137,16.1305,16.1241,16.1305,16.2271,16.343,16.343,16.5261,16.7129,16.5813,16.6421,16.7129,16.5877,16.5555,16.5527,16.5591,16.5656,16.6006,16.7415,16.7673,16.8059,16.9412,16.9734,16.9734,16.9734,16.9799,16.977,16.9734,16.9799,16.8804,16.6006,16.5656,16.5656,16.5656,16.6807,16.7544,16.7544,16.9161,16.9668,16.8402,16.8899,16.8244,16.6164,16.4752,16.364,16.2832,16.1543,16.1503,16.2909,16.2818,16.4199,16.6987,16.5422,16.6934,12.81,12.855,12.8121,12.9151,13.1211,13.3078,13.3593,13.4003,13.4991,13.7351,13.7093,13.6836,13.8188,13.7737,13.7802,13.9669,14.0893,14.2052,14.3404,14.5658,14.7357,14.7808,14.9393,15.0526,15.059,15.1878,15.2329,15.1299,15.2586,15.3616,15.4067,15.4968,15.6154,15.7597,15.7662,15.7855,15.8343,15.9309,15.976,15.976,16.0726,16.1112,16.1112,16.1112,16.1112,16.1112,16.1112,16.1112,16.1112,16.1112,16.1112,16.1112,16.1112,16.1112,16.1112,16.1112,16.1112,16.0855,15.8987,15.8435,15.8536,15.9438,16.0082,16.0808,16.2039,16.3145,16.3856,16.3311,16.4179,16.5351,16.5382,16.607,16.7,16.7966,16.816,16.8031,16.7673,16.8317,16.8546,16.723,16.7709,16.8317,16.8317,16.8317,16.8317,16.8317,16.9155,16.9319,16.8288,16.816,16.8303,16.8645,16.8314,16.8253,16.8647,16.8481,16.7748,16.6291,16.6445,16.5914,16.4477,16.3954,16.3693,16.3713,16.3187,16.3161,16.3713,16.2752,16.2818,16.3896,16.2398,16.2529,12.4296,12.5566,12.6082,12.6533,12.8337,13.0139,13.081,13.1516,13.2908,13.5829,13.5635,13.5571,13.7415,13.6643,13.6151,13.7544,13.7802,13.851,14.0378,14.1883,14.33,14.4781,14.6946,14.8362,14.8337,14.8813,14.9264,14.9689,15.059,15.1363,15.1852,15.2753,15.3938,15.5381,15.5896,15.6347,15.6889,15.7855,15.8306,15.8306,15.9272,15.9696,15.9696,15.9696,15.9696,15.9696,15.9696,15.9696,15.9696,15.9696,15.9696,15.9696,15.9696,15.9696,15.9696,15.9696,15.994,15.9941,15.8029,15.7383,15.7524,15.8306,15.9005,15.971,16.0841,16.1569,16.1855,16.159,16.192,16.2489,16.2951,16.4391,16.5986,16.6833,16.78,16.8352,16.7702,16.8317,16.8546,16.7101,16.7644,16.8317,16.8317,16.8317,16.8317,16.8317,16.909,16.9405,16.8639,16.8709,16.8993,16.936,16.848,16.7934,16.7829,16.7136,16.6072,16.4637,16.4732,16.4372,16.3234,16.2775,16.2432,16.2266,16.1806,16.1806,16.2266,16.1305,16.1397,16.2292,16.082,16.0688,11.8092,12.0186,12.3616,12.5148,12.6253,12.7478,12.9419,12.948,12.9988,13.2802,13.3381,13.3446,13.3446,13.4605,13.512,13.3768,13.5893,13.7673,13.7737,13.8961,14.0442,14.1834,14.33,14.5167,14.7822,14.6971,14.6777,14.8015,14.8208,14.8852,15.0268,15.0397,15.1041,15.2457,15.3783,15.5226,15.6567,15.6696,15.676,15.676,15.6825,15.6889,15.6889,15.6889,15.6889,15.6889,15.6889,15.6889,15.6889,15.6889,15.6889,15.6889,15.6889,15.6889,15.6916,15.6813,15.7412,15.8328,15.8328,15.8328,15.825,15.7766,15.8858,16.0344,15.9905,16.0717,16.1639,16.0772,15.9837,15.8989,15.8587,16.03,16.2039,16.1985,16.4029,16.6285,16.7106,16.7379,16.7866,16.9155,16.9541,16.9605,16.9577,16.967,16.967,16.967,16.9605,16.8711,16.6498,16.6746,16.7092,16.7092,16.7037,16.6517,16.5112,16.5465,16.5132,16.3653,16.4058,16.3647,16.216,16.0754,15.9398,15.7977,15.6571,15.6595,15.7977,15.7977,15.9423,16.2094,16.0714,16.1543,11.5162,11.5785,11.6399,11.8596,12.1884,12.4636,12.4941,12.6683,12.8362,12.8831,12.973,13.0761,13.1791,13.2306,13.2821,13.3446,13.4219,13.5056,13.6128,13.748,13.8961,14.0378,14.1794,14.2567,14.2309,14.2889,14.3404,14.3766,14.5722,14.7099,14.7486,14.8427,14.911,14.9496,14.9882,15.0268,15.068,15.2715,15.3745,15.381,15.5896,15.6889,15.6889,15.6889,15.6889,15.6889,15.6889,15.6889,15.6889,15.6889,15.6889,15.6889,15.6889,15.7064,15.7203,15.5614,15.5235,15.549,15.549,15.549,15.566,15.6521,15.7157,15.7859,15.9095,15.976,16.0047,15.981,16.0281,16.0711,16.0085,16.0961,16.2066,16.2378,16.2513,16.2491,16.2498,16.356,16.4407,16.4086,16.545,16.6908,16.7995,16.8124,16.8124,16.8124,16.6724,16.5767,16.6165,16.5754,16.5296,16.4735,16.4631,16.466,16.4597,16.4754,16.3808,16.1313,16.1269,16.0228,15.7754,15.7294,15.69,15.6505,15.611,15.611,15.6505,15.6505,15.69,15.7689,15.7228,15.7491,10.9618,11.0154,11.0308,11.2206,11.5131,11.8163,12.038,12.2359,12.4105,12.5603,12.7048,12.847,12.9957,13.1186,13.2176,13.2859,13.3999,13.4963,13.5594,13.6385,13.7415,13.8896,13.9964,14.03,13.9461,14.0497,14.1448,14.2028,14.3662,14.4845,14.545,14.6777,14.7525,14.7525,14.8015,14.8337,14.8337,14.9947,15.0784,15.0848,15.2483,15.3256,15.3256,15.3256,15.3256,15.3347,15.3555,15.3633,15.3659,15.3893,15.397,15.3996,15.4578,15.5044,15.5081,15.3468,15.3034,15.3297,15.3861,15.4057,15.4293,15.5479,15.6037,15.6435,15.7321,15.7608,15.7658,15.7886,15.8197,15.8518,15.8581,15.9695,16.0917,16.1207,16.1786,16.2049,16.1579,16.232,16.2847,16.2357,16.3371,16.4575,16.5379,16.5314,16.5323,16.5481,16.436,16.3909,16.4998,16.471,16.4263,16.402,16.4033,16.3613,16.2766,16.2135,16.082,15.8519,15.8387,15.7623,15.5979,15.5913,15.5913,15.5913,15.5913,15.5913,15.5913,15.5913,15.5913,15.5913,15.5913,15.5256,10.2189,10.3422,10.4627,10.5847,10.7256,10.9681,0.0,11.6438,11.7767,12.1696,12.4058,12.5835,12.7245,12.9847,13.1799,13.1795,13.4018,13.5696,13.5391,13.5581,13.6225,13.7386,13.8039,13.84,13.8354,13.9227,14.0296,14.1537,14.177,14.2438,14.3711,14.5128,14.5901,14.5901,14.7139,14.7872,14.7923,14.8066,14.813,14.818,14.8259,14.8337,14.8337,14.8337,14.8362,14.8438,14.8841,14.9041,14.9116,14.9613,14.9835,15.0039,15.13,15.1765,15.1678,15.1123,15.119,15.1794,15.3086,15.3522,15.3646,15.4453,15.5019,15.5314,15.4846,15.4763,15.4862,15.5527,15.4984,15.4526,15.5601,15.7421,15.8916,15.9007,16.0827,16.2501,16.2054,16.1999,16.2049,16.2324,16.2401,16.2504,16.2699,16.2271,16.2033,16.2049,16.209,16.2341,16.309,16.309,16.3234,16.3727,16.3555,16.2463,15.9899,15.8478,15.7253,15.5979,15.5913,15.5847,15.565,15.565,15.5584,15.5453,15.5387,15.5387,15.5387,15.5387,15.5387,15.5387,15.5387,15.403,0.0,0.0,0.0,0.0,0.0,0.0,0.0,10.7662,11.0087,11.1846,11.6037,11.9874,12.135,12.3952,12.6618,12.8809,13.0651,13.2124,13.3184,13.5327,13.6453,13.5609,13.6586,13.721,13.691,13.8067,13.8827,13.8663,13.9734,14.0506,14.0764,14.2181,14.2953,14.2953,14.4266,14.5236,14.5653,14.6397,14.6913,14.7374,14.8048,14.8337,14.8337,14.8337,14.8564,14.8916,14.8615,14.8715,14.9091,14.9191,14.9514,14.9884,15.0169,15.0161,15.0104,15.1077,15.1525,15.1663,15.1926,15.2057,15.2033,15.2266,15.2356,15.2428,15.2332,15.2308,15.2571,15.3826,15.4033,15.4198,15.5535,15.5912,15.6072,15.6496,15.634,15.6328,15.7059,15.7445,15.8171,15.9693,16.0542,16.1333,16.2504,16.2593,16.162,15.874,15.828,15.8749,16.0068,15.9586,15.9166,15.9267,15.8215,15.736,15.6768,15.6505,15.6176,15.5913,15.5913,15.5387,15.4245,15.4179,15.3612,15.2452,15.2452,15.2452,15.2452,15.2452,15.2452,15.2452,15.2452,15.2123,0.0,0.0,0.0,0.0,0.0,0.0,0.0,0.0,0.0,0.0,0.0,11.3682,11.5876,0.0,12.2533,12.5165,12.7362,12.943,13.143,13.3555,13.4795,13.4644,13.4993,13.5491,13.5986,13.717,13.7699,13.7447,13.8551,13.9691,14.0596,14.1136,14.15,14.1697,14.2194,14.2646,14.2886,14.4004,14.4739,14.5022,14.6382,14.7029,14.7029,14.7029,14.7176,14.7461,14.7152,14.7299,14.7737,14.7737,14.8051,14.8531,14.8531,14.8406,14.8417,14.9074,14.9361,14.9492,15.0282,15.0545,15.0676,15.14,15.1597,15.1597,15.1597,15.1597,15.1794,15.2494,15.2691,15.2888,15.357,15.3573,15.3624,15.4591,15.4445,15.4395,15.5593,15.6084,15.648,15.7452,15.7956,15.8473,15.9192,15.9297,15.868,15.6821,15.6568,15.6831,15.7552,15.7277,15.6727,15.5979,15.5256,15.4861,15.4861,15.4138,15.4401,15.5782,15.5256,15.4203,15.2757,15.2691,15.2362,15.1663,15.1597,15.1597,15.1597,15.1597,15.1597,15.1531,14.8637,14.7256,0.0,0.0,0.0,0.0,0.0,0.0,0.0,0.0,0.0,0.0,0.0,0.0,0.0,0.0,0.0,12.0655,12.3803,12.6777,12.9276,13.0428,13.1378,13.2464,13.3021,13.3748,13.5102,13.6189,13.6747,13.6658,13.7661,13.8783,14.0042,14.0322,14.0577,14.0865,14.0883,14.0914,14.1007,14.2039,14.2646,14.2741,14.4242,0.0,14.4928,14.4905,14.4952,14.5047,14.4976,14.5189,14.5523,14.5523,14.5976,14.6591,14.6421,14.6312,14.6312,14.6312,14.6312,14.6533,14.7759,14.8219,14.8417,14.9558,14.9953,14.9953,15.0282,15.0347,0.0,15.1071,15.1202,15.1268,15.1531,15.1597,15.1926,15.3086,15.3349,15.3677,15.4795,15.5058,15.5124,15.5453,15.5519,15.5584,15.5847,15.5453,15.5058,15.5058,15.5058,15.5058,15.5058,15.5058,15.4598,15.3456,15.3349,15.3349,15.3349,15.2033,15.232,15.4927,15.3743,15.2165,15.0413,15.0084,14.9821,14.9492,14.9492,14.9624,14.9953,14.9953,14.9953,14.9755,14.2521,13.989,0.0,0.0,0.0,0.0,0.0,0.0,0.0,0.0,0.0,0.0,0.0,0.0,0.0,0.0,0.0,0.0,11.9145,12.2871,12.5768,12.5158,12.5,12.6368,12.9898,13.258,13.3684,13.5037,13.5646,13.514,13.6418,13.6743,13.5704,13.8021,0.0,0.0,0.0,14.1459,14.1962,14.1631,14.1696,14.2158,14.1938,14.184,14.1822,14.1817,14.2073,14.2488,14.2007,14.2077,14.258,14.258,14.3345,14.4466,14.3655,14.3376,14.3376,14.3376,14.3376,14.3376,14.3573,0.0,0.0,14.377,14.3836,14.4099,14.5369,14.5763,14.6289,14.9009,14.9732,14.9995,15.1268,15.1597,15.1663,15.1794,15.186,15.1926,15.2057,15.2123,15.2452,15.3719,15.3982,15.4376,15.565,15.3743,15.2123,15.2123,15.2123,15.2123,15.2123,15.2123,15.2057,15.186,15.186,0.0,15.186,15.0545,15.0389,15.1992,15.0784,14.8745,14.5895,14.456,14.3244,14.1972,14.1972,14.2564,14.3836,14.3836,14.3836,14.3573,13.132,12.9063,0.0,0.0,0.0,0.0,0.0,0.0,0.0,0.0,0.0,0.0,0.0,0.0,0.0,0.0,0.0,0.0,11.2118,11.5406,11.659,11.6984,11.8891,12.3738,12.5907,12.7819,12.9934,13.1423,13.2519,13.318,13.434,13.5233,13.5799,13.6649,13.7258,13.7611,13.789,13.8542,13.9594,14.024,14.0632,14.0859,14.1778,14.2216,14.2216,14.2216,14.233,14.2511,14.2307,14.2353,14.2534,14.2534,14.2862,14.3213,0.0,0.0,0.0,0.0,14.0394,14.0394,14.0394,14.092,14.1666,14.1666,14.2192,14.2981,14.3573,14.3748,14.4011,14.526,14.5612,14.5809,14.6401,14.6533,14.673,14.7562,14.8417,14.9295,15.0216,15.1071,15.1794,15.2362,15.2494,0.0,15.3307,15.2386,15.1597,15.1597,15.1597,15.1597,15.1597,15.1597,15.1334,15.0455,15.0389,15.0018,14.9074,14.8482,0.0,0.0,0.0,14.6289,14.5106,14.3616,0.0,0.0,0.0,13.6843,13.6536,13.3226,0.0,0.0,12.527,12.4001,0.0,0.0,0.0,0.0,0.0,0.0,0.0,0.0,0.0,0.0,0.0,0.0,0.0,0.0,0.0,0.0,10.5526,10.837,10.7498,10.9685,11.3499,11.9201,12.0892,12.2771,12.5684,12.7571,12.9261,13.0662,13.2255,13.3524,13.4607,13.5425,13.606,13.647,13.6453,13.7,13.8004,13.8704,13.8966,13.8966,14.0436,14.1074,14.114,14.1534,14.1732,14.1732,14.1732,14.1469,14.114,14.1534,14.1732,14.1534,13.9386,13.9254,13.9978,13.8991,13.8334,13.7939,13.7545,13.8093,13.8947,13.8947,13.9671,14.0614,14.1008,14.1074,14.1205,14.16,14.2258,14.2784,14.2389,14.285,14.3616,14.4274,14.5195,14.6247,14.743,14.8506,14.9427,15.0216,14.9755,14.9229,14.9229,14.9229,14.9229,14.9229,14.9229,14.9229,14.9229,14.9229,14.8835,14.7759,14.7693,14.7167,14.6049,14.5589,14.5523,14.5918,14.458,14.3857,14.3857,14.2433,14.1337,14.0548,13.5988,13.2569,0.0,0.0,0.0,0.0,0.0,0.0,0.0,0.0,0.0,0.0,0.0,0.0,0.0,0.0,0.0,0.0,0.0,0.0,0.0,0.0,0.0,0.0,0.0,0.0,10.025,10.4786,10.8993,11.0588,11.4485,11.8168,12.1212,12.402,12.6322,12.7723,13.0465,13.143,13.0115,13.4081,13.647,13.647,13.7808,13.8509,13.8575,13.7216,13.658,13.658,13.6667,13.6667,13.6733,13.8071,13.8728,13.8728,13.8728,13.7961,13.6733,13.8137,13.8728,13.8728,13.8663,13.8575,13.8663,13.8597,13.7698,13.6339,13.4936,13.4476,13.4542,13.4542,13.4542,13.487,13.6273,13.6667,13.6931,13.8334,14.0723,14.2587,14.1183,14.287,14.458,14.3244,14.2981,14.307,14.3047,14.3113,14.3968,14.6707,14.5086,14.3113,14.3113,14.3113,14.3113,14.3113,14.3113,0.0,14.3113,14.3113,14.3113,14.3047,14.3047,14.3047,14.2981,14.1732,14.1512,14.2915,14.1666,14.0854,14.0854,13.9452,13.7413,13.4673,13.2898,13.0004,12.5796,0.0,0.0,0.0,0.0,0.0,0.0,0.0,0.0,0.0,0.0,0.0,0.0,0.0,0.0,0.0,0.0,0.0,0.0,0.0,0.0,0.0,0.0,0.0,0.0,10.0857,10.5131,10.8616,11.1114,11.3367,11.5293,11.7247,11.9398,12.185,12.4658,12.6499,12.6979,12.9347,13.0682,13.0682,13.2043,13.3271,13.4213,13.4739,13.5549,13.647,13.647,13.6996,13.7895,13.84,13.8597,13.8597,13.8597,13.8334,13.7939,13.84,13.577,13.1406,13.1406,13.1406,13.1254,13.0333,12.9676,12.9281,12.9762,12.9959,13.0288,13.2174,13.349,13.441,13.487,13.5002,13.5133,13.566,13.6449,13.7106,13.6646,13.7238,13.783,13.7304,13.9342,14.1183,14.0263,14.2279,14.4274,14.4297,14.1972,13.9737,13.8772,14.1008,14.1863,13.9035,14.1008,14.285,14.285,14.285,14.285,14.285,14.285,14.2455,14.1512,14.1863,14.1512,14.0131,14.046,14.0328,13.932,13.7961,13.6712,13.5747,13.5221,12.9959,11.9746,0.0,0.0,0.0,0.0,0.0,0.0,0.0,0.0,0.0,0.0,0.0,0.0,0.0,0.0,0.0,0.0,0.0,0.0,0.0,0.0,0.0,0.0,0.0,0.0,0.0,0.0,10.546,10.6249,0.0,10.9308,11.0343,11.21,11.5059,11.7952,12.0404,12.2376,12.4369,12.5684,12.619,12.8097,12.9544,13.0485,13.1451,13.2458,13.3313,13.3313,13.3839,13.4718,13.5244,13.5507,13.5507,13.5507,13.5178,13.4673,13.4192,13.0904,12.619,12.619,12.5881,12.5421,12.5533,12.527,12.5072,12.7065,12.7394,12.7263,12.9084,12.9347,12.8952,12.8952,12.8163,12.7617,12.9215,13.0793,13.2174,13.3226,13.4279,13.5068,13.5068,13.6777,13.8356,13.7939,13.9583,14.092,14.0,13.8356,13.6317,13.3774,13.5615,13.6733,13.441,13.6449,13.8947,14.1074,14.1337,14.1337,14.1337,14.1337,14.0986,14.0065,14.0789,14.0591,13.8728,13.9013,13.8816,13.7895,13.6931,13.5221,13.2656,13.259,12.6868,0.0,0.0,0.0,0.0,0.0,0.0,0.0,0.0,0.0,0.0,0.0,0.0,0.0,0.0,0.0,0.0,0.0,0.0,0.0,0.0,0.0,0.0,0.0,0.0,0.0,0.0,0.0,10.0873,10.0053,0.0,0.0,0.0,0.0,10.7284,11.0211,11.3122,11.5932,11.8976,12.1324,12.2798,12.5664,12.7197,12.7263,12.7348,12.7394,12.746,12.746,12.7526,12.7657,12.9018,12.9655,12.9655,12.9655,12.8886,12.746,12.5664,12.4067,12.2732,12.2601,12.1719,12.0751,12.356,12.3738,12.3015,12.6013,12.6125,12.5007,12.4941,12.2179,11.876,11.8497,11.644,0.0,0.0,12.3711,12.7657,13.0596,13.349,13.5747,13.5944,13.5089,13.4542,13.5944,13.5265,13.4279,13.3753,13.3753,13.2306,12.7657,0.0,12.7591,12.8866,12.9458,13.1825,13.7545,13.8465,13.8597,13.8597,13.8597,13.8597,13.8597,13.8531,13.8465,13.8465,13.7106,13.6339,13.6339,13.6076,13.259,12.5467,12.5138,0.0,0.0,0.0,0.0,0.0,0.0,0.0,0.0,0.0,0.0,0.0,0.0,0.0,0.0,0.0,0.0,0.0,0.0,0.0,0.0,0.0,0.0,0.0,0.0,0.0,0.0,8.7985,9.2047,9.4925,9.4991,9.5057,0.0,0.0,0.0,0.0,0.0,0.0,10.5476,10.9405,11.2758,11.5227,11.8102,12.0141,12.1324,12.2396,12.3514,12.4527,12.4527,12.5072,12.6125,12.6519,12.6651,12.6651,12.6651,12.6453,12.5618,11.8713,11.5011,11.3565,11.1395,10.9685,10.8633,11.0426,11.0886,11.1263,11.6243,11.7755,11.7294,11.6195,11.5161,11.3451,10.9159,0.0,0.0,0.0,0.0,11.7331,12.139,12.3823,12.5947,12.917,13.134,13.27,13.3029,13.4629,13.3708,12.6079,12.5467,12.3804,11.6129,11.751,0.0,11.8675,12.4086,12.9564,13.3226,13.6559,13.8597,13.8597,13.8597,13.8597,13.8597,13.7632,13.6975,13.6975,13.566,13.487,13.487,13.0662,12.6453,12.2461,0.0,0.0,0.0,0.0,0.0,0.0,0.0,0.0,0.0,0.0,0.0,0.0,0.0,0.0,0.0,0.0,0.0,0.0,0.0,0.0,0.0,0.0,0.0,0.0,0.0,0.0,0.0,8.371,8.7957,9.0915,9.0061,8.9535,0.0,0.0,0.0,0.0,0.0,0.0,0.0,0.0,0.0,10.5839,10.8107,11.0325,11.2513,11.4551,11.6308,11.7755,11.8346,11.9088,11.9896,11.9896,11.9896,11.9878,12.0535,11.9004,11.5735,11.008,10.62,10.3569,0.0,0.0,0.0,0.0,10.1334,10.1991,10.6495,10.8007,10.7941,10.712,0.0,0.0,0.0,0.0,0.0,0.0,0.0,11.0755,11.5161,11.922,12.3034,12.6059,12.7966,12.9347,12.9959,12.744,12.3185,11.6853,11.6243,11.4581,10.7761,10.9142,0.0,0.0,0.0,12.4698,12.9499,13.4016,13.6756,13.6756,13.6756,13.6756,13.6756,13.5988,13.5549,13.5549,13.4147,13.2174,12.9655,12.5796,12.0206,0.0,0.0,0.0,0.0,0.0,0.0,0.0,0.0,0.0,0.0,0.0,0.0,0.0,0.0,0.0,0.0,0.0,0.0,0.0,0.0,0.0,0.0,0.0,0.0,0.0,0.0,0.0,0.0,0.0,8.3816,8.705,0.0,0.0,0.0,0.0,0.0,0.0,0.0,0.0,0.0,0.0,0.0,0.0,0.0,9.9987,10.283,10.5328,10.7301,10.8699,10.9965,11.0623,11.082,11.082,11.1018,11.1412,11.1706,0.0,10.3224,10.1136,0.0,0.0,0.0,0.0,0.0,0.0,0.0,0.0,0.0,0.0,0.0,0.0,0.0,0.0,0.0,0.0,0.0,0.0,0.0,0.0,0.0,0.0,12.1305,12.2883,12.3738,12.4086,12.404,11.6195,10.8699,10.6889,10.6692,10.546,0.0,0.0,0.0,0.0,0.0,0.0,12.5947,13.1254,13.4344,13.4344,13.4344,13.4344,13.4344,13.4147,13.4016,13.4016,13.1846,12.8163,12.2817,12.0995,0.0,0.0,0.0,0.0,0.0,0.0,0.0,0.0,0.0,0.0,0.0,0.0,0.0,0.0,0.0,0.0,0.0,0.0,0.0,0.0,0.0,0.0,0.0,0.0,0.0,0.0,0.0,0.0,0.0,0.0,0.0,0.0,0.0,0.0,0.0,0.0,0.0,0.0,0.0,0.0,0.0,0.0,0.0,0.0,0.0,0.0,0.0,0.0,0.0,0.0,9.9903,10.0676,10.1778,10.1778,10.3159,10.5148,9.9395,9.8212,9.9921,9.4889,0.0,0.0,0.0,0.0,0.0,0.0,0.0,0.0,0.0,0.0,0.0,0.0,0.0,0.0,0.0,0.0,0.0,0.0,0.0,0.0,0.0,0.0,10.8024,11.0637,11.4007,11.4336,10.6183,0.0,0.0,0.0,0.0,0.0,0.0,0.0,0.0,0.0,0.0,0.0,12.1606,12.9347,13.4344,13.4344,13.4344,13.4344,13.4344,13.3161,13.2372,13.2372,12.6605,12.1606,0.0,0.0,0.0,0.0,0.0,0.0,0.0,0.0,0.0,0.0,0.0,0.0,0.0,0.0,0.0,0.0,0.0,0.0,0.0,0.0,0.0,0.0,0.0,0.0,0.0,0.0,0.0,0.0,0.0,0.0,0.0,0.0,0.0,0.0,0.0,0.0,0.0,0.0,0.0,0.0,0.0,0.0,0.0,0.0,0.0,0.0,0.0,0.0,0.0,0.0,0.0,0.0,0.0,0.0,0.0,0.0,0.0,0.0,9.193,8.8628,0.0,0.0,0.0,0.0,0.0,0.0,0.0,0.0,0.0,0.0,0.0,0.0,0.0,0.0,0.0,0.0,0.0,0.0,0.0,0.0,0.0,0.0,0.0,0.0,0.0,0.0,0.0,0.0,0.0,0.0,0.0,0.0,0.0,0.0,0.0,0.0,0.0,0.0,0.0,0.0,11.7313,12.6105,13.2043,13.2043,13.2043,13.1693,13.0946,13.0222,12.8512,12.5533,12.0667,0.0,0.0,0.0,0.0,0.0,0.0,0.0,0.0,0.0,0.0,0.0,0.0,0.0,0.0,0.0,0.0,0.0,0.0,0.0,0.0,0.0,0.0,0.0,0.0,0.0,0.0,0.0,0.0,0.0,0.0,0.0,0.0,0.0,0.0,0.0,0.0,0.0,0.0,0.0,0.0,0.0,0.0,0.0,0.0,0.0,0.0,0.0,0.0,0.0,0.0,0.0,0.0,0.0,0.0,0.0,0.0,0.0,0.0,0.0,8.5354,8.0896,0.0,0.0,0.0,0.0,0.0,0.0,0.0,0.0,0.0,0.0,0.0,0.0,0.0,0.0,0.0,0.0,0.0,0.0,0.0,0.0,0.0,0.0,0.0,0.0,0.0,0.0,0.0,0.0,0.0,0.0,0.0,0.0,0.0,0.0,0.0,0.0,0.0,0.0,0.0,0.0,11.4202,12.2972,12.8932,12.8932,12.8932,12.8492,12.7328,12.7263,12.4829,11.9023,11.4993,0.0,0.0,0.0,0.0,0.0,0.0,0.0,0.0,0.0,0.0,0.0,0.0,0.0,0.0,0.0,0.0,0.0,0.0,0.0,0.0,0.0,0.0,0.0,0.0,0.0,0.0,0.0,0.0,0.0,0.0,0.0,0.0,0.0,0.0,0.0,0.0,0.0,0.0,0.0,0.0,0.0,0.0,0.0,0.0,0.0,0.0,0.0,0.0,0.0,0.0,0.0,0.0,0.0,0.0,0.0,0.0,0.0,0.0,0.0,0.0,0.0,0.0,0.0,0.0,0.0,0.0,0.0,0.0,0.0,0.0,0.0,0.0,0.0,0.0,0.0,0.0,0.0,0.0,0.0,0.0,0.0,0.0,0.0,0.0,0.0,0.0,0.0,0.0,0.0,0.0,0.0,0.0,0.0,0.0,0.0,0.0,0.0,0.0,0.0,0.0,0.0,11.3774,12.1165,12.5993,12.5993,12.5993,12.5927,12.5796,12.5796,12.3297,11.7379,0.0,0.0,0.0,0.0,0.0,0.0,0.0,0.0,0.0,0.0,0.0,0.0,0.0,0.0,0.0,0.0,0.0,0.0,0.0,0.0,0.0,0.0,0.0,0.0,0.0,0.0,0.0,0.0,0.0,0.0,0.0,0.0,0.0,0.0,0.0,0.0,0.0,0.0,0.0,0.0,0.0,0.0,0.0,0.0,0.0,0.0,0.0,0.0,0.0,0.0,0.0,0.0,0.0,0.0,0.0,0.0,0.0,0.0,0.0,0.0,0.0,0.0,0.0,0.0,0.0,0.0,0.0,0.0,0.0,0.0,0.0,0.0,0.0,0.0,0.0,0.0,0.0,0.0,0.0,0.0,0.0,0.0,0.0,0.0,0.0,0.0,0.0,0.0,0.0,0.0,0.0,0.0,0.0,0.0,0.0,0.0,0.0,0.0,0.0,0.0,0.0,0.0,11.2321,11.9603,12.4593,12.5467,12.479,12.3935,12.3119,12.2179,11.8314,11.044,0.0,0.0,0.0,0.0,0.0,0.0,0.0,0.0,0.0,0.0,0.0,0.0,0.0,0.0,0.0,0.0,0.0,0.0,0.0,0.0,0.0,0.0,0.0,0.0,0.0,0.0,0.0,0.0,0.0,0.0,0.0,0.0,0.0,0.0,0.0,0.0,0.0,0.0,0.0,0.0,0.0,0.0,0.0,0.0,0.0,0.0,0.0,0.0,0.0,0.0,0.0,0.0,0.0,0.0,0.0,0.0,0.0,0.0,0.0,0.0,0.0,0.0,0.0,0.0,0.0,0.0,0.0,0.0,0.0,0.0,0.0,0.0,0.0,0.0,0.0,0.0,0.0,0.0,0.0,0.0,0.0,0.0,0.0,0.0,0.0,0.0,0.0,0.0,0.0,0.0,0.0,0.0,0.0,0.0,0.0,0.0,0.0,0.0,0.0,0.0,0.0,0.0,10.9972,11.6989,12.1897,12.2902,12.2094,12.1108,12.0094,11.8694,11.411,10.5279,0.0,0.0,0.0,0.0,0.0,0.0,0.0,0.0,0.0,0.0,0.0,0.0,0.0,0.0,0.0,0.0,0.0,0.0,0.0,0.0,0.0,0.0,0.0,0.0,0.0,0.0,0.0,0.0,0.0,0.0,0.0,0.0,0.0,0.0,0.0,0.0,0.0,0.0,0.0,0.0,0.0,0.0,0.0,0.0,0.0,0.0,0.0,0.0,0.0,0.0,0.0,0.0,0.0,0.0,0.0,0.0,0.0,0.0,0.0,0.0,0.0,0.0,0.0,0.0,0.0,0.0,0.0,0.0,0.0,0.0,0.0,0.0,0.0,0.0,0.0,0.0,0.0,0.0,0.0,0.0,0.0,0.0,0.0,0.0,0.0,0.0,0.0,0.0,0.0,0.0,0.0,0.0,0.0,0.0,0.0,0.0,0.0,0.0,0.0,0.0,0.0,0.0,10.6765,11.2855,11.6918,11.6918,11.6918,11.6918,11.6918,11.5585,11.1469,0.0,0.0,0.0,0.0,0.0,0.0,0.0,0.0,0.0,0.0,0.0,0.0,0.0,0.0,0.0,0.0,0.0,0.0,0.0,0.0,0.0,0.0,0.0,0.0,0.0,0.0,0.0,0.0,0.0,0.0,0.0,0.0,0.0,0.0,0.0,0.0,0.0,0.0,0.0,0.0,0.0,0.0,0.0,0.0,0.0,0.0,0.0,0.0,0.0,0.0,0.0,0.0,0.0,0.0,0.0,0.0,0.0,0.0,0.0,0.0,0.0,0.0,0.0,0.0,0.0,0.0,0.0,0.0,0.0,0.0,0.0,0.0,0.0,0.0,0.0,0.0,0.0,0.0,0.0,0.0,0.0,0.0,0.0,0.0,0.0,0.0,0.0,0.0,0.0,0.0,0.0,0.0,0.0,0.0,0.0,0.0,0.0,0.0,0.0,0.0,0.0,0.0,0.0,10.7369,11.0515,11.3667,11.7852,11.564,11.3911,11.3911,11.1706,10.7738,10.1718,0.0,0.0,0.0,0.0,0.0,0.0,0.0,0.0,0.0,0.0,0.0,0.0,0.0,0.0,0.0,0.0,0.0,0.0,0.0,0.0,0.0,0.0,0.0,0.0,0.0,0.0,0.0,0.0,0.0,0.0,0.0,0.0,0.0,0.0,0.0,0.0,0.0,0.0,0.0,0.0,0.0,0.0,0.0,0.0,0.0,0.0,0.0,0.0,0.0,0.0,0.0,0.0,0.0,0.0,0.0,0.0,0.0,0.0,0.0,0.0,0.0,0.0,0.0,0.0,0.0,0.0,0.0,0.0,0.0,0.0,0.0,0.0,0.0,0.0,0.0,0.0,0.0,0.0,0.0,0.0,0.0,0.0,0.0,0.0,0.0,0.0,0.0,0.0,0.0,0.0,0.0,0.0,0.0,0.0,0.0,0.0,0.0,0.0,0.0,0.0,0.0,0.0,0.0,10.776,11.0857,11.5113,11.2791,11.0934,11.0934,10.8813,10.5287,10.0258,0.0,0.0,0.0,0.0,0.0,0.0,0.0,0.0,0.0,0.0,0.0,0.0,0.0,0.0,0.0,0.0,0.0,0.0,0.0,0.0,0.0,0.0,0.0,0.0,0.0,0.0,0.0,0.0,0.0,0.0,0.0,0.0,0.0,0.0,0.0,0.0,0.0,0.0,0.0,0.0,0.0,0.0,0.0,0.0,0.0,0.0,0.0,0.0,0.0,0.0,0.0,0.0,0.0,0.0,0.0,0.0,0.0,0.0,0.0,0.0,0.0,0.0,0.0,0.0,0.0,0.0,0.0,0.0,0.0,0.0,0.0,0.0,0.0,0.0,0.0,0.0,0.0,0.0,0.0,0.0,0.0,0.0,0.0,0.0,0.0,0.0,0.0,0.0,0.0,0.0,0.0,0.0,0.0,0.0,0.0,0.0,0.0,0.0,0.0,0.0,0.0,0.0,0.0,10.4934,10.8616,11.0149,10.9047,10.8292,10.8292,10.6943,10.4033,9.9214,9.5532,0.0,0.0,0.0,0.0,0.0,0.0,0.0,0.0,0.0,0.0,0.0,0.0,0.0,0.0,0.0,0.0,0.0,0.0,0.0,0.0,0.0,0.0,0.0,0.0,0.0,0.0,0.0,0.0,0.0,0.0,0.0,0.0,0.0,0.0,0.0,0.0,0.0,0.0,0.0,0.0,0.0,0.0,0.0,0.0,0.0,0.0,0.0,0.0,0.0,0.0,0.0,0.0,0.0,0.0,0.0,0.0,0.0,0.0,0.0,0.0,0.0,0.0,0.0,0.0,0.0,0.0,0.0,0.0,0.0,0.0,0.0,0.0,0.0,0.0,0.0,0.0,0.0,0.0,0.0,0.0,0.0,0.0,0.0,0.0,0.0,0.0,0.0,0.0,0.0,0.0,0.0,0.0,0.0,0.0,0.0,0.0,0.0,0.0,0.0,0.0,0.0,0.0,10.627,10.7725,11.2495,11.002,10.8003,10.8003,10.665,10.3768,9.8805,9.4845,0.0,0.0,0.0,0.0,0.0,0.0,0.0,0.0,0.0,0.0,0.0,0.0,0.0,0.0,0.0,0.0,0.0,0.0,0.0,0.0,0.0,0.0,0.0,0.0,0.0,0.0,0.0,0.0,0.0,0.0,0.0,0.0,0.0,0.0,0.0,0.0,0.0,0.0,0.0,0.0,0.0,0.0,0.0,0.0,0.0,0.0,0.0,0.0,0.0,0.0,0.0,0.0,0.0,0.0,0.0,0.0,0.0,0.0,0.0,0.0,0.0,0.0,0.0,0.0,0.0,0.0,0.0,0.0,0.0,0.0,0.0,0.0,0.0,0.0,0.0,0.0,0.0,0.0,0.0,0.0,0.0,0.0,0.0,0.0,0.0,0.0,0.0,0.0,0.0,0.0,0.0,0.0,0.0,0.0,0.0,0.0,0.0,0.0,0.0,0.0,0.0,0.0,10.0652,10.3173,10.9505,10.7713,10.6295,10.6856,10.5704,10.3082,9.8761,9.4179,0.0,0.0,0.0,0.0,0.0,0.0,0.0,0.0,0.0,0.0,0.0,0.0,0.0,0.0,0.0,0.0,0.0,0.0,0.0,0.0,0.0,0.0,0.0,0.0,0.0,0.0,0.0,0.0,0.0,0.0,0.0,0.0,0.0,0.0,0.0,0.0,0.0,0.0,0.0,0.0,0.0,0.0,0.0,0.0,0.0,0.0,0.0,0.0,0.0,0.0,0.0,0.0,0.0,0.0,0.0,0.0,0.0,0.0,0.0,0.0,0.0,0.0,0.0,0.0,0.0,0.0,0.0,0.0,0.0,0.0,0.0,0.0,0.0,0.0,0.0,0.0,0.0,0.0,0.0,0.0,0.0,0.0,0.0,0.0,0.0,0.0,0.0,0.0,0.0,0.0,0.0,0.0,0.0,0.0,0.0,0.0,0.0,0.0,0.0,0.0,0.0,0.0,0.0,9.8489,10.4593,10.4857,10.5005,10.6214,10.5026,10.2573,9.864,0.0,0.0,0.0,0.0,0.0,0.0,0.0,0.0,0.0,0.0,0.0,0.0,0.0,0.0,0.0,0.0,0.0,0.0,0.0,0.0,0.0,0.0,0.0,0.0,0.0,0.0,0.0,0.0,0.0,0.0,0.0,0.0,0.0,0.0,0.0,0.0,0.0,0.0,0.0,0.0,0.0,0.0,0.0,0.0,0.0,0.0,0.0,0.0,0.0,0.0,0.0,0.0,0.0,0.0,0.0,0.0,0.0,0.0,0.0,0.0,0.0,0.0,0.0,0.0,0.0,0.0,0.0,0.0,0.0,0.0,0.0,0.0,0.0,0.0,0.0,0.0,0.0,0.0,0.0,0.0,0.0,0.0,0.0,0.0,0.0,0.0,0.0,0.0,0.0,0.0,0.0,0.0,0.0,0.0,0.0,0.0,0.0,0.0,0.0,0.0,0.0,0.0,0.0,0.0,10.0385,10.2715,10.5471,10.7567,10.8813,10.6578,10.3093,9.8199,0.0,0.0,0.0,0.0,0.0,0.0,0.0,0.0,0.0,0.0,0.0,0.0,0.0,0.0]}],[{"header":{"parameterUnit":"kt","parameterCategory":2,"dx":1,"dy":1,"la1":29.285339999999998,"la2":30.599998999999997,"lo1":-89.70041500000002,"lo2":-87.6738589999976,"nx":112,"ny":82,"refTime":"2022-09-25T06:00:00:Z","depth":0,"parameterNumber":2,"parameterNumberName":"V-component_of_WINDS"},"data":[9.8884,10.0277,10.1154,10.4702,10.5016,10.4196,10.3201,10.2774,10.2871,10.3912,10.4058,10.4888,10.7865,10.6533,10.5229,0.0,0.0,0.0,0.0,10.2853,10.357,10.4336,10.79,11.1025,11.2892,11.4247,11.7714,12.4305,12.4109,12.6355,13.2513,13.3153,13.3836,13.4865,13.4914,13.4914,13.4914,13.4914,13.4914,13.4914,13.4914,13.5885,13.7682,13.8024,13.9151,14.0764,14.1155,14.135,14.135,14.135,14.135,14.135,14.135,14.135,14.135,14.135,14.135,14.135,14.135,14.135,14.135,14.135,14.135,14.135,14.135,14.135,14.1399,14.1838,14.1643,14.1399,14.1838,14.1643,14.135,14.135,14.135,14.135,14.135,14.135,14.135,14.135,14.135,14.135,14.135,14.135,14.135,14.135,14.135,14.135,14.135,14.135,14.135,14.135,14.135,14.135,14.135,14.135,14.135,14.135,14.135,14.135,14.135,14.135,14.135,14.135,14.135,14.135,14.135,14.135,14.135,14.135,14.135,14.135,9.5225,9.6193,9.6933,9.9901,10.0031,9.9595,10.0076,10.0202,10.0544,10.1585,10.2609,10.3683,10.4741,10.4644,0.0,0.0,0.0,0.0,0.0,10.3619,10.5556,10.7021,11.094,11.3868,11.4649,11.6639,11.9959,12.4988,12.5037,12.7381,13.3055,13.369,13.4183,13.4865,13.4914,13.4914,13.4914,13.4914,13.4914,13.4914,13.53,13.6271,13.7682,13.8415,13.9492,14.0813,14.1155,14.135,14.135,14.135,14.135,14.135,14.135,14.135,14.135,14.135,14.135,14.135,14.135,14.135,14.135,14.135,14.135,14.135,14.135,14.135,14.135,14.135,14.135,14.135,14.135,14.135,14.135,14.135,14.135,14.135,14.135,14.135,14.135,14.135,14.135,14.135,14.135,14.135,14.135,14.135,14.135,14.135,14.135,14.135,14.135,14.135,14.135,14.135,14.135,14.135,14.135,14.135,14.135,14.135,14.135,14.135,14.135,14.135,14.135,14.135,14.135,14.135,14.135,14.135,14.135,14.135,9.0294,8.9813,9.0442,9.2757,9.3251,9.4031,9.7319,9.9568,10.1339,10.2527,10.3536,10.4546,10.5835,10.5117,0.0,0.0,0.0,0.0,0.0,10.3686,10.7216,10.9329,11.3234,11.665,11.8885,11.7225,11.8641,12.5127,12.4598,12.6754,13.3055,13.4329,13.4914,13.4914,13.4914,13.4914,13.4914,13.4914,13.4914,13.4914,13.612,13.6701,13.6799,13.8809,13.9785,13.9883,14.0862,14.135,14.135,14.135,14.135,14.135,14.135,14.135,14.135,14.135,14.135,14.135,14.135,14.135,14.135,14.135,14.135,14.135,14.135,14.135,14.135,14.135,14.135,14.135,14.135,14.135,14.135,14.135,14.135,14.135,14.135,14.135,14.135,14.135,14.135,14.135,14.135,14.135,14.135,14.135,14.135,14.135,14.135,14.135,14.135,14.135,14.135,14.135,14.135,14.135,14.135,14.135,14.135,14.135,14.135,14.135,14.135,14.135,14.135,14.135,14.135,14.135,14.135,14.135,14.135,14.135,8.6513,8.6674,8.8387,9.3359,9.2348,9.1794,9.784,9.6885,9.601,10.075,10.0657,0.0,0.0,0.0,10.3243,10.3131,0.0,10.8304,10.4907,10.9365,11.3856,11.6054,11.7334,11.9227,12.2205,12.2645,12.4744,12.9633,12.8267,12.9347,13.4183,13.4719,13.4914,13.4914,13.4914,13.4914,13.4914,13.4914,13.4914,13.4914,13.612,13.6999,13.7829,13.9151,14.0179,14.0911,14.1203,14.135,14.135,14.135,14.135,14.135,14.135,14.135,14.135,14.135,14.135,14.135,14.135,14.135,14.135,14.135,14.135,14.135,14.135,14.135,14.135,14.135,14.135,14.135,14.135,14.135,14.135,14.135,14.135,14.135,14.135,14.135,14.135,14.135,14.135,14.135,14.135,14.135,14.135,14.135,14.135,14.135,14.135,14.135,14.135,14.135,14.135,14.135,14.135,14.135,14.135,14.135,14.135,14.135,14.135,14.135,14.135,14.135,14.135,14.135,14.135,14.135,14.135,14.135,14.135,14.135,8.5186,8.5142,8.6577,9.0848,9.0761,9.0795,9.5484,9.5216,9.5216,9.9712,0.0,0.0,0.0,0.0,0.0,0.0,10.7572,11.0452,10.7216,11.2734,11.7675,11.9384,12.158,12.3337,12.4402,12.4988,12.7136,13.1488,12.9689,13.0372,13.467,13.4914,13.4914,13.4914,13.4914,13.4914,13.4914,13.4914,13.4914,13.4914,13.6515,13.7389,13.7634,13.9541,14.0472,14.0667,14.1155,14.135,14.135,14.135,14.135,14.135,14.135,14.135,14.135,14.135,14.135,14.135,14.135,14.135,14.135,14.135,14.135,14.135,14.135,14.135,14.135,14.135,14.135,14.135,14.135,14.135,14.135,14.135,14.135,14.135,14.135,14.135,14.135,14.135,14.135,14.135,14.135,14.135,14.135,14.135,14.135,14.135,14.135,14.135,14.135,14.135,14.135,14.135,14.135,14.135,14.135,14.135,14.135,14.135,14.135,14.135,14.135,14.135,14.135,14.135,14.135,14.135,14.135,14.135,14.135,14.135,8.4901,8.4257,8.487,8.717,8.8528,9.0023,9.2652,0.0,9.7158,10.0519,0.0,10.2643,10.4024,0.0,0.0,10.2139,10.8499,11.2697,10.9427,11.537,12.036,12.1336,12.5631,12.7778,12.5916,12.5721,12.7429,13.1488,13.0219,13.086,13.4719,13.4914,13.4914,13.4914,13.4914,13.4914,13.4914,13.4914,13.4914,13.4914,13.715,13.7731,13.6901,13.9935,14.0813,14.0029,14.0911,14.135,14.135,14.135,14.135,14.135,14.135,14.135,14.135,14.135,14.135,14.135,14.135,14.135,14.135,14.135,14.135,14.135,14.135,14.135,14.135,14.135,14.135,14.135,14.135,14.135,14.135,14.135,14.135,14.135,14.135,14.135,14.135,14.135,14.135,14.135,14.135,14.135,14.135,14.135,14.135,14.135,14.135,14.135,14.135,14.135,14.135,14.135,14.135,14.135,14.135,14.135,14.135,14.135,14.135,14.135,14.135,14.135,14.135,14.135,14.135,14.135,14.135,14.135,14.135,14.135,8.1235,8.1033,8.2698,8.7021,8.5388,8.5724,0.0,0.0,0.0,10.7993,10.8841,10.8841,11.2502,11.2697,11.2563,11.3673,11.8261,12.0506,11.7274,12.2458,12.6754,12.6949,12.7876,12.8364,12.7925,12.7876,12.8999,13.1585,13.2958,13.4036,13.4865,13.4914,13.4914,13.4914,13.4914,13.4914,13.4914,13.4914,13.4914,13.4914,13.715,13.8122,13.7975,14.0276,14.1203,14.1008,14.1252,14.135,14.135,14.135,14.135,14.135,14.135,14.135,14.135,14.135,14.135,14.135,14.135,14.135,14.135,14.135,14.135,14.135,14.135,14.135,14.135,14.135,14.135,14.135,14.135,14.135,14.135,14.135,14.135,14.135,14.135,14.135,14.135,14.135,14.135,14.135,14.135,14.135,14.135,14.135,14.135,14.135,14.135,14.135,14.135,14.135,14.135,14.135,14.135,14.135,14.135,14.135,14.135,14.135,14.135,14.135,14.135,14.135,14.135,14.135,14.135,14.135,14.135,14.135,14.135,14.135,7.9308,7.9147,8.0208,8.3149,8.2675,0.0,0.0,9.1906,9.4058,10.4771,10.6107,10.729,11.3669,11.4893,11.5393,11.6954,12.0945,12.3776,12.3727,12.6509,12.8469,12.8469,12.8469,12.8469,12.8469,12.8469,12.9194,13.0853,13.2909,13.4329,13.4865,13.4914,13.4914,13.4914,13.4914,13.4914,13.4914,13.4914,13.4914,13.4914,13.715,13.8219,13.8317,14.0374,14.135,14.135,14.135,14.135,14.135,14.135,14.135,14.135,14.135,14.135,14.135,14.135,14.135,14.135,14.135,14.135,14.135,14.135,14.135,14.135,14.135,14.135,14.135,14.135,14.135,14.135,14.135,14.135,14.135,14.135,14.135,14.135,14.135,14.135,14.135,14.135,14.135,14.135,14.135,14.135,14.135,14.135,14.135,14.135,14.135,14.135,14.135,14.135,14.135,14.135,14.135,14.135,14.135,14.135,14.135,14.135,14.135,14.135,14.135,14.135,14.135,14.135,14.135,14.135,14.135,14.135,14.135,14.135,7.7624,7.759,7.8187,7.9463,8.0626,0.0,8.5812,8.7971,9.187,10.1419,10.394,10.6675,11.3912,11.6535,11.7968,11.9198,12.241,12.5631,12.8169,12.8469,12.8469,12.8469,12.8469,12.8608,12.8803,12.8657,12.9145,13.0749,13.222,13.3592,13.4817,13.4914,13.4914,13.4914,13.4914,13.4914,13.4914,13.4914,13.5012,13.53,13.7247,13.8272,13.8565,14.0472,14.135,14.135,14.135,14.135,14.135,14.135,14.135,14.135,14.135,14.135,14.135,14.135,14.135,14.135,14.135,14.135,14.135,14.135,14.135,14.135,14.135,14.135,14.135,14.135,14.135,14.135,14.135,14.135,14.135,14.135,14.135,14.135,14.135,14.135,14.135,14.135,14.135,14.135,14.135,14.135,14.135,14.135,14.135,14.135,14.135,14.135,14.135,14.135,14.135,14.135,14.135,14.135,14.135,14.135,14.135,14.135,14.135,14.135,14.135,14.135,14.135,14.135,14.135,14.135,14.135,14.135,14.135,14.135,7.4882,7.5774,7.751,8.0067,7.963,0.0,9.3825,9.5529,9.7559,10.8113,11.2866,11.6003,11.8761,12.2041,12.4939,12.6949,12.7681,12.812,12.842,12.8469,12.8469,12.8469,12.8469,12.8901,12.9968,12.9096,12.978,13.2762,13.2366,13.2811,13.4817,13.4914,13.4914,13.4914,13.4914,13.4914,13.4914,13.4914,13.5446,13.6462,13.7634,13.8663,13.9639,14.0764,14.135,14.135,14.135,14.135,14.135,14.135,14.135,14.135,14.135,14.135,14.135,14.135,14.135,14.135,14.135,14.135,14.135,14.135,14.135,14.135,14.135,14.135,14.135,14.135,14.135,14.135,14.135,14.135,14.135,14.135,14.135,14.135,14.135,14.135,14.135,14.135,14.135,14.135,14.135,14.135,14.135,14.135,14.135,14.135,14.135,14.135,14.135,14.135,14.135,14.135,14.135,14.135,14.135,14.135,14.135,14.135,14.135,14.135,14.135,14.135,14.135,14.135,14.135,14.135,14.135,14.135,14.135,14.135,7.3393,7.4688,7.6505,7.8739,0.0,0.0,8.9617,9.2111,9.5539,10.4192,10.9302,11.386,11.9004,12.3426,12.6795,12.8267,12.8469,12.8469,12.8469,12.8469,12.8469,12.8469,12.8469,12.8706,12.9145,12.8803,12.9633,13.2226,13.2025,13.2714,13.4768,13.4914,13.4914,13.4914,13.4914,13.4914,13.4914,13.4914,13.5153,13.5685,13.7345,13.8464,13.8907,14.0569,14.135,14.135,14.135,14.135,14.135,14.135,14.135,14.135,14.135,14.135,14.135,14.135,14.135,14.135,14.135,14.135,14.135,14.135,14.135,14.135,14.135,14.135,14.135,14.135,14.135,14.135,14.135,14.135,14.135,14.135,14.135,14.135,14.135,14.135,14.135,14.135,14.135,14.135,14.135,14.135,14.135,14.135,14.135,14.135,14.135,14.135,14.135,14.135,14.135,14.135,14.135,14.135,14.135,14.135,14.135,14.135,14.135,14.135,14.135,14.135,14.135,14.135,14.135,14.135,14.135,14.135,14.135,14.135,7.2629,0.0,0.0,0.0,0.0,0.0,8.82,9.0655,9.3921,10.0376,10.5974,11.1485,11.7364,12.2858,12.6611,12.6879,12.7793,12.8469,12.8469,12.8469,12.8469,12.8469,12.8469,12.8713,12.934,12.8852,12.9682,13.2421,13.2122,13.2714,13.4768,13.4914,13.4914,13.4914,13.4914,13.4914,13.4914,13.4914,13.5061,13.5397,13.7003,13.8073,13.8663,14.0179,14.1057,14.135,14.135,14.1155,14.0911,14.1203,14.135,14.135,14.135,14.135,14.135,14.135,14.135,14.135,14.135,14.135,14.135,14.135,14.135,14.135,14.135,14.135,14.135,14.135,14.135,14.135,14.135,14.135,14.135,14.135,14.135,14.135,14.135,14.135,14.135,14.135,14.135,14.135,14.135,14.135,14.135,14.135,14.135,14.135,14.135,14.135,14.135,14.135,14.135,14.135,14.135,14.135,14.135,14.135,14.135,14.135,14.135,14.135,14.135,14.135,14.135,14.135,14.135,14.135,14.135,14.135,14.135,14.135,0.0,0.0,0.0,8.3255,8.3979,8.5668,9.452,9.5163,9.5285,9.9799,10.6366,11.2019,11.4418,12.066,12.4864,12.3299,12.6103,12.8469,12.8469,12.8469,12.8469,12.8469,12.8469,12.9298,13.1488,12.978,13.0225,13.4475,13.2909,13.2714,13.4768,13.4914,13.4914,13.4914,13.4914,13.4914,13.4914,13.4914,13.5446,13.6604,13.6701,13.778,13.9736,13.9785,14.0371,14.135,14.135,14.0716,13.9883,14.0911,14.135,14.135,14.135,14.135,14.135,14.135,14.135,14.135,14.135,14.135,14.135,14.135,14.135,14.135,14.135,14.135,14.135,14.135,14.135,14.135,14.135,14.135,14.135,14.135,14.135,14.135,14.135,14.135,14.135,14.135,14.135,14.135,14.135,14.135,14.135,14.135,14.135,14.135,14.135,14.135,14.135,14.135,14.135,14.135,14.135,14.135,14.135,14.135,14.135,14.135,14.135,14.135,14.135,14.135,14.135,14.135,14.135,14.135,14.135,14.135,14.135,14.135,7.4769,7.79,8.1396,8.5545,8.8522,9.1459,9.5083,9.6773,9.8139,10.0272,10.5104,10.9327,11.0668,11.6866,12.1989,12.274,12.6013,12.8469,12.8469,12.8469,12.8469,12.8469,12.8469,12.9096,13.0603,13.0115,13.0512,13.2665,13.2811,13.3104,13.3836,13.4524,13.4914,13.4914,13.4914,13.4914,13.4914,13.4914,13.5061,13.5495,13.6266,13.6999,13.7731,13.8415,13.8907,13.9297,13.998,14.0127,13.9834,14.0862,14.135,14.135,14.135,14.135,14.135,14.135,14.135,14.135,14.135,14.135,14.135,14.135,14.135,14.135,14.135,14.135,14.135,14.135,14.135,14.135,14.135,14.135,14.135,14.135,14.135,14.135,14.135,14.135,14.135,14.135,14.135,14.135,14.135,14.135,14.135,14.135,14.135,14.135,14.135,14.135,14.135,14.135,14.135,14.135,14.135,14.135,14.135,14.135,14.135,14.135,14.135,14.135,14.135,14.135,14.135,14.096,14.0276,14.0276,14.0618,14.135,14.135,14.096,7.6619,8.0153,8.365,8.7838,9.15,9.4478,9.6008,9.7656,9.9182,10.0433,10.4104,10.7555,10.8831,11.2882,11.6649,11.8552,12.3111,12.6483,12.6483,12.7625,12.8469,12.8469,12.8469,12.9096,13.0652,13.0456,13.0951,13.2762,13.3153,13.3494,13.3885,13.4524,13.4914,13.4914,13.4914,13.4914,13.4914,13.4914,13.4914,13.4914,13.5685,13.6266,13.6701,13.7341,13.7878,13.8219,13.8561,13.8659,13.8711,13.9785,14.0423,14.0764,14.0764,14.1008,14.135,14.135,14.135,14.135,14.135,14.135,14.135,14.135,14.135,14.135,14.135,14.135,14.135,14.135,14.135,14.135,14.135,14.135,14.135,14.135,14.135,14.135,14.135,14.135,14.135,14.135,14.135,14.135,14.135,14.135,14.135,14.135,14.135,14.135,14.135,14.135,14.135,14.135,14.0008,13.9175,13.9175,13.9175,13.9175,13.9175,14.0518,14.135,14.135,14.135,14.1155,14.0764,14.0764,14.0423,13.9785,13.9395,13.9541,14.0224,14.0224,13.9834,7.8256,8.1762,8.5105,9.0294,9.2948,9.4921,9.7332,9.7935,9.8458,10.0272,10.339,10.6444,10.831,10.8912,10.9595,11.1248,11.7904,12.2854,12.2854,12.6103,12.8469,12.8469,12.8469,12.934,13.1488,13.0896,13.1537,13.4524,13.3933,13.3836,13.4768,13.4865,13.4914,13.4914,13.4914,13.4914,13.4914,13.4914,13.4914,13.4914,13.4914,13.5495,13.6555,13.6555,13.7096,13.793,13.7092,13.6653,13.675,13.778,13.876,13.9688,13.9688,14.0325,14.1252,14.1252,14.1301,14.135,14.135,14.135,14.135,14.135,14.135,14.135,14.135,14.135,14.135,14.135,14.135,14.135,14.135,14.135,14.135,14.135,14.135,14.135,14.135,14.135,14.135,14.135,14.135,14.135,14.135,14.135,14.135,14.135,14.135,14.135,14.135,14.135,14.1209,14.1025,13.759,13.5195,13.4959,13.4959,13.4959,13.4959,13.8755,14.0979,14.0882,14.1114,14.0764,13.9785,13.9506,13.923,13.8999,13.8027,13.7725,13.7954,13.7774,13.7774,8.0877,8.6792,9.1017,9.3754,9.5685,9.7012,9.7095,9.7536,9.8297,9.9467,10.0933,10.2446,10.3634,10.6725,10.9383,11.0397,11.7455,12.2854,12.2854,12.6103,12.8469,12.8469,12.8469,12.9047,13.0505,13.1049,13.1732,13.2562,13.3787,13.428,13.3787,13.4475,13.4914,13.4914,13.4914,13.4914,13.4914,13.4914,13.4914,13.4914,13.4914,13.5061,13.5348,13.5348,13.5495,13.5788,13.6413,13.6653,13.675,13.778,13.8366,13.8565,13.8565,13.9248,14.013,14.013,14.0667,14.135,14.135,14.135,14.135,14.135,14.135,14.135,14.135,14.135,14.135,14.135,14.135,14.135,14.135,14.135,14.135,14.135,14.135,14.135,14.135,14.135,14.135,14.135,14.135,14.135,14.135,14.135,14.135,14.135,14.135,14.135,14.135,14.135,14.0195,13.7122,13.5902,13.406,13.0913,13.0625,13.0625,13.0625,13.4533,13.6416,13.5566,13.8478,14.0029,13.9785,13.6038,13.2294,12.864,12.905,13.1231,13.4948,13.1832,13.1926,7.9791,8.7154,9.315,9.5003,9.6691,9.7734,9.6974,9.7739,9.87,9.9226,9.9749,10.0513,10.1845,10.4189,10.6352,10.7549,11.31,11.8023,12.0086,12.3628,12.661,12.8302,12.8469,12.895,13.0115,13.1146,13.1976,13.2421,13.3982,13.4622,13.408,13.4573,13.4914,13.4914,13.4914,13.4914,13.4914,13.4914,13.4914,13.4914,13.4914,13.4914,13.4914,13.4914,13.4914,13.4914,13.5592,13.5881,13.5929,13.6515,13.7052,13.7536,13.7536,13.8171,13.9053,13.9053,13.9736,14.0618,14.0618,14.0911,14.135,14.135,14.135,14.135,14.135,14.135,14.135,14.135,14.135,14.135,14.135,14.135,14.135,14.135,14.135,14.135,14.135,14.135,14.135,14.135,14.135,14.135,14.135,14.135,14.135,14.135,13.9777,13.8662,13.8662,13.7075,13.5054,13.2825,13.091,12.8884,12.6547,12.6302,12.6302,12.6302,13.0285,13.3072,13.4307,13.6548,13.7369,13.6456,13.1742,12.8206,12.5905,12.5944,12.7484,13.029,12.7932,12.7804,7.8262,8.5743,9.2909,9.5042,9.6771,9.7817,9.7095,9.8021,9.9065,9.9306,9.9547,10.0151,10.16,10.1962,10.2565,10.4169,10.7673,11.1861,11.654,12.0479,12.4268,12.8051,12.8469,12.8901,12.9919,13.1049,13.2171,13.3055,13.4275,13.4914,13.4914,13.4914,13.4914,13.4914,13.4914,13.4914,13.4914,13.4914,13.4914,13.4914,13.4914,13.4914,13.4914,13.4914,13.4914,13.4914,13.4914,13.4914,13.4914,13.4914,13.5495,13.6413,13.6604,13.7292,13.8219,13.8366,13.9053,13.998,13.998,14.0569,14.1301,14.1155,14.1106,14.1106,14.1106,14.1106,14.1155,14.1301,14.135,14.135,14.135,14.135,14.135,14.135,14.135,14.135,14.135,14.135,14.135,14.135,14.135,14.135,14.135,14.135,14.1117,14.0611,13.7496,13.5101,13.4533,13.1297,12.8839,12.8306,12.502,12.2589,12.2084,12.2034,12.2034,12.2034,12.591,12.9809,13.3259,13.3923,13.3135,13.0768,12.7113,12.5329,12.551,12.471,12.4601,12.4992,12.4421,12.4076,8.3895,8.8122,9.146,9.5525,9.7254,9.7935,9.7775,9.7498,9.7618,9.9065,10.0553,10.1439,10.0996,10.1519,10.2409,10.345,10.7345,11.1861,11.654,12.0479,12.4268,12.8051,12.8469,12.8566,12.8803,13.0609,13.1878,13.2025,13.3836,13.4914,13.4914,13.4914,13.4914,13.4914,13.4914,13.4914,13.4914,13.4914,13.4914,13.4914,13.4914,13.4914,13.4914,13.4914,13.4914,13.4914,13.4914,13.4914,13.4914,13.4914,13.5012,13.53,13.6266,13.7292,13.8272,13.9151,14.013,14.1057,14.1057,14.1155,14.1203,14.0276,14.0029,14.0029,14.0029,14.0029,14.0179,14.1057,14.135,14.135,14.135,14.135,14.135,14.135,14.135,14.135,14.135,14.135,14.135,14.135,14.135,14.135,14.135,14.135,14.0195,13.6841,13.576,13.406,13.0577,12.9516,12.7722,12.428,12.3284,12.1435,11.7989,11.7685,11.7685,11.7685,12.1635,12.3789,12.356,12.6818,12.7022,12.3431,12.2604,12.0248,11.6206,11.6821,11.8437,12.1009,11.7541,11.7703,8.3288,8.7317,9.0897,9.4478,9.6691,9.7898,9.7498,9.8142,9.9068,9.9869,10.0755,10.1197,10.0795,10.1439,10.2163,10.265,10.4944,10.8282,11.292,11.7196,12.1301,12.5124,12.7289,12.8469,12.8469,13.0512,13.1781,13.1781,13.3738,13.4914,13.4914,13.4914,13.4914,13.4914,13.4914,13.4914,13.4914,13.4914,13.4914,13.4914,13.4914,13.4914,13.4914,13.4914,13.4914,13.4914,13.4914,13.4914,13.4914,13.4914,13.4914,13.4963,13.5495,13.6417,13.7438,13.7975,13.9151,14.0472,14.0472,14.0862,14.1252,14.0716,14.0569,14.0569,14.0569,14.0569,14.0667,14.1203,14.135,14.135,14.135,14.135,14.135,14.135,14.135,14.135,14.135,14.135,14.135,14.135,14.135,14.135,14.135,14.135,13.9916,13.5902,13.1582,12.8058,12.6057,12.3934,12.1842,11.9824,11.9572,11.8807,11.6812,11.6608,11.6608,11.6608,11.8504,12.0318,12.1953,12.1862,12.0863,11.8961,11.8507,11.7049,11.4636,11.4596,11.536,11.6846,11.4855,11.4719,8.2241,8.635,9.0495,9.3593,9.5807,9.7214,9.7538,9.9068,10.0392,10.0392,10.0392,10.0473,10.0674,10.1278,10.1801,10.2002,10.2807,10.5009,10.9562,11.4245,11.865,12.2424,12.6188,12.8176,12.7373,12.9996,13.1481,13.0659,13.2512,13.403,13.487,13.4118,13.403,13.4914,13.4914,13.4914,13.4914,13.4914,13.4914,13.4914,13.4914,13.4914,13.4914,13.4914,13.4914,13.4914,13.4914,13.4914,13.4914,13.4914,13.4914,13.4914,13.5202,13.5832,13.6701,13.719,13.8219,13.9444,13.9688,14.0322,14.096,14.0716,14.0813,14.096,14.096,14.096,14.1008,14.1252,14.135,14.135,14.135,14.135,14.135,14.135,14.135,14.135,14.135,14.135,14.135,14.135,14.135,14.1025,14.0195,14.0749,13.9638,13.4723,12.762,12.249,12.1635,11.8656,11.6608,11.6608,11.6608,11.6608,11.6608,11.6608,11.6608,11.6608,11.6608,11.8141,12.1385,11.8353,11.6608,11.6608,11.5723,11.528,11.528,11.4355,11.3832,11.3631,11.3631,11.3098,8.4821,8.7315,8.997,9.4237,9.4881,9.5485,9.9427,9.9869,9.9424,9.9424,9.9424,9.9665,10.0553,10.0755,10.1076,10.1921,10.2807,10.5009,10.9562,11.4245,11.865,12.2424,12.6188,12.7163,12.3714,12.8497,13.04,12.6954,12.8529,13.1136,13.4739,13.154,13.1228,13.4826,13.4914,13.4914,13.4914,13.4914,13.4914,13.4914,13.4914,13.4914,13.4914,13.4914,13.4914,13.4914,13.4914,13.4914,13.4914,13.4914,13.4914,13.5012,13.6027,13.6555,13.6897,13.876,13.9004,13.8467,13.9444,13.9834,13.9736,13.876,13.9102,13.9932,13.9932,13.9932,14.0081,14.1057,14.135,14.135,14.135,14.135,14.135,14.135,14.135,14.135,14.135,14.135,14.135,14.135,14.135,14.0149,13.6466,13.8896,13.8662,13.0817,12.5763,12.1485,11.7685,11.6862,11.6608,11.6608,11.6608,11.6608,11.6608,11.6608,11.6608,11.6608,11.6608,11.6812,11.7167,11.6812,11.6608,11.6608,11.5723,11.528,11.528,11.4355,11.346,11.2656,11.2656,11.2173,8.0118,8.3774,8.7597,8.9406,9.2385,9.5485,9.782,9.8421,9.882,9.995,10.0594,10.0915,10.0714,10.1117,10.1439,10.1237,10.2002,10.3385,10.581,11.0093,11.3758,11.5834,12.1387,12.3628,11.9828,12.4724,12.66,12.2793,12.4346,12.7215,13.1136,12.9928,13.0868,13.4783,13.4914,13.4914,13.4914,13.4914,13.4914,13.4914,13.4914,13.4914,13.4914,13.4914,13.4914,13.4914,13.4914,13.4914,13.4914,13.4914,13.4914,13.4914,13.5397,13.6027,13.675,13.7585,13.8024,13.8268,13.8663,13.8809,13.8711,13.8366,13.8907,13.9785,13.9785,14.0224,14.0764,14.1203,14.135,14.135,14.135,14.135,14.135,14.135,14.135,14.135,14.135,14.135,14.135,14.135,14.135,14.0008,13.5996,13.6607,13.4864,12.6547,12.3928,12.1335,11.7167,11.6608,11.6608,11.6608,11.6608,11.6608,11.6608,11.6608,11.6608,11.6608,11.6608,11.6367,11.5844,11.6326,11.6367,11.5803,11.4918,11.4194,11.3631,11.2745,11.2053,11.1731,11.1731,11.153,7.6786,8.0601,8.474,8.5505,8.9648,9.3834,9.5285,9.5805,9.6729,9.9346,10.0594,10.0956,10.007,10.0835,10.1358,10.0433,10.1278,10.2364,10.3249,10.7352,11.0522,11.1458,11.7246,11.9697,11.5922,12.0767,12.2526,11.8789,12.0229,12.3091,12.7079,12.6168,12.7942,13.301,13.3187,13.3765,13.4914,13.4914,13.4914,13.4914,13.4914,13.4294,13.3187,13.4382,13.425,13.3231,13.4382,13.4914,13.4914,13.4914,13.4914,13.4914,13.4914,13.5397,13.6169,13.6511,13.6901,13.7296,13.7634,13.7731,13.7731,13.7731,13.8464,13.9346,13.9688,14.0276,14.0911,14.1252,14.135,14.135,14.135,14.135,14.135,14.135,14.135,14.135,14.135,14.135,14.135,14.135,14.038,13.8243,13.4154,13.3444,13.0622,12.2283,12.2084,12.1335,11.7167,11.6608,11.6608,11.6608,11.6608,11.6608,11.6608,11.6608,11.6487,11.6246,11.6447,11.6085,11.4918,11.5481,11.5522,11.4878,11.3993,11.3179,11.2535,11.165,11.1208,11.1208,11.1208,11.1208,7.6786,7.8825,8.1516,8.4136,8.6832,8.9567,9.2184,9.2063,9.2707,9.7091,9.87,9.9062,9.8177,9.9507,10.0392,9.9464,10.0875,10.2364,10.3249,10.7352,11.0522,11.1458,11.4946,11.5745,11.2036,11.6832,11.8609,11.485,11.6223,11.8984,12.2906,11.9411,12.0955,12.8891,12.9116,13.0958,13.487,13.4914,13.4914,13.4914,13.4914,13.2877,12.9251,13.3143,13.2788,12.9341,13.3231,13.4914,13.4914,13.4914,13.4914,13.4914,13.4914,13.4914,13.5061,13.6218,13.5929,13.5061,13.6266,13.6701,13.6701,13.6701,13.7341,13.8415,13.9444,13.9785,14.0029,14.1008,14.135,14.135,14.135,14.135,14.135,14.135,14.135,14.135,14.135,14.135,14.135,14.135,13.8104,13.406,12.9854,12.913,12.6302,11.7989,12.0225,12.1335,11.7167,11.6608,11.6608,11.6608,11.6608,11.6608,11.6608,11.6608,11.6246,11.5361,11.6125,11.5803,11.4033,11.3952,11.3952,11.3952,11.3018,11.2535,11.2535,11.165,11.1208,11.1208,11.1208,11.1208,7.3924,7.741,8.123,8.2643,8.5502,8.8402,9.0414,9.2103,9.3954,9.6612,9.7817,9.8498,9.8863,9.991,10.0594,10.0312,10.0755,10.1439,10.2324,10.4247,10.5823,10.6724,11.0663,11.1856,10.8114,11.223,11.3892,11.0743,11.1609,11.4276,11.88,11.79,11.9552,12.4796,12.4933,12.6897,13.0868,13.0913,13.2252,13.487,12.9386,12.6122,12.4979,12.6214,12.7624,12.8981,12.7488,12.8348,13.0913,13.0913,13.0913,13.1184,13.3854,13.4914,13.4914,13.53,13.5251,13.4963,13.5348,13.5446,13.5446,13.5446,13.6222,13.7194,13.7536,13.8122,13.876,13.9102,13.9736,14.0228,14.0228,14.0228,14.0423,14.1155,14.135,14.135,14.135,14.135,14.135,14.135,13.8057,13.3965,12.9806,12.6693,12.2937,11.7431,11.7736,11.8141,11.6812,11.6608,11.6608,11.6608,11.6608,11.6367,11.5763,11.5683,11.532,11.4395,11.4636,11.4234,11.3018,11.359,11.3631,11.2978,11.2696,11.2213,11.161,11.1329,11.1208,11.1208,11.1208,11.1208,7.3844,7.729,8.0746,8.2281,8.4297,8.6591,8.9007,9.0333,9.1862,9.4721,9.5604,9.6489,9.8059,9.9346,10.0191,10.0191,10.0473,10.0996,10.1921,10.2852,10.3692,10.4486,10.7448,10.8531,10.617,10.8895,11.0052,10.8273,10.9292,11.1329,11.4353,11.4781,11.6758,12.0722,12.0862,12.2768,12.6761,12.6806,12.8031,13.0329,12.5437,12.2304,12.0909,12.2353,12.3599,12.452,12.3507,12.4474,12.6806,12.6806,12.6806,12.7034,12.9476,13.1315,13.27,13.27,13.3677,13.4914,13.4914,13.4914,13.4914,13.4914,13.5397,13.6027,13.6511,13.7096,13.7682,13.8122,13.8663,13.9053,13.8663,13.9151,13.9886,14.0569,14.1057,14.135,14.135,14.135,14.135,14.135,13.6794,13.2157,12.9516,12.433,11.9664,11.7015,11.6608,11.6608,11.6608,11.6608,11.6608,11.6608,11.6608,11.6246,11.5361,11.4958,11.4395,11.342,11.3058,11.2616,11.2053,11.2575,11.2575,11.2053,11.2012,11.1771,11.1208,11.1208,11.1208,11.1208,11.1208,11.1208,7.55,7.794,8.0107,8.2571,8.3376,8.4502,8.8038,8.7476,8.7396,9.154,9.2546,9.3392,9.5969,9.7817,9.9105,9.9263,10.0111,10.0996,10.1921,10.2892,10.3772,10.4486,10.537,10.5933,10.5933,10.671,10.7193,10.732,10.893,10.9936,11.0017,11.0774,11.2917,11.6663,11.6806,11.8655,12.2538,12.2584,12.2445,12.2211,12.2211,12.0301,11.6901,12.0535,12.0348,11.7422,12.0769,12.2397,12.2584,12.2584,12.2584,12.2675,12.2908,12.5346,12.8665,12.8665,13.1091,13.447,13.447,13.447,13.4514,13.4826,13.4739,13.4753,13.6129,13.6511,13.6706,13.7731,13.7751,13.7377,13.6452,13.7444,13.8814,13.9136,13.9914,14.0644,14.0644,14.0741,14.0649,14.0373,13.3968,12.8556,12.8556,12.1773,11.6447,11.6487,11.6447,11.6447,11.6538,11.6528,11.6487,11.6447,11.6487,11.6165,11.524,11.4355,11.342,11.2495,11.165,11.1208,11.1208,11.1208,11.1208,11.1208,11.1208,11.1208,11.1208,11.1208,11.1208,11.1208,11.1208,11.1208,7.2356,7.6049,7.9785,8.1114,8.3489,8.6068,8.8319,8.7959,8.7637,8.9406,9.0776,9.1862,9.2506,9.4679,9.7015,9.9024,10.0111,10.0996,10.1921,10.3325,10.4365,10.4566,10.537,10.5933,10.5933,10.614,10.6542,10.728,10.8326,10.9252,10.9977,11.0774,11.1604,11.2531,11.258,11.451,11.8561,11.8608,11.7001,11.3983,11.3983,11.3454,11.2628,11.3502,11.5139,11.7138,11.4941,11.5711,11.8608,11.8608,11.8608,11.889,12.1886,12.3646,12.4474,12.4474,12.6988,13.0421,13.0421,13.0421,13.0913,13.3942,13.2877,13.105,13.4321,13.53,13.5348,13.5641,13.3509,13.1361,13.1928,13.0163,12.9242,13.3033,13.4147,13.4289,13.4289,13.4858,13.4447,13.1489,12.6762,12.3255,12.3255,11.8416,11.4797,11.5481,11.4999,11.4797,11.5481,11.5602,11.532,11.4636,11.516,11.52,11.4315,11.338,11.2455,11.157,11.1329,11.1208,11.1208,11.1208,11.1208,11.1208,11.1208,11.1208,11.1208,11.1208,11.1208,11.1208,11.1208,11.1208,7.2878,7.6652,7.9981,7.9187,8.136,8.4093,8.5461,8.5381,8.5421,8.6671,8.7679,8.8807,9.0415,9.1943,9.4075,9.7618,9.9226,10.0392,10.1278,10.2605,10.3727,10.4486,10.5008,10.5658,10.6462,10.618,10.614,10.6669,10.7877,10.885,10.9333,11.0532,11.1208,11.1208,11.1208,11.2234,11.4415,11.4463,11.3351,11.1208,11.1208,11.1208,11.1208,11.1208,11.2379,11.4319,11.2137,11.2427,11.4463,11.4463,11.4463,11.4654,11.6763,11.7616,11.7853,11.9693,12.1747,12.3876,12.5666,12.6351,12.6943,13.0913,13.0779,12.9838,13.3721,13.4914,13.4914,13.4914,13.2075,12.8805,12.7449,12.7311,12.7721,12.8595,12.9146,12.9513,12.9513,12.9879,12.9633,12.746,12.3723,12.0897,12.0897,11.7029,11.4113,11.4556,11.4234,11.4113,11.4596,11.4636,11.4475,11.3993,11.4355,11.4274,11.334,11.2817,11.2173,11.1248,11.1208,11.1208,11.1208,11.1208,11.1208,11.1208,11.1208,11.1208,11.1208,11.1208,11.1208,11.1208,11.1208,11.1208,7.4213,7.7544,7.9987,7.8107,7.9348,8.1351,8.2398,8.2398,8.2639,8.4056,8.4458,8.5507,8.8606,8.9531,9.1178,9.5284,9.7538,9.9185,10.0513,10.16,10.2847,10.4365,10.4566,10.5255,10.6911,10.6382,10.5933,10.5933,10.7635,10.8648,10.8648,11.0291,11.1208,11.1208,11.1208,11.1208,11.1208,11.1208,11.1208,11.1208,11.1208,11.1208,11.1208,11.1208,11.1208,11.1208,11.1208,11.1208,11.1208,11.1208,11.1208,11.1208,11.1208,11.1208,11.1604,11.5037,11.6283,11.6853,12.0815,12.2165,12.2814,12.6852,12.7714,12.7987,13.1897,13.3098,13.3098,13.3098,13.0286,12.6487,12.3045,12.4921,12.708,12.5038,12.4775,12.5118,12.5684,12.5487,12.4961,12.4344,12.1374,11.8949,11.8949,11.5927,11.355,11.3711,11.359,11.355,11.3661,11.3711,11.3621,11.351,11.3631,11.3299,11.2415,11.2334,11.2012,11.1248,11.1208,11.1208,11.1208,11.1208,11.1208,11.1208,11.1208,11.1208,11.1208,11.1208,11.1208,11.1208,11.1208,11.1208,7.2025,7.5292,7.8992,8.0913,8.1713,8.2438,8.4016,8.3247,8.2277,8.2559,8.3131,8.4019,8.5306,8.7436,8.9729,9.1862,9.4357,9.7135,10.0231,10.2167,10.3531,10.4446,10.4566,10.4968,10.606,10.602,10.5933,10.5933,10.7635,10.8648,10.8648,11.0291,11.1208,11.1208,11.1208,11.1208,11.1208,11.1208,11.1208,11.1208,11.1208,11.1208,11.1208,11.1208,11.1208,11.1208,11.1208,11.1208,11.1208,11.1208,11.1208,11.1208,11.1208,11.1208,11.1305,11.1895,11.2137,11.2676,11.6711,11.8089,11.8749,12.2721,12.1747,11.9739,12.3692,12.4887,12.4887,12.4887,12.2026,11.889,11.8278,11.6129,11.5682,12.1874,12.0931,11.951,12.2841,12.1533,11.875,11.5349,11.4169,11.3728,11.3728,11.2533,11.1851,11.2616,11.2093,11.1892,11.2656,11.2736,11.2455,11.1691,11.2294,11.2374,11.1489,11.1409,11.1329,11.1208,11.1208,11.1208,11.1208,11.1208,11.1208,11.1208,11.1208,11.1208,11.1208,11.1208,11.1208,11.1208,11.1208,11.1208,7.3281,7.5855,7.8314,7.9107,7.963,8.0354,8.1602,8.1315,8.0908,8.1391,8.1758,8.2728,8.5062,8.6108,8.7999,9.2184,9.3915,9.5767,9.8823,10.0795,10.2445,10.3767,10.3974,10.4451,10.5772,10.5933,10.5933,10.5933,10.7152,10.8125,10.8648,10.9896,11.0774,11.1168,11.1208,11.1208,11.1208,11.1208,11.1208,11.1208,11.1208,11.1208,11.1208,11.1208,11.1208,11.1208,11.1208,11.1208,11.1208,11.1208,11.1208,11.1208,11.1208,11.1208,11.1208,11.1208,11.1208,11.1459,11.3303,11.3935,11.4606,11.8608,11.8702,11.7947,12.1886,12.0067,11.6621,11.6621,11.6906,11.6711,11.451,11.4175,11.4846,11.6288,11.5234,11.4463,11.6241,11.552,11.4015,11.2202,11.1811,11.1811,11.1811,11.1449,11.1329,11.1731,11.1449,11.1329,11.1771,11.1811,11.165,11.1248,11.157,11.165,11.1248,11.1208,11.1208,11.1208,11.1208,11.1208,11.1208,11.1208,11.1208,11.1208,11.1208,11.1208,11.1208,11.1208,11.1208,11.1208,11.1208,11.1208,7.6136,0.0,7.8791,7.8917,7.9354,7.9877,0.0,8.059,8.051,8.0827,8.0867,8.1879,8.5183,8.5186,8.6591,9.2184,9.3109,9.4035,9.6691,9.8622,10.0718,10.3133,10.3415,10.4054,10.5818,10.5933,10.5933,10.5933,10.679,10.7602,10.8286,10.9413,11.0299,11.0894,11.0935,11.0967,11.1208,11.1208,11.1208,11.1208,11.1208,11.1208,11.1208,11.1208,11.1208,11.1208,11.1208,11.1208,11.1208,11.1208,11.1208,11.1208,11.1208,11.1208,11.1208,11.1208,11.1208,11.1208,11.1208,11.1208,11.1701,11.4798,11.5807,11.6378,11.9364,11.6003,11.1208,11.1208,11.3447,11.5085,11.1992,11.3495,11.5234,11.311,11.1895,11.141,11.2427,11.1847,11.1208,11.1208,11.1208,11.1208,11.1208,11.1208,11.1208,11.1208,11.1208,11.1208,11.1208,11.1208,11.1208,11.1208,11.1208,11.1208,11.1208,11.1208,11.1208,11.1208,11.1208,11.1208,11.1208,11.1208,11.1208,11.1208,11.1208,11.1208,11.1208,11.1208,11.1208,11.1208,11.1208,11.1208,0.0,8.123,8.1436,8.466,8.4861,8.4301,8.4341,8.3698,0.0,8.1154,8.0867,8.1677,8.4378,8.4783,8.599,8.9691,9.0294,9.1259,9.3995,9.5929,9.8668,10.2932,10.3415,10.4054,10.5818,10.5933,10.5933,10.5933,10.679,10.732,10.74,10.9051,11.0017,11.0097,11.0097,11.0412,11.1168,11.1208,11.1208,11.1208,11.1208,11.1208,11.1208,11.1208,11.1208,11.1208,11.1208,11.1208,11.1208,11.1208,11.1208,11.1208,11.1208,11.1208,11.1208,11.1208,11.1208,11.1208,11.1208,11.1208,11.1216,11.1507,11.1604,11.1653,11.1943,11.1653,11.1208,11.1208,11.141,11.1556,11.1305,11.141,11.2483,11.595,11.3887,11.2234,11.595,11.3839,11.1208,11.1208,11.1208,11.1208,11.1208,11.1208,11.1208,11.1208,11.1208,11.1208,11.1208,11.1208,11.1208,11.1208,11.1208,11.1208,11.1208,11.1208,11.1208,11.1208,11.1208,11.1208,11.1208,11.1208,11.1208,11.1208,11.1208,11.1208,11.1208,11.1208,11.1208,11.1208,11.1208,11.1208,8.1351,8.2321,8.2768,8.4096,8.3774,8.3167,8.3167,8.2482,8.1476,8.0228,8.0948,8.2357,8.4378,8.5186,8.6754,9.0254,9.0857,9.1822,9.4519,9.6451,9.834,10.0594,10.1881,10.3008,10.4255,10.4813,10.533,10.5893,10.6261,10.671,10.7233,10.7964,10.8326,10.8326,10.889,10.9333,10.9607,10.9607,10.9888,11.0452,11.0452,11.0733,11.1208,11.1208,11.1208,11.1208,11.1208,11.1208,0.0,11.1208,11.1208,11.1208,11.1208,11.1208,11.1208,11.1208,11.1208,11.1208,11.1208,11.1208,11.1208,11.1208,11.1208,11.1208,11.1208,11.1208,11.1208,11.1208,11.1208,11.1208,11.1208,11.1208,11.1556,11.311,11.233,11.1604,11.3158,11.2282,11.1208,11.1208,11.1208,11.1208,11.1208,11.1208,11.1208,11.1208,11.1208,11.1208,11.1208,11.1208,11.1208,11.1208,11.1208,11.1208,11.1208,11.1208,11.1208,11.1208,11.1208,11.1208,11.1208,11.1208,11.1208,11.1208,11.1208,11.1208,11.1208,11.1208,11.1208,11.1208,11.1208,11.1208,8.2523,8.3613,8.4261,8.4261,8.4093,8.3686,8.2764,8.2563,8.1959,7.9906,8.0948,8.268,8.4056,8.5062,8.6752,9.0012,9.0776,9.1902,9.4639,9.6531,9.8139,9.9588,10.1117,10.2404,10.3335,10.4129,10.4848,10.5451,10.5772,10.6221,10.683,10.7159,10.732,10.732,10.7924,10.8366,10.8648,10.8648,10.897,10.9574,10.9574,11.0017,11.0814,11.0814,11.0926,11.1208,11.1208,11.1208,11.1208,11.1208,11.1208,11.1208,11.1208,11.1208,11.1208,11.1208,11.1208,11.1208,11.1208,11.1208,11.1208,11.1208,11.1208,11.1208,11.1208,11.1208,11.1208,11.1208,11.1208,11.1208,11.1208,11.1208,11.1208,11.1208,11.1208,11.1208,11.1208,11.1208,11.1208,11.1208,11.1208,11.1208,11.1208,11.1208,11.1208,11.1208,11.1208,11.1208,11.1208,11.1208,11.1208,11.1208,11.1208,11.1208,11.1208,11.1208,11.1208,11.1208,11.1208,11.1208,11.1208,11.1208,11.1047,11.0854,11.0814,11.0693,11.0412,11.0412,11.0412,11.0412,11.0412,11.0412,8.4297,8.5424,8.6108,8.6108,8.6792,8.6752,8.4019,8.4783,8.4861,8.0429,8.0948,8.2442,8.3255,8.414,8.5665,8.84,8.9489,9.0977,9.3714,9.5688,9.7782,10.0352,10.1479,10.2409,10.3294,10.4089,10.4566,10.4566,10.541,10.5893,10.5933,10.679,10.728,10.728,10.728,10.7722,10.8608,10.8648,10.8648,10.8648,10.8648,10.9131,10.9977,10.9977,11.0412,11.1168,11.1168,11.1168,11.1168,11.1168,11.1168,11.1208,11.1208,11.1208,11.1208,11.1208,11.1208,11.1208,11.1208,11.1208,11.1208,11.1208,11.1208,11.1208,11.1168,11.1168,11.1168,11.1168,11.1168,11.1168,11.1168,11.1168,11.1168,11.1168,11.1168,11.1208,11.1208,11.1208,11.1208,11.1208,11.1208,11.1208,11.1208,11.1208,11.1208,11.1208,11.1208,11.1208,11.1208,11.1208,11.1208,11.1208,11.1208,11.1208,11.1208,11.1208,11.1208,11.1168,11.1168,11.1168,11.1168,11.1168,11.0814,11.0017,10.9977,10.9534,10.8648,10.8648,10.8648,10.8648,10.8648,10.8648,8.4422,8.4944,8.5344,8.5947,8.6309,8.5987,8.3858,8.4301,8.4257,8.1149,8.1391,8.268,8.4096,8.5102,8.639,8.848,9.0574,9.2184,9.3029,9.5725,9.7938,9.8702,10.0151,10.1197,10.1479,10.2284,10.3285,10.4486,10.4807,10.525,10.5893,10.5617,10.5698,10.6301,10.6341,10.6462,10.6744,10.6744,10.7072,10.7722,10.7722,10.8165,10.9051,10.9051,10.9172,10.9365,10.9365,10.9768,11.0379,11.0379,11.0693,11.1208,11.1208,11.1208,11.1208,11.1208,11.1208,11.1208,11.1208,11.1208,11.1208,11.1208,11.1208,11.0967,10.9768,10.9365,10.9365,10.9365,10.9365,10.9365,10.9365,10.9848,11.0379,11.0379,11.0814,11.1208,11.1208,11.1208,11.1208,11.1208,11.1208,11.1208,11.1208,11.1208,11.1208,11.1208,11.1208,11.1208,11.1208,11.1208,11.1208,11.1208,11.1208,11.1208,11.1208,11.1208,11.0926,11.0419,11.0379,11.0097,10.9453,10.9365,10.9333,10.9051,10.9051,10.893,10.8648,10.8648,10.8648,10.8648,10.8648,10.8648,8.4582,8.5022,8.5424,8.5987,8.6108,8.5625,8.3818,8.4381,8.4539,8.1955,8.1834,8.2639,8.3976,8.4944,8.639,8.8925,9.15,9.3512,9.4237,9.6731,9.8619,9.9024,10.003,10.0996,10.168,10.16,10.2243,10.3968,10.4089,10.433,10.4893,10.4411,10.4531,10.537,10.537,10.5571,10.5933,10.5933,10.6221,10.675,10.675,10.7233,10.8125,10.8125,10.8326,10.8648,10.8648,10.897,10.9453,10.9453,10.9775,11.021,11.0572,11.0492,11.0251,11.0572,11.0492,11.0251,11.0613,11.0492,11.0251,11.0613,11.0492,11.0009,10.897,10.8648,10.8648,10.8648,10.8648,10.8648,10.8648,10.9051,10.9453,10.9453,11.0138,11.0733,11.0733,11.1015,11.1208,11.1208,11.1208,11.1208,11.1208,11.1208,11.1208,11.1208,11.1208,11.1208,11.1208,11.1208,11.1208,11.1208,11.1208,11.1047,11.0774,11.0733,11.0371,10.9534,10.9453,10.9212,10.8688,10.8648,10.8487,10.8125,10.8125,10.7964,10.7555,10.7555,10.7555,10.7555,10.7555,10.7555,8.4623,8.5303,8.5987,8.5987,8.6068,8.5625,8.3698,8.478,8.5344,8.276,8.2277,8.2523,8.3255,8.4261,8.603,8.9249,9.2345,9.4881,9.6453,9.8179,9.9668,10.0473,10.0553,10.1237,10.3013,10.164,10.1398,10.3174,10.3294,10.3254,10.3174,10.3254,10.3652,10.4446,10.4446,10.4848,10.5698,10.5772,10.5859,10.5859,10.5893,10.6382,10.7199,10.7199,10.7642,10.8407,10.8407,10.8447,10.8527,10.8527,10.8568,10.8729,10.9574,10.9373,10.8769,10.9574,10.9373,10.8769,10.9614,10.9333,10.8809,10.9614,10.9212,10.8407,10.8407,10.8407,10.8407,10.8407,10.8407,10.8407,10.8407,10.8407,10.8447,10.8527,10.9212,10.9944,10.9944,11.0452,11.0967,11.1047,11.1087,11.1087,11.1168,11.1208,11.1208,11.1208,11.1208,11.1208,11.1208,11.1208,11.1128,11.0967,11.0967,11.0693,10.9936,10.9944,10.9541,10.8608,10.8527,10.8487,10.8407,10.8407,10.8044,10.7152,10.7199,10.679,10.5933,10.5933,10.5933,10.5933,10.5933,10.5933,8.3858,8.4341,8.5025,8.5025,8.5585,8.5464,8.3006,8.4374,8.5344,8.276,8.2724,8.3211,8.3376,8.5344,8.7154,8.7919,9.2627,9.6131,9.5768,9.782,9.9427,9.9628,9.9628,10.007,10.1157,10.0915,10.1157,10.2243,10.2324,10.2002,10.1318,10.1921,10.2726,10.3611,10.3652,10.3732,10.3933,10.4572,10.4848,10.4848,10.5571,10.6013,10.6221,10.6221,10.6341,10.6502,10.6502,10.6951,10.7602,10.7602,10.8004,10.8688,10.885,10.8809,10.8688,10.889,10.8809,10.8688,10.889,10.8809,10.8688,10.889,10.7836,10.6502,10.6502,10.6502,10.6502,10.6502,10.6502,10.6502,10.6502,10.6502,10.6703,10.7394,10.8286,10.893,10.893,10.9091,10.9413,11.0138,11.0299,11.0452,11.1087,11.1208,11.1208,11.1208,11.1208,11.1208,11.1208,11.1208,11.0685,10.9325,10.9212,10.9131,10.897,10.893,10.8568,10.7642,10.7602,10.7273,10.6542,10.6502,10.6422,10.6221,10.6221,10.614,10.5933,10.5933,10.5933,10.5933,10.5933,10.5933,8.3537,8.3738,8.4301,8.5145,8.5464,8.5102,8.3771,8.4499,8.5102,8.373,8.3412,8.3537,8.3939,8.5585,8.7396,8.9047,9.2828,9.5767,9.6572,9.7817,9.8659,9.8659,9.9021,9.9708,10.0594,10.0674,10.1076,10.1962,10.164,10.1559,10.1962,10.16,10.1801,10.2771,10.2726,10.2972,10.3415,10.3813,10.4009,10.4009,10.4893,10.529,10.529,10.5732,10.5933,10.5933,10.5933,10.6221,10.6669,10.6669,10.6951,10.7394,10.7843,10.7716,10.7394,10.7843,10.7716,10.7434,10.7883,10.7763,10.7353,10.7353,10.6703,10.5933,10.5933,10.5933,10.5933,10.5933,10.5933,10.5933,10.5933,10.5933,10.606,10.6549,10.7032,10.7474,10.7924,10.8366,10.8809,10.9252,10.9333,10.9494,10.9888,11.0331,11.0492,11.0049,11.0331,11.0452,11.0049,10.9969,10.9607,10.8769,10.8648,10.8487,10.8044,10.8004,10.7595,10.671,10.6669,10.6422,10.5979,10.5522,10.5291,10.5291,10.478,10.4548,10.4548,10.4548,10.4548,10.4548,10.4548,10.4548,8.3215,8.3295,8.3738,8.5263,8.5223,8.4743,8.4743,8.4743,8.4743,8.4743,8.4261,8.3979,8.4422,8.5749,8.7679,9.0495,9.3069,9.5443,9.7495,9.8016,9.8177,9.8177,9.8622,9.9306,10.0352,10.0473,10.0835,10.172,10.0956,10.1117,10.2605,10.1398,10.1036,10.1801,10.1801,10.2163,10.2932,10.3133,10.3174,10.3169,10.3968,10.4411,10.4411,10.5175,10.5497,10.5497,10.5497,10.5497,10.5497,10.5497,10.5497,10.5577,10.6307,10.6187,10.5577,10.6348,10.6146,10.5617,10.6508,10.6301,10.5652,10.5577,10.5497,10.5497,10.5497,10.5571,10.5692,10.5692,10.5859,10.5933,10.5933,10.5933,10.5933,10.5933,10.5933,10.614,10.6911,10.7635,10.8246,10.8407,10.8407,10.8487,10.8648,10.9292,10.9534,10.8769,10.9292,10.9494,10.8769,10.8407,10.8205,10.8205,10.8205,10.7924,10.7112,10.7072,10.671,10.5778,10.5692,10.5565,10.522,10.4488,10.4065,10.388,10.3044,10.2579,10.2579,10.2579,10.2579,10.2579,10.2579,10.2657,8.2563,8.2849,8.3456,8.3698,8.4261,8.4743,8.4743,8.4743,8.4743,8.4743,8.5266,8.5266,8.3818,8.6797,8.9449,8.9206,9.3834,9.7334,9.6974,9.822,9.9185,9.9185,9.7981,9.7739,9.9346,9.9504,9.991,10.0795,10.003,9.9628,9.9869,10.0392,10.0755,10.0875,10.0875,10.0915,10.1036,10.1841,10.2203,10.2248,10.3129,10.3571,10.3571,10.3692,10.3732,10.3732,10.3732,10.3732,10.3732,10.3732,10.3732,10.3732,10.3898,10.3858,10.3732,10.3898,10.3858,10.3853,10.4652,10.4848,10.4692,10.3974,10.3732,10.3732,10.3732,10.421,10.4767,10.4767,10.533,10.5933,10.5933,10.5933,10.5933,10.5933,10.5933,10.5979,10.61,10.6221,10.6542,10.7313,10.7481,10.7722,10.8527,10.8769,10.8809,10.8688,10.8769,10.8809,10.8688,10.7273,10.6301,10.6301,10.6301,10.6261,10.614,10.614,10.5738,10.4807,10.4767,10.4086,10.2467,10.2291,10.1836,10.1054,10.0871,10.0826,10.0826,10.0826,10.0826,10.0826,10.0826,10.1171,8.2688,8.3131,8.3376,8.3376,8.3698,8.3979,8.3979,8.3979,8.4261,8.5266,8.5826,8.6028,8.5746,8.7275,8.8765,8.9409,9.1742,9.3913,9.5082,9.5928,9.6572,9.7095,9.7294,9.7618,9.79,9.8783,9.9306,9.9185,9.9306,9.9504,10.007,9.999,10.0392,10.1398,10.0956,10.0674,10.0674,10.1076,10.1278,10.1278,10.2203,10.265,10.269,10.3174,10.3415,10.3415,10.3415,10.3415,10.3415,10.3415,10.3415,10.3415,10.3415,10.3415,10.3415,10.3415,10.3415,10.3496,10.3813,10.3566,10.3164,10.333,10.3415,10.3415,10.3415,10.3652,10.3888,10.3888,10.4169,10.4612,10.5049,10.5169,10.529,10.5859,10.5933,10.5933,10.5933,10.5933,10.606,10.6462,10.6549,10.6623,10.7072,10.7555,10.7763,10.7233,10.7555,10.7675,10.7233,10.6422,10.5933,10.5933,10.5451,10.5169,10.5169,10.4773,10.4531,10.4566,10.4566,10.4195,10.3403,10.2844,10.206,10.1049,10.0484,10.0159,10.0159,9.9744,9.9513,9.9513,9.9098,9.9059,8.2334,8.2768,8.2813,8.3295,8.3577,8.3778,8.4019,8.3899,8.418,8.5786,8.6108,8.6269,8.6671,8.7154,8.7879,8.9129,9.0093,9.1339,9.3109,9.3995,9.4559,9.5042,9.6208,9.6932,9.6815,9.8142,9.8498,9.7415,9.8179,9.9065,9.995,9.9343,9.9749,10.1318,10.0714,10.0473,10.0674,10.0674,10.0674,10.0714,10.1358,10.168,10.172,10.2404,10.2686,10.2686,10.2686,10.2686,10.2686,10.2686,10.2686,10.2686,10.2686,10.2686,10.2686,10.2686,10.2686,10.2686,10.2686,10.2243,10.1801,10.2529,10.2847,10.3093,10.3093,10.337,10.3652,10.3496,10.3531,10.3813,10.421,10.429,10.4451,10.5135,10.5296,10.5336,10.5531,10.5571,10.5652,10.5899,10.5933,10.5933,10.5933,10.6462,10.675,10.6013,10.6502,10.6549,10.5416,10.5296,10.5296,10.5296,10.4848,10.4566,10.4566,10.4068,10.3851,10.4206,10.3972,10.3501,10.2824,10.1843,10.0731,9.9528,9.855,9.8133,9.8322,9.7715,9.7686,9.8103,9.7314,9.7276,8.0776,8.0988,8.1355,8.2974,8.4019,8.4904,8.5786,8.5266,8.4944,8.5907,8.6108,8.5867,8.5062,8.6309,8.7476,8.7597,9.0373,9.2345,9.1581,9.3713,9.5083,9.4237,9.4237,9.4921,9.6654,9.7536,9.7375,9.5686,9.6412,9.7256,9.8056,9.8056,9.8458,9.9467,9.9467,9.9829,10.0674,10.0674,10.0674,10.0674,10.0755,10.0755,10.0755,10.0795,10.0835,10.0835,10.0835,10.0835,10.0835,10.0835,10.0835,10.0835,10.0835,10.0835,10.0835,10.0835,10.0835,10.0835,10.0835,10.0795,10.0755,10.0795,10.1398,10.2123,10.2123,10.3204,10.4371,10.3611,10.3928,10.4371,10.3652,10.345,10.3496,10.3536,10.3576,10.3732,10.4486,10.4647,10.4888,10.5732,10.5933,10.5933,10.5933,10.5973,10.602,10.5933,10.5973,10.5416,10.3732,10.3576,10.3576,10.3576,10.4169,10.4566,10.4566,10.4553,10.4164,10.3324,10.2364,10.0655,9.8061,9.7167,9.5911,9.413,9.3326,9.3244,9.3996,9.4003,9.48,9.6349,9.5567,9.644,7.9997,8.0424,8.0107,8.0752,8.204,8.3207,8.3529,8.3734,8.4301,8.5826,8.5665,8.5505,8.635,8.6068,8.6108,8.7275,8.804,8.8764,8.9609,9.1017,9.2023,9.2305,9.3351,9.4116,9.4156,9.4962,9.5243,9.4599,9.5404,9.6048,9.633,9.6894,9.7576,9.8418,9.8458,9.8579,9.8944,9.9547,9.9829,9.9829,10.0433,10.0674,10.0674,10.0674,10.0674,10.0674,10.0674,10.0674,10.0674,10.0674,10.0674,10.0674,10.0674,10.0674,10.0674,10.0674,10.0674,10.0513,9.9346,9.8941,9.9065,9.9628,10.003,10.0301,10.0334,10.0711,10.115,10.0875,10.1349,10.2197,10.3154,10.3772,10.429,10.4893,10.5014,10.4934,10.4647,10.5049,10.5255,10.4497,10.4733,10.5049,10.5049,10.5049,10.5049,10.5049,10.5571,10.5738,10.5095,10.5014,10.4785,10.4233,10.3902,10.3421,10.2778,10.2174,10.1479,10.066,10.0258,9.9076,9.6885,9.6576,9.5822,9.4579,9.4275,9.432,9.4579,9.3965,9.4003,9.4566,9.3819,9.3895,7.7057,7.8034,7.8355,7.8636,8.0048,8.132,8.1392,8.1981,8.305,8.4824,8.4703,8.4663,8.5867,8.5384,8.5025,8.5947,8.6108,8.6551,8.7718,8.8604,8.9489,9.0414,9.1822,9.2707,9.2748,9.2989,9.327,9.3593,9.4156,9.4639,9.5003,9.5567,9.625,9.7093,9.7415,9.7696,9.7976,9.8579,9.886,9.886,9.9464,9.9789,9.9789,9.9789,9.9789,9.9789,9.9789,9.9789,9.9789,9.9789,9.9789,9.9789,9.9789,9.9789,9.9789,9.9789,9.9397,9.8673,9.7434,9.7036,9.7241,9.8142,9.8455,9.847,9.8805,9.907,9.9185,9.8599,9.9225,10.0184,10.0592,10.1728,10.2903,10.3554,10.4155,10.4561,10.4601,10.5049,10.5255,10.4416,10.4692,10.5049,10.5049,10.5049,10.5049,10.5049,10.5531,10.5599,10.4675,10.4273,10.3813,10.3213,10.2614,10.1905,10.0904,9.9992,9.9109,9.8253,9.7945,9.7064,9.5553,9.5285,9.4668,9.3743,9.3478,9.3478,9.3743,9.313,9.3124,9.3699,9.2908,9.2832,7.1925,7.374,7.5845,7.6832,7.8223,7.9416,7.9599,8.0223,8.1275,8.2933,8.3295,8.3336,8.3336,8.406,8.4381,8.3537,8.4864,8.6028,8.6068,8.6832,8.7758,8.8682,8.9489,9.0656,9.2425,9.1782,9.1661,9.2546,9.2667,9.307,9.3955,9.4036,9.4438,9.5324,9.6211,9.7055,9.7775,9.7855,9.7895,9.7895,9.7935,9.7976,9.7976,9.7976,9.7976,9.7976,9.7976,9.7976,9.7976,9.7976,9.7976,9.7976,9.7976,9.7976,9.7933,9.781,9.6699,9.5192,9.5192,9.5192,9.5321,9.6265,9.6516,9.6702,9.7571,9.8427,9.881,9.702,9.7828,9.8625,9.5938,9.7213,9.9176,9.9264,10.0579,10.2274,10.3977,10.44,10.4767,10.5571,10.5812,10.5853,10.5899,10.5893,10.5893,10.5893,10.5853,10.4847,10.2217,10.0935,10.0213,10.0213,10.0304,9.9992,9.9087,9.8197,9.727,9.6339,9.5496,9.4541,9.3623,9.287,9.2029,9.115,9.0396,9.0353,9.115,9.115,9.1985,9.3585,9.2788,9.3326,7.0312,7.104,7.1635,7.3569,7.547,7.6939,7.7457,7.8394,7.9433,8.0405,8.1114,8.1758,8.2402,8.2724,8.3046,8.3336,8.3818,8.4341,8.5062,8.5907,8.6832,8.7718,8.8603,8.9086,8.8925,8.9287,8.9609,8.9889,9.1057,9.1862,9.2104,9.2747,9.3231,9.3472,9.3714,9.3955,9.4156,9.5485,9.6129,9.6169,9.7415,9.7976,9.7976,9.7976,9.7976,9.7976,9.7976,9.7976,9.7976,9.7976,9.7976,9.7976,9.7976,9.755,9.6748,9.4836,9.3851,9.3428,9.3428,9.3428,9.3588,9.4513,9.478,9.4793,9.4945,9.5165,9.5277,9.4782,9.5476,9.6386,9.6248,9.7734,9.9132,9.8473,9.971,10.0614,9.9153,10.0906,10.2422,10.1354,10.2758,10.4295,10.4848,10.4928,10.4928,10.4928,10.3298,10.1956,10.1888,10.052,9.9075,9.7642,9.752,9.7173,9.6231,9.5961,9.5171,9.3722,9.3344,9.2566,9.108,9.0814,9.0586,9.0358,9.013,9.013,9.0358,9.0358,9.0586,9.1042,9.0776,9.0928,6.554,6.6269,6.6895,6.8886,7.0509,7.21,7.3859,7.4844,7.5773,7.7252,7.8237,7.9113,8.0028,8.0785,8.1494,8.2266,8.3022,8.3772,8.4626,8.5223,8.5867,8.6792,8.7088,8.6979,8.6459,8.7526,8.844,8.8803,8.977,9.0454,9.0777,9.1661,9.2184,9.2184,9.2546,9.2748,9.2748,9.3754,9.4277,9.4317,9.5282,9.5765,9.5765,9.5765,9.5765,9.5764,9.5429,9.5303,9.5261,9.4884,9.4758,9.4716,9.5074,9.4895,9.4105,9.1928,9.0876,9.0581,9.097,9.1086,9.1283,9.2558,9.266,9.2435,9.2727,9.2838,9.2752,9.2365,9.3185,9.4133,9.3878,9.5422,9.6928,9.6444,9.7692,9.8576,9.7447,9.8862,10.0037,9.8945,10.0053,10.1285,10.1717,10.2112,10.2242,10.1842,10.0474,9.9463,9.957,9.8723,9.7545,9.6014,9.5841,9.5356,9.4092,9.3667,9.2908,9.1578,9.1502,9.1004,9.0054,9.0016,9.0016,9.0016,9.0016,9.0016,9.0016,9.0016,9.0016,9.0016,9.0016,8.9637,5.8999,6.0352,6.1899,6.356,6.4605,6.6025,0.0,6.9963,7.0849,7.3303,7.4679,7.5703,7.6598,7.8165,7.9634,8.0517,8.1976,8.3307,8.4089,8.4361,8.4762,8.5484,8.5005,8.4708,8.4783,8.6261,8.7561,8.8442,8.8641,8.9005,8.9691,9.0576,9.1058,9.1058,9.1943,9.2345,9.2264,9.2465,9.2506,9.2425,9.2586,9.2748,9.2748,9.2748,9.2707,9.2586,9.1937,9.1612,9.149,9.0676,9.0308,9.0264,9.0966,9.1077,9.0631,8.9185,8.8171,8.7583,8.8384,8.8692,8.8931,9.0413,9.0348,8.984,9.0643,9.0935,9.0766,9.0077,9.1008,9.1933,9.0403,9.1805,9.3609,9.3604,9.4853,9.6199,9.6951,9.7339,9.7549,9.7534,9.7701,9.7823,9.7941,9.865,9.8748,9.7549,9.7333,9.7063,9.6247,9.5948,9.5553,9.4706,9.4548,9.3857,9.2376,9.1497,9.0733,9.0054,9.0016,8.9979,8.9865,8.9865,8.9827,8.9751,8.9713,8.9713,8.9713,8.9713,8.9713,8.9713,8.9713,8.8873,0.0,0.0,0.0,0.0,0.0,0.0,0.0,6.4371,6.5495,6.7287,6.9894,7.2206,7.314,7.4708,7.6315,7.7827,7.8891,7.983,8.0719,8.2017,8.2649,8.2138,8.2577,8.3159,8.3796,8.4815,8.5752,8.6593,8.7315,8.7798,8.7959,8.8844,8.9327,8.9327,9.0093,9.0259,8.9584,9.098,9.1301,9.0698,9.2062,9.2748,9.2748,9.2748,9.2383,9.1815,9.2302,9.214,9.1531,9.1368,9.0839,9.0226,9.0342,8.917,8.7319,8.761,8.7593,8.7507,8.7659,8.7735,8.7777,8.8133,8.8129,8.8004,8.8171,8.8212,8.8364,8.8923,8.9324,8.9644,8.9912,9.0925,9.1704,9.098,9.2149,9.3063,9.1824,9.3263,9.4863,9.4831,9.5928,9.7119,9.7823,9.8118,9.7231,9.4206,9.3641,9.3744,9.4346,9.3068,9.2126,9.1953,9.1345,9.0852,9.051,9.0358,9.0168,9.0016,9.0016,8.9713,8.9109,8.9071,8.8688,8.7963,8.7963,8.7963,8.7963,8.7963,8.7963,8.7963,8.7963,8.7773,0.0,0.0,0.0,0.0,0.0,0.0,0.0,0.0,0.0,0.0,0.0,6.7173,6.8384,0.0,7.2493,7.4604,7.5961,7.7385,7.9069,8.0397,8.0693,7.946,8.0063,8.0859,8.1658,8.293,8.3815,8.4228,8.5477,8.6233,8.621,8.7072,8.735,8.6885,8.7671,8.795,8.756,8.8787,8.9186,8.887,8.9703,9.01,9.01,9.01,8.9859,8.9537,8.9899,8.9658,8.8934,8.8934,8.841,8.7601,8.7601,8.6765,8.5688,8.6068,8.6179,8.6255,8.671,8.6862,8.6938,8.7356,8.7469,8.7469,8.7469,8.7469,8.7583,8.8042,8.8156,8.827,8.8608,8.9057,8.9423,8.9422,9.0126,9.0662,9.0115,9.1083,9.2059,9.2054,9.2695,9.3464,9.3888,9.4009,9.3411,9.1628,9.1308,9.1461,9.1882,9.1147,9.0429,9.0054,8.9637,8.9409,8.9409,8.8991,8.9143,8.9941,8.9637,8.9029,8.8194,8.8156,8.7966,8.7507,8.7469,8.7469,8.7469,8.7469,8.7469,8.7431,8.5762,8.4965,0.0,0.0,0.0,0.0,0.0,0.0,0.0,0.0,0.0,0.0,0.0,0.0,0.0,0.0,0.0,7.0894,7.288,7.4864,7.7198,7.7934,7.7823,7.6719,7.7575,7.8587,7.9581,8.1024,8.2014,8.2163,8.3586,8.4371,8.4197,8.5202,8.5514,8.4745,8.5595,8.5982,8.5829,8.6616,8.6933,8.6777,8.6937,0.0,8.6974,8.7014,8.6935,8.6777,8.6895,8.6539,8.5826,8.5826,8.5505,8.4901,8.4589,8.4474,8.4474,8.4474,8.4474,8.4547,8.5309,8.5575,8.5688,8.6293,8.6521,8.6521,8.671,8.6748,0.0,8.7166,8.7242,8.728,8.7431,8.7469,8.7659,8.8384,8.8536,8.8726,8.9371,8.9523,8.9561,8.9751,8.9789,8.9827,8.9979,8.9751,8.9523,8.9523,8.9523,8.9523,8.9523,8.9523,8.9257,8.8654,8.8536,8.8536,8.8536,8.7777,8.7887,8.9447,8.8764,8.7852,8.6786,8.6597,8.6445,8.6255,8.6255,8.6331,8.6521,8.6521,8.6521,8.6407,8.2233,8.0715,0.0,0.0,0.0,0.0,0.0,0.0,0.0,0.0,0.0,0.0,0.0,0.0,0.0,0.0,0.0,0.0,6.8962,7.1163,7.2979,7.267,7.2487,7.3004,7.5091,7.7125,7.8697,7.9692,8.0451,8.115,8.212,8.2316,8.1539,8.3137,0.0,0.0,0.0,8.4787,8.4092,8.4943,8.4982,8.4208,8.5022,8.5332,8.5215,8.537,8.4945,8.4246,8.4906,8.4789,8.4091,8.4091,8.4437,8.4779,8.3305,8.2726,8.2726,8.2726,8.2726,8.2726,8.284,0.0,0.0,8.2954,8.2992,8.3143,8.3982,8.421,8.4513,8.603,8.6448,8.66,8.728,8.7469,8.7507,8.7583,8.7621,8.7659,8.7735,8.7773,8.7963,8.8806,8.8957,8.9185,8.9865,8.8764,8.7773,8.7773,8.7773,8.7773,8.7773,8.7773,8.7735,8.7621,8.7621,0.0,8.7621,8.6862,8.6827,8.7697,8.7055,8.5878,8.4286,8.3409,8.265,8.1968,8.1968,8.2309,8.2992,8.2992,8.2992,8.284,7.5817,7.4562,0.0,0.0,0.0,0.0,0.0,0.0,0.0,0.0,0.0,0.0,0.0,0.0,0.0,0.0,0.0,0.0,6.4731,6.663,6.7313,6.7541,6.8642,7.1485,7.2739,7.3983,7.5633,7.6547,7.738,7.8205,7.9527,8.0106,7.9743,8.0844,8.1306,8.0857,8.1579,8.2117,8.2278,8.3124,8.3356,8.2972,8.3357,8.3511,8.3511,8.3511,8.3317,8.3006,8.3356,8.3278,8.2967,8.2967,8.3158,8.331,0.0,0.0,0.0,0.0,8.1057,8.1057,8.1057,8.136,8.1739,8.1739,8.2043,8.2498,8.284,8.2993,8.3145,8.3866,8.4016,8.413,8.4472,8.4547,8.4661,8.5195,8.5688,8.6141,8.6673,8.7166,8.7583,8.7966,8.8042,0.0,8.8456,8.7925,8.7469,8.7469,8.7469,8.7469,8.7469,8.7469,8.7318,8.6865,8.6827,8.6559,8.6068,8.5726,0.0,0.0,0.0,8.4513,8.383,8.2917,0.0,0.0,0.0,7.9006,7.8779,7.6918,0.0,0.0,7.2325,7.1637,0.0,0.0,0.0,0.0,0.0,0.0,0.0,0.0,0.0,0.0,0.0,0.0,0.0,0.0,0.0,0.0,6.0964,6.2567,6.2103,6.3327,6.5529,6.8864,6.9885,7.0882,7.2518,7.3653,7.4676,7.5438,7.708,7.7918,7.7716,7.8879,7.9298,7.8741,7.9527,8.0247,8.0936,8.1245,8.1398,8.1398,8.1439,8.1398,8.1436,8.1663,8.1777,8.1777,8.1777,8.1625,8.1436,8.1663,8.1777,8.1663,8.0525,8.0449,8.0867,8.0297,7.9917,7.969,7.9462,7.9728,8.0221,8.0221,8.0639,8.1132,8.136,8.1398,8.1474,8.1701,8.2081,8.2384,8.2157,8.2422,8.2917,8.3297,8.3828,8.4436,8.5119,8.5686,8.6217,8.6673,8.6407,8.6103,8.6103,8.6103,8.6103,8.6103,8.6103,8.6103,8.6103,8.6103,8.5876,8.5309,8.5271,8.4967,8.4322,8.4056,8.4018,8.4246,8.3526,8.3108,8.3108,8.2234,8.155,8.1094,7.8513,7.6539,0.0,0.0,0.0,0.0,0.0,0.0,0.0,0.0,0.0,0.0,0.0,0.0,0.0,0.0,0.0,0.0,0.0,0.0,0.0,0.0,0.0,0.0,0.0,0.0,5.7952,6.0574,6.3006,6.3888,6.6098,6.8224,6.9938,7.1603,7.2932,7.3694,7.5324,7.5929,7.5169,7.7412,7.8741,7.8741,7.9614,8.0069,8.0107,7.9272,7.8855,7.8855,7.8855,7.8855,7.8893,7.9765,8.0145,8.0145,8.0145,7.9652,7.8893,7.9803,8.0145,8.0145,8.0107,8.0107,8.0107,8.0069,7.95,7.8666,7.7905,7.764,7.7678,7.7678,7.7678,7.7867,7.8628,7.8855,7.9007,7.9917,8.1246,8.2271,8.1512,8.2538,8.3526,8.265,8.2498,8.2497,8.2536,8.2574,8.3068,8.4701,8.3713,8.2574,8.2574,8.2574,8.2574,8.2574,8.2574,0.0,8.2574,8.2574,8.2574,8.2536,8.2536,8.2536,8.2498,8.1777,8.1702,8.246,8.1739,8.1322,8.1322,8.0563,7.9386,7.7754,7.6729,7.5058,7.2628,0.0,0.0,0.0,0.0,0.0,0.0,0.0,0.0,0.0,0.0,0.0,0.0,0.0,0.0,0.0,0.0,0.0,0.0,0.0,0.0,0.0,0.0,0.0,0.0,5.8267,6.0736,6.2749,6.4192,6.5453,6.6522,6.7693,6.8978,7.035,7.2017,7.308,7.3312,7.4678,7.5402,7.5402,7.6235,7.6993,7.7488,7.7792,7.821,7.8741,7.8741,7.9045,7.9614,7.9955,8.0069,8.0069,8.0069,7.9917,7.969,7.9955,7.8436,7.5819,7.5819,7.5819,7.5779,7.5248,7.4868,7.464,7.4871,7.4985,7.5174,7.6311,7.707,7.7602,7.7867,7.7943,7.8019,7.8323,7.8779,7.9158,7.8893,7.9234,7.9576,7.9272,8.0449,8.1512,8.0981,8.2196,8.3297,8.3257,8.1968,8.0677,8.007,8.136,8.1853,8.0221,8.136,8.2422,8.2422,8.2422,8.2422,8.2422,8.2422,8.2195,8.1702,8.1853,8.1702,8.0905,8.1095,8.1019,8.0487,7.9652,7.8931,7.8324,7.802,7.4985,6.9135,0.0,0.0,0.0,0.0,0.0,0.0,0.0,0.0,0.0,0.0,0.0,0.0,0.0,0.0,0.0,0.0,0.0,0.0,0.0,0.0,0.0,0.0,0.0,0.0,0.0,0.0,6.0926,6.1381,0.0,6.3069,6.3706,6.4762,6.6471,6.8142,6.9515,7.0654,7.1759,7.2518,7.2856,7.3957,7.4792,7.5288,7.5893,7.6427,7.692,7.692,7.7224,7.7828,7.8132,7.8284,7.8284,7.8284,7.8094,7.7754,7.7524,7.5625,7.2856,7.2856,7.2632,7.2366,7.2476,7.2325,7.2211,7.3315,7.3505,7.3429,7.4527,7.4678,7.4451,7.4451,7.3995,7.3726,7.4602,7.5514,7.6311,7.6918,7.7526,7.7981,7.7981,7.8969,7.988,7.969,8.0639,8.136,8.0829,7.988,7.8703,7.7186,7.8248,7.8893,7.7602,7.8779,8.0221,8.1398,8.155,8.155,8.155,8.155,8.1398,8.0867,8.1284,8.1171,8.0145,8.0259,8.0145,7.9614,7.9007,7.802,7.654,7.6503,7.3201,0.0,0.0,0.0,0.0,0.0,0.0,0.0,0.0,0.0,0.0,0.0,0.0,0.0,0.0,0.0,0.0,0.0,0.0,0.0,0.0,0.0,0.0,0.0,0.0,0.0,0.0,0.0,5.8239,5.7838,0.0,0.0,0.0,0.0,6.2018,6.363,6.527,6.6933,6.8647,7.0047,7.0987,7.2552,7.3391,7.3429,7.3432,7.3505,7.3543,7.3543,7.3581,7.3656,7.4489,7.4904,7.4904,7.4904,7.4413,7.3543,7.2552,7.1675,7.0949,7.0873,7.0274,6.9672,7.1337,7.1485,7.1067,7.2708,7.2818,7.2173,7.2135,7.054,6.8566,6.8414,6.7269,0.0,0.0,7.138,7.3656,7.54,7.707,7.8324,7.8438,7.7945,7.7678,7.8438,7.8095,7.7526,7.7222,7.7222,7.6387,7.3656,0.0,7.3619,7.4448,7.479,7.6157,7.9462,7.9993,8.0069,8.0069,8.0069,8.0069,8.0069,8.0031,7.9993,7.9993,7.9158,7.8666,7.8666,7.8514,7.6503,7.2438,7.2249,0.0,0.0,0.0,0.0,0.0,0.0,0.0,0.0,0.0,0.0,0.0,0.0,0.0,0.0,0.0,0.0,0.0,0.0,0.0,0.0,0.0,0.0,0.0,0.0,0.0,0.0,5.0798,5.3177,5.4874,5.4912,5.495,0.0,0.0,0.0,0.0,0.0,0.0,6.0897,6.3205,6.5142,6.6484,6.8186,6.9363,7.0047,7.0621,7.1266,7.1941,7.1941,7.2211,7.2818,7.3046,7.3122,7.3122,7.3122,7.3008,7.248,6.8496,6.6402,6.5567,6.4314,6.3327,6.2719,6.3714,6.398,6.4238,6.7155,6.8029,6.7763,6.7085,6.6446,6.546,6.3023,0.0,0.0,0.0,0.0,6.7699,7.0085,7.1489,7.267,7.4529,7.5782,7.6615,7.6804,7.7679,7.7148,7.2746,7.2438,7.1523,6.7047,6.7845,0.0,6.856,7.1641,7.4757,7.6918,7.8892,8.0069,8.0069,8.0069,8.0069,8.0069,7.9462,7.9082,7.9082,7.8323,7.7867,7.7867,7.5438,7.3008,7.0659,0.0,0.0,0.0,0.0,0.0,0.0,0.0,0.0,0.0,0.0,0.0,0.0,0.0,0.0,0.0,0.0,0.0,0.0,0.0,0.0,0.0,0.0,0.0,0.0,0.0,0.0,0.0,4.833,5.0846,5.2556,5.2062,5.1758,0.0,0.0,0.0,0.0,0.0,0.0,0.0,0.0,0.0,6.1029,6.2415,6.3736,6.4959,6.6136,6.7193,6.8029,6.837,6.8756,6.9179,6.9179,6.9179,6.9211,6.9591,6.875,6.682,6.3554,6.1314,5.9796,0.0,0.0,0.0,0.0,5.8505,5.8885,6.1562,6.2436,6.2398,6.1846,0.0,0.0,0.0,0.0,0.0,0.0,0.0,6.3904,6.6446,6.8832,7.1034,7.278,7.3881,7.4678,7.4985,7.3577,7.1076,6.7465,6.7155,6.6237,6.2255,6.3053,0.0,0.0,0.0,7.1949,7.4719,7.7374,7.9006,7.9006,7.9006,7.9006,7.9006,7.8513,7.821,7.821,7.745,7.6311,7.4904,7.2628,6.9401,0.0,0.0,0.0,0.0,0.0,0.0,0.0,0.0,0.0,0.0,0.0,0.0,0.0,0.0,0.0,0.0,0.0,0.0,0.0,0.0,0.0,0.0,0.0,0.0,0.0,0.0,0.0,0.0,0.0,4.8452,5.029,0.0,0.0,0.0,0.0,0.0,0.0,0.0,0.0,0.0,0.0,0.0,0.0,0.0,5.78,5.9406,6.085,6.1989,6.2757,6.3449,6.3828,6.3942,6.3942,6.4056,6.4283,6.4534,0.0,5.9634,5.8391,0.0,0.0,0.0,0.0,0.0,0.0,0.0,0.0,0.0,0.0,0.0,0.0,0.0,0.0,0.0,0.0,0.0,0.0,0.0,0.0,0.0,0.0,7.008,7.0991,7.1485,7.1641,7.1569,6.7085,6.2757,6.179,6.1676,6.0926,0.0,0.0,0.0,0.0,0.0,0.0,7.267,7.5779,7.7564,7.7564,7.7564,7.7564,7.7564,7.745,7.7374,7.7374,7.6121,7.3995,7.0953,6.9857,0.0,0.0,0.0,0.0,0.0,0.0,0.0,0.0,0.0,0.0,0.0,0.0,0.0,0.0,0.0,0.0,0.0,0.0,0.0,0.0,0.0,0.0,0.0,0.0,0.0,0.0,0.0,0.0,0.0,0.0,0.0,0.0,0.0,0.0,0.0,0.0,0.0,0.0,0.0,0.0,0.0,0.0,0.0,0.0,0.0,0.0,0.0,0.0,0.0,0.0,5.7643,5.8125,5.8799,5.8799,5.9596,6.0707,5.7458,5.6774,5.7762,5.4784,0.0,0.0,0.0,0.0,0.0,0.0,0.0,0.0,0.0,0.0,0.0,0.0,0.0,0.0,0.0,0.0,0.0,0.0,0.0,0.0,0.0,0.0,6.2407,6.3956,6.5863,6.6053,6.1343,0.0,0.0,0.0,0.0,0.0,0.0,0.0,0.0,0.0,0.0,0.0,7.0165,7.4678,7.7564,7.7564,7.7564,7.7564,7.7564,7.688,7.6425,7.6425,7.3049,7.0165,0.0,0.0,0.0,0.0,0.0,0.0,0.0,0.0,0.0,0.0,0.0,0.0,0.0,0.0,0.0,0.0,0.0,0.0,0.0,0.0,0.0,0.0,0.0,0.0,0.0,0.0,0.0,0.0,0.0,0.0,0.0,0.0,0.0,0.0,0.0,0.0,0.0,0.0,0.0,0.0,0.0,0.0,0.0,0.0,0.0,0.0,0.0,0.0,0.0,0.0,0.0,0.0,0.0,0.0,0.0,0.0,0.0,0.0,5.3076,5.1202,0.0,0.0,0.0,0.0,0.0,0.0,0.0,0.0,0.0,0.0,0.0,0.0,0.0,0.0,0.0,0.0,0.0,0.0,0.0,0.0,0.0,0.0,0.0,0.0,0.0,0.0,0.0,0.0,0.0,0.0,0.0,0.0,0.0,0.0,0.0,0.0,0.0,0.0,0.0,0.0,6.7731,7.2852,7.6235,7.6235,7.6235,7.6081,7.5554,7.5136,7.415,7.2476,6.9667,0.0,0.0,0.0,0.0,0.0,0.0,0.0,0.0,0.0,0.0,0.0,0.0,0.0,0.0,0.0,0.0,0.0,0.0,0.0,0.0,0.0,0.0,0.0,0.0,0.0,0.0,0.0,0.0,0.0,0.0,0.0,0.0,0.0,0.0,0.0,0.0,0.0,0.0,0.0,0.0,0.0,0.0,0.0,0.0,0.0,0.0,0.0,0.0,0.0,0.0,0.0,0.0,0.0,0.0,0.0,0.0,0.0,0.0,0.0,4.9279,4.6676,0.0,0.0,0.0,0.0,0.0,0.0,0.0,0.0,0.0,0.0,0.0,0.0,0.0,0.0,0.0,0.0,0.0,0.0,0.0,0.0,0.0,0.0,0.0,0.0,0.0,0.0,0.0,0.0,0.0,0.0,0.0,0.0,0.0,0.0,0.0,0.0,0.0,0.0,0.0,0.0,6.5066,7.0685,7.4486,7.4486,7.4486,7.4185,7.3467,7.3429,7.2025,6.8718,6.6433,0.0,0.0,0.0,0.0,0.0,0.0,0.0,0.0,0.0,0.0,0.0,0.0,0.0,0.0,0.0,0.0,0.0,0.0,0.0,0.0,0.0,0.0,0.0,0.0,0.0,0.0,0.0,0.0,0.0,0.0,0.0,0.0,0.0,0.0,0.0,0.0,0.0,0.0,0.0,0.0,0.0,0.0,0.0,0.0,0.0,0.0,0.0,0.0,0.0,0.0,0.0,0.0,0.0,0.0,0.0,0.0,0.0,0.0,0.0,0.0,0.0,0.0,0.0,0.0,0.0,0.0,0.0,0.0,0.0,0.0,0.0,0.0,0.0,0.0,0.0,0.0,0.0,0.0,0.0,0.0,0.0,0.0,0.0,0.0,0.0,0.0,0.0,0.0,0.0,0.0,0.0,0.0,0.0,0.0,0.0,0.0,0.0,0.0,0.0,0.0,0.0,6.1774,6.8334,7.2742,7.2742,7.2742,7.2704,7.2628,7.2628,7.1186,6.7769,0.0,0.0,0.0,0.0,0.0,0.0,0.0,0.0,0.0,0.0,0.0,0.0,0.0,0.0,0.0,0.0,0.0,0.0,0.0,0.0,0.0,0.0,0.0,0.0,0.0,0.0,0.0,0.0,0.0,0.0,0.0,0.0,0.0,0.0,0.0,0.0,0.0,0.0,0.0,0.0,0.0,0.0,0.0,0.0,0.0,0.0,0.0,0.0,0.0,0.0,0.0,0.0,0.0,0.0,0.0,0.0,0.0,0.0,0.0,0.0,0.0,0.0,0.0,0.0,0.0,0.0,0.0,0.0,0.0,0.0,0.0,0.0,0.0,0.0,0.0,0.0,0.0,0.0,0.0,0.0,0.0,0.0,0.0,0.0,0.0,0.0,0.0,0.0,0.0,0.0,0.0,0.0,0.0,0.0,0.0,0.0,0.0,0.0,0.0,0.0,0.0,0.0,6.0471,6.7238,7.1979,7.2438,7.2093,7.1599,7.1038,7.054,6.7665,6.1533,0.0,0.0,0.0,0.0,0.0,0.0,0.0,0.0,0.0,0.0,0.0,0.0,0.0,0.0,0.0,0.0,0.0,0.0,0.0,0.0,0.0,0.0,0.0,0.0,0.0,0.0,0.0,0.0,0.0,0.0,0.0,0.0,0.0,0.0,0.0,0.0,0.0,0.0,0.0,0.0,0.0,0.0,0.0,0.0,0.0,0.0,0.0,0.0,0.0,0.0,0.0,0.0,0.0,0.0,0.0,0.0,0.0,0.0,0.0,0.0,0.0,0.0,0.0,0.0,0.0,0.0,0.0,0.0,0.0,0.0,0.0,0.0,0.0,0.0,0.0,0.0,0.0,0.0,0.0,0.0,0.0,0.0,0.0,0.0,0.0,0.0,0.0,0.0,0.0,0.0,0.0,0.0,0.0,0.0,0.0,0.0,0.0,0.0,0.0,0.0,0.0,0.0,5.7936,6.5224,7.0422,7.0958,7.0535,6.9966,6.9292,6.8528,6.4766,5.7051,0.0,0.0,0.0,0.0,0.0,0.0,0.0,0.0,0.0,0.0,0.0,0.0,0.0,0.0,0.0,0.0,0.0,0.0,0.0,0.0,0.0,0.0,0.0,0.0,0.0,0.0,0.0,0.0,0.0,0.0,0.0,0.0,0.0,0.0,0.0,0.0,0.0,0.0,0.0,0.0,0.0,0.0,0.0,0.0,0.0,0.0,0.0,0.0,0.0,0.0,0.0,0.0,0.0,0.0,0.0,0.0,0.0,0.0,0.0,0.0,0.0,0.0,0.0,0.0,0.0,0.0,0.0,0.0,0.0,0.0,0.0,0.0,0.0,0.0,0.0,0.0,0.0,0.0,0.0,0.0,0.0,0.0,0.0,0.0,0.0,0.0,0.0,0.0,0.0,0.0,0.0,0.0,0.0,0.0,0.0,0.0,0.0,0.0,0.0,0.0,0.0,0.0,5.3376,6.1715,6.7503,6.7503,6.7503,6.7503,6.7503,6.6775,6.3267,0.0,0.0,0.0,0.0,0.0,0.0,0.0,0.0,0.0,0.0,0.0,0.0,0.0,0.0,0.0,0.0,0.0,0.0,0.0,0.0,0.0,0.0,0.0,0.0,0.0,0.0,0.0,0.0,0.0,0.0,0.0,0.0,0.0,0.0,0.0,0.0,0.0,0.0,0.0,0.0,0.0,0.0,0.0,0.0,0.0,0.0,0.0,0.0,0.0,0.0,0.0,0.0,0.0,0.0,0.0,0.0,0.0,0.0,0.0,0.0,0.0,0.0,0.0,0.0,0.0,0.0,0.0,0.0,0.0,0.0,0.0,0.0,0.0,0.0,0.0,0.0,0.0,0.0,0.0,0.0,0.0,0.0,0.0,0.0,0.0,0.0,0.0,0.0,0.0,0.0,0.0,0.0,0.0,0.0,0.0,0.0,0.0,0.0,0.0,0.0,0.0,0.0,0.0,5.021,5.7224,6.2602,6.4447,6.5301,6.5725,6.5725,6.4534,6.0298,5.2248,0.0,0.0,0.0,0.0,0.0,0.0,0.0,0.0,0.0,0.0,0.0,0.0,0.0,0.0,0.0,0.0,0.0,0.0,0.0,0.0,0.0,0.0,0.0,0.0,0.0,0.0,0.0,0.0,0.0,0.0,0.0,0.0,0.0,0.0,0.0,0.0,0.0,0.0,0.0,0.0,0.0,0.0,0.0,0.0,0.0,0.0,0.0,0.0,0.0,0.0,0.0,0.0,0.0,0.0,0.0,0.0,0.0,0.0,0.0,0.0,0.0,0.0,0.0,0.0,0.0,0.0,0.0,0.0,0.0,0.0,0.0,0.0,0.0,0.0,0.0,0.0,0.0,0.0,0.0,0.0,0.0,0.0,0.0,0.0,0.0,0.0,0.0,0.0,0.0,0.0,0.0,0.0,0.0,0.0,0.0,0.0,0.0,0.0,0.0,0.0,0.0,0.0,0.0,5.5277,6.0779,6.1529,6.3085,6.4048,6.4048,6.2863,5.8926,5.1602,0.0,0.0,0.0,0.0,0.0,0.0,0.0,0.0,0.0,0.0,0.0,0.0,0.0,0.0,0.0,0.0,0.0,0.0,0.0,0.0,0.0,0.0,0.0,0.0,0.0,0.0,0.0,0.0,0.0,0.0,0.0,0.0,0.0,0.0,0.0,0.0,0.0,0.0,0.0,0.0,0.0,0.0,0.0,0.0,0.0,0.0,0.0,0.0,0.0,0.0,0.0,0.0,0.0,0.0,0.0,0.0,0.0,0.0,0.0,0.0,0.0,0.0,0.0,0.0,0.0,0.0,0.0,0.0,0.0,0.0,0.0,0.0,0.0,0.0,0.0,0.0,0.0,0.0,0.0,0.0,0.0,0.0,0.0,0.0,0.0,0.0,0.0,0.0,0.0,0.0,0.0,0.0,0.0,0.0,0.0,0.0,0.0,0.0,0.0,0.0,0.0,0.0,0.0,5.4953,6.0906,5.8413,6.0601,6.2247,6.2247,6.1394,5.8522,5.31,4.9169,0.0,0.0,0.0,0.0,0.0,0.0,0.0,0.0,0.0,0.0,0.0,0.0,0.0,0.0,0.0,0.0,0.0,0.0,0.0,0.0,0.0,0.0,0.0,0.0,0.0,0.0,0.0,0.0,0.0,0.0,0.0,0.0,0.0,0.0,0.0,0.0,0.0,0.0,0.0,0.0,0.0,0.0,0.0,0.0,0.0,0.0,0.0,0.0,0.0,0.0,0.0,0.0,0.0,0.0,0.0,0.0,0.0,0.0,0.0,0.0,0.0,0.0,0.0,0.0,0.0,0.0,0.0,0.0,0.0,0.0,0.0,0.0,0.0,0.0,0.0,0.0,0.0,0.0,0.0,0.0,0.0,0.0,0.0,0.0,0.0,0.0,0.0,0.0,0.0,0.0,0.0,0.0,0.0,0.0,0.0,0.0,0.0,0.0,0.0,0.0,0.0,0.0,5.0227,5.4003,5.2869,5.6361,5.8717,5.8717,5.7868,5.5211,5.0106,4.934,0.0,0.0,0.0,0.0,0.0,0.0,0.0,0.0,0.0,0.0,0.0,0.0,0.0,0.0,0.0,0.0,0.0,0.0,0.0,0.0,0.0,0.0,0.0,0.0,0.0,0.0,0.0,0.0,0.0,0.0,0.0,0.0,0.0,0.0,0.0,0.0,0.0,0.0,0.0,0.0,0.0,0.0,0.0,0.0,0.0,0.0,0.0,0.0,0.0,0.0,0.0,0.0,0.0,0.0,0.0,0.0,0.0,0.0,0.0,0.0,0.0,0.0,0.0,0.0,0.0,0.0,0.0,0.0,0.0,0.0,0.0,0.0,0.0,0.0,0.0,0.0,0.0,0.0,0.0,0.0,0.0,0.0,0.0,0.0,0.0,0.0,0.0,0.0,0.0,0.0,0.0,0.0,0.0,0.0,0.0,0.0,0.0,0.0,0.0,0.0,0.0,0.0,4.5737,4.9314,5.2966,5.6521,5.8202,5.7004,5.7542,5.5207,4.8837,4.6796,0.0,0.0,0.0,0.0,0.0,0.0,0.0,0.0,0.0,0.0,0.0,0.0,0.0,0.0,0.0,0.0,0.0,0.0,0.0,0.0,0.0,0.0,0.0,0.0,0.0,0.0,0.0,0.0,0.0,0.0,0.0,0.0,0.0,0.0,0.0,0.0,0.0,0.0,0.0,0.0,0.0,0.0,0.0,0.0,0.0,0.0,0.0,0.0,0.0,0.0,0.0,0.0,0.0,0.0,0.0,0.0,0.0,0.0,0.0,0.0,0.0,0.0,0.0,0.0,0.0,0.0,0.0,0.0,0.0,0.0,0.0,0.0,0.0,0.0,0.0,0.0,0.0,0.0,0.0,0.0,0.0,0.0,0.0,0.0,0.0,0.0,0.0,0.0,0.0,0.0,0.0,0.0,0.0,0.0,0.0,0.0,0.0,0.0,0.0,0.0,0.0,0.0,0.0,4.6254,5.3797,5.7192,5.7869,5.5291,5.7358,5.5511,4.7877,0.0,0.0,0.0,0.0,0.0,0.0,0.0,0.0,0.0,0.0,0.0,0.0,0.0,0.0,0.0,0.0,0.0,0.0,0.0,0.0,0.0,0.0,0.0,0.0,0.0,0.0,0.0,0.0,0.0,0.0,0.0,0.0,0.0,0.0,0.0,0.0,0.0,0.0,0.0,0.0,0.0,0.0,0.0,0.0,0.0,0.0,0.0,0.0,0.0,0.0,0.0,0.0,0.0,0.0,0.0,0.0,0.0,0.0,0.0,0.0,0.0,0.0,0.0,0.0,0.0,0.0,0.0,0.0,0.0,0.0,0.0,0.0,0.0,0.0,0.0,0.0,0.0,0.0,0.0,0.0,0.0,0.0,0.0,0.0,0.0,0.0,0.0,0.0,0.0,0.0,0.0,0.0,0.0,0.0,0.0,0.0,0.0,0.0,0.0,0.0,0.0,0.0,0.0,0.0,4.522,4.725,5.1192,5.261,5.0164,5.1694,5.0525,4.5076,0.0,0.0,0.0,0.0,0.0,0.0,0.0,0.0,0.0,0.0,0.0,0.0,0.0,0.0]}]]]